Wetterdaten: Montag, 06.11.2017
Datum Zeit Temp. A. Pool Temp. Feuchte A. Luftdruck Regen Wind Richtung Richtung Sonnenschein ET UV Solar Taupunkt Windchill Windben Empfang
06.11.2017 00:00 5,6 C 7,8 C 92 % 1012,8 hPa 0,0 l/m 13,2 km/h (3 Bft) W-SW 244 0 min 0,000 mm 0,0 UV-I 0 W/m 4,4 C 0,8 C 19,3 km/h (3 Bft) 95,12 %
06.11.2017 00:02 5,6 C 7,8 C 92 % 1012,8 hPa 0,0 l/m 17,7 km/h (3 Bft) SW 220 0 min 0,000 mm 0,0 UV-I 0 W/m 4,4 C -1,5 C 17,7 km/h (3 Bft) 95,00 %
06.11.2017 00:04 5,6 C 7,8 C 92 % 1012,9 hPa 0,0 l/m 15,3 km/h (3 Bft) W-SW 249 0 min 0,000 mm 0,0 UV-I 0 W/m 4,4 C -0,3 C 22,5 km/h (4 Bft) 98,11 %
06.11.2017 00:06 5,6 C 7,8 C 92 % 1012,9 hPa 0,0 l/m 16,2 km/h (3 Bft) S-SW 202 0 min 0,000 mm 0,0 UV-I 0 W/m 4,4 C -0,8 C 22,5 km/h (4 Bft) 95,74 %
06.11.2017 00:08 5,6 C 7,8 C 92 % 1012,9 hPa 0,0 l/m 12,9 km/h (3 Bft) S 186 0 min 0,000 mm 0,0 UV-I 0 W/m 4,4 C 0,9 C 20,9 km/h (4 Bft) 95,45 %
06.11.2017 00:10 5,6 C 7,8 C 92 % 1012,9 hPa 0,0 l/m 17,5 km/h (3 Bft) S 176 0 min 0,000 mm 0,0 UV-I 0 W/m 4,4 C -1,4 C 22,5 km/h (4 Bft) 97,73 %
06.11.2017 00:12 5,6 C 7,8 C 92 % 1012,9 hPa 0,2 l/m 15,5 km/h (3 Bft) SW 236 0 min 0,000 mm 0,0 UV-I 0 W/m 4,4 C -0,4 C 22,5 km/h (4 Bft) 94,74 %
06.11.2017 00:14 5,6 C 7,8 C 92 % 1012,9 hPa 0,0 l/m 12,6 km/h (3 Bft) S-SW 208 0 min 0,000 mm 0,0 UV-I 0 W/m 4,4 C 1,1 C 19,3 km/h (3 Bft) 92,86 %
06.11.2017 00:16 5,6 C 7,8 C 92 % 1012,8 hPa 0,0 l/m 12,1 km/h (2 Bft) S-SW 207 0 min 0,000 mm 0,0 UV-I 0 W/m 4,4 C 1,4 C 19,3 km/h (3 Bft) 100,00 %
06.11.2017 00:18 5,6 C 7,8 C 93 % 1012,8 hPa 0,0 l/m 11,6 km/h (2 Bft) SW 225 0 min 0,000 mm 0,0 UV-I 0 W/m 4,6 C 1,7 C 16,1 km/h (3 Bft) 93,75 %
06.11.2017 00:20 5,6 C 7,8 C 93 % 1012,8 hPa 0,0 l/m 13,9 km/h (3 Bft) SW 227 0 min 0,000 mm 0,0 UV-I 0 W/m 4,6 C 0,4 C 24,1 km/h (4 Bft) 96,23 %
06.11.2017 00:22 5,6 C 7,8 C 93 % 1012,8 hPa 0,0 l/m 15,7 km/h (3 Bft) SW 218 0 min 0,000 mm 0,0 UV-I 0 W/m 4,6 C -0,5 C 25,7 km/h (4 Bft) 92,31 %
06.11.2017 00:24 5,6 C 7,8 C 93 % 1012,9 hPa 0,0 l/m 14,6 km/h (3 Bft) S-SW 211 0 min 0,000 mm 0,0 UV-I 0 W/m 4,6 C 0,0 C 20,9 km/h (4 Bft) 96,36 %
06.11.2017 00:26 5,6 C 7,8 C 93 % 1012,9 hPa 0,0 l/m 14,6 km/h (3 Bft) SW 225 0 min 0,000 mm 0,0 UV-I 0 W/m 4,6 C 0,0 C 20,9 km/h (4 Bft) 93,62 %
06.11.2017 00:28 5,6 C 7,8 C 93 % 1012,9 hPa 0,0 l/m 17,0 km/h (3 Bft) SW 232 0 min 0,000 mm 0,0 UV-I 0 W/m 4,6 C -1,1 C 24,1 km/h (4 Bft) 97,44 %
06.11.2017 00:30 5,6 C 7,8 C 93 % 1012,8 hPa 0,0 l/m 12,4 km/h (3 Bft) W-SW 248 0 min 0,000 mm 0,0 UV-I 0 W/m 4,6 C 1,2 C 20,9 km/h (4 Bft) 96,00 %
06.11.2017 00:32 5,6 C 7,8 C 93 % 1012,9 hPa 0,0 l/m 16,0 km/h (3 Bft) SW 221 0 min 0,000 mm 0,0 UV-I 0 W/m 4,6 C -0,7 C 24,1 km/h (4 Bft) 97,56 %
06.11.2017 00:34 5,6 C 7,8 C 93 % 1012,9 hPa 0,0 l/m 13,0 km/h (3 Bft) S-SW 213 0 min 0,000 mm 0,0 UV-I 0 W/m 4,6 C 0,9 C 17,7 km/h (3 Bft) 96,23 %
06.11.2017 00:36 5,5 C 7,8 C 93 % 1012,9 hPa 0,0 l/m 12,5 km/h (3 Bft) S-SW 211 0 min 0,000 mm 0,0 UV-I 0 W/m 4,5 C 1,0 C 19,3 km/h (3 Bft) 95,74 %
06.11.2017 00:38 5,5 C 7,8 C 93 % 1012,9 hPa 0,0 l/m 12,6 km/h (3 Bft) SW 219 0 min 0,000 mm 0,0 UV-I 0 W/m 4,5 C 1,0 C 17,7 km/h (3 Bft) 96,23 %
06.11.2017 00:40 5,6 C 7,8 C 93 % 1012,9 hPa 0,0 l/m 11,5 km/h (2 Bft) S-SW 213 0 min 0,000 mm 0,0 UV-I 0 W/m 4,6 C 1,8 C 17,7 km/h (3 Bft) 97,37 %
06.11.2017 00:42 5,6 C 7,8 C 93 % 1012,9 hPa 0,0 l/m 12,2 km/h (2 Bft) S 184 0 min 0,000 mm 0,0 UV-I 0 W/m 4,6 C 1,3 C 19,3 km/h (3 Bft) 94,00 %
06.11.2017 00:44 5,5 C 7,8 C 93 % 1012,9 hPa 0,2 l/m 11,8 km/h (2 Bft) SW 236 0 min 0,000 mm 0,0 UV-I 0 W/m 4,5 C 1,5 C 16,1 km/h (3 Bft) 97,37 %
06.11.2017 00:46 5,5 C 7,8 C 93 % 1012,9 hPa 0,0 l/m 10,9 km/h (2 Bft) SW 228 0 min 0,000 mm 0,0 UV-I 0 W/m 4,5 C 2,0 C 17,7 km/h (3 Bft) 98,21 %
06.11.2017 00:48 5,5 C 7,8 C 93 % 1012,9 hPa 0,0 l/m 15,5 km/h (3 Bft) SW 221 0 min 0,000 mm 0,0 UV-I 0 W/m 4,5 C -0,6 C 22,5 km/h (4 Bft) 97,56 %
06.11.2017 00:50 5,5 C 7,8 C 93 % 1012,9 hPa 0,0 l/m 13,6 km/h (3 Bft) SW 217 0 min 0,000 mm 0,0 UV-I 0 W/m 4,5 C 0,4 C 22,5 km/h (4 Bft) 97,87 %
06.11.2017 00:52 5,5 C 7,8 C 93 % 1012,9 hPa 0,0 l/m 11,6 km/h (2 Bft) W-SW 245 0 min 0,000 mm 0,0 UV-I 0 W/m 4,5 C 1,6 C 19,3 km/h (3 Bft) 98,00 %
06.11.2017 00:54 5,5 C 7,8 C 93 % 1012,9 hPa 0,0 l/m 12,9 km/h (3 Bft) S-SW 209 0 min 0,000 mm 0,0 UV-I 0 W/m 4,5 C 0,8 C 22,5 km/h (4 Bft) 98,00 %
06.11.2017 00:56 5,5 C 7,8 C 93 % 1012,9 hPa 0,0 l/m 13,7 km/h (3 Bft) SW 216 0 min 0,000 mm 0,0 UV-I 0 W/m 4,5 C 0,4 C 22,5 km/h (4 Bft) 100,00 %
06.11.2017 00:58 5,6 C 7,8 C 93 % 1012,9 hPa 0,0 l/m 14,4 km/h (3 Bft) W-SW 244 0 min 0,000 mm 0,0 UV-I 0 W/m 4,6 C 0,1 C 20,9 km/h (4 Bft) 98,11 %
06.11.2017 01:00 5,6 C 7,8 C 94 % 1012,9 hPa 0,0 l/m 14,8 km/h (3 Bft) S-SW 194 0 min 0,000 mm 0,0 UV-I 0 W/m 4,7 C -0,1 C 20,9 km/h (4 Bft) 95,45 %
06.11.2017 01:02 5,6 C 7,8 C 94 % 1012,9 hPa 0,0 l/m 12,3 km/h (3 Bft) S-SW 209 0 min 0,000 mm 0,0 UV-I 0 W/m 4,7 C 1,3 C 19,3 km/h (3 Bft) 96,67 %
06.11.2017 01:04 5,6 C 7,8 C 94 % 1013,0 hPa 0,0 l/m 14,2 km/h (3 Bft) SW 227 0 min 0,000 mm 0,0 UV-I 0 W/m 4,7 C 0,2 C 22,5 km/h (4 Bft) 98,44 %
06.11.2017 01:06 5,6 C 7,8 C 94 % 1012,9 hPa 0,0 l/m 14,8 km/h (3 Bft) W-SW 239 0 min 0,000 mm 0,0 UV-I 0 W/m 4,7 C -0,1 C 20,9 km/h (4 Bft) 97,87 %
06.11.2017 01:08 5,6 C 7,8 C 94 % 1012,9 hPa 0,0 l/m 12,9 km/h (3 Bft) S-SW 200 0 min 0,000 mm 0,0 UV-I 0 W/m 4,7 C 0,9 C 17,7 km/h (3 Bft) 100,00 %
06.11.2017 01:10 5,6 C 7,2 C 93 % 1012,9 hPa 0,0 l/m 15,7 km/h (3 Bft) S-SW 202 0 min 0,000 mm 0,0 UV-I 0 W/m 4,6 C -0,5 C 20,9 km/h (4 Bft) 97,56 %
06.11.2017 01:12 5,6 C 7,8 C 94 % 1013,0 hPa 0,0 l/m 14,1 km/h (3 Bft) S-SW 213 0 min 0,000 mm 0,0 UV-I 0 W/m 4,7 C 0,3 C 22,5 km/h (4 Bft) 100,00 %
06.11.2017 01:14 5,6 C 7,8 C 94 % 1013,0 hPa 0,0 l/m 14,4 km/h (3 Bft) S-SW 203 0 min 0,000 mm 0,0 UV-I 0 W/m 4,7 C 0,1 C 27,4 km/h (4 Bft) 98,00 %
06.11.2017 01:16 5,6 C 7,8 C 94 % 1013,0 hPa 0,0 l/m 14,7 km/h (3 Bft) S-SW 202 0 min 0,000 mm 0,0 UV-I 0 W/m 4,7 C -0,0 C 25,7 km/h (4 Bft) 100,00 %
06.11.2017 01:18 5,6 C 7,2 C 94 % 1013,0 hPa 0,0 l/m 13,8 km/h (3 Bft) S-SW 198 0 min 0,000 mm 0,0 UV-I 0 W/m 4,7 C 0,4 C 19,3 km/h (3 Bft) 100,00 %
06.11.2017 01:20 5,6 C 7,8 C 94 % 1013,0 hPa 0,0 l/m 14,7 km/h (3 Bft) SW 231 0 min 0,000 mm 0,0 UV-I 0 W/m 4,7 C -0,0 C 22,5 km/h (4 Bft) 100,00 %
06.11.2017 01:22 5,6 C 7,8 C 93 % 1013,0 hPa 0,0 l/m 15,7 km/h (3 Bft) SW 223 0 min 0,000 mm 0,0 UV-I 0 W/m 4,6 C -0,5 C 25,7 km/h (4 Bft) 100,00 %
06.11.2017 01:24 5,6 C 7,2 C 94 % 1013,0 hPa 0,0 l/m 14,9 km/h (3 Bft) S-SW 192 0 min 0,000 mm 0,0 UV-I 0 W/m 4,7 C -0,1 C 19,3 km/h (3 Bft) 100,00 %
06.11.2017 01:26 5,6 C 7,2 C 94 % 1013,0 hPa 0,0 l/m 15,6 km/h (3 Bft) S-SW 201 0 min 0,000 mm 0,0 UV-I 0 W/m 4,7 C -0,5 C 20,9 km/h (4 Bft) 100,00 %
06.11.2017 01:28 5,6 C 7,2 C 94 % 1013,1 hPa 0,0 l/m 13,3 km/h (3 Bft) SW 232 0 min 0,000 mm 0,0 UV-I 0 W/m 4,7 C 0,7 C 25,7 km/h (4 Bft) 100,00 %
06.11.2017 01:30 5,6 C 7,2 C 94 % 1013,0 hPa 0,0 l/m 14,6 km/h (3 Bft) W-SW 250 0 min 0,000 mm 0,0 UV-I 0 W/m 4,7 C 0,0 C 20,9 km/h (4 Bft) 100,00 %
06.11.2017 01:32 5,6 C 7,2 C 94 % 1013,1 hPa 0,0 l/m 12,9 km/h (3 Bft) W-SW 241 0 min 0,000 mm 0,0 UV-I 0 W/m 4,7 C 0,9 C 20,9 km/h (4 Bft) 100,00 %
06.11.2017 01:34 5,6 C 7,8 C 94 % 1013,1 hPa 0,0 l/m 14,4 km/h (3 Bft) S-SW 198 0 min 0,000 mm 0,0 UV-I 0 W/m 4,7 C 0,1 C 20,9 km/h (4 Bft) 97,87 %
06.11.2017 01:36 5,6 C 7,2 C 94 % 1013,1 hPa 0,0 l/m 14,0 km/h (3 Bft) W-SW 237 0 min 0,000 mm 0,0 UV-I 0 W/m 4,7 C 0,3 C 20,9 km/h (4 Bft) 100,00 %
06.11.2017 01:38 5,6 C 7,8 C 94 % 1013,1 hPa 0,0 l/m 17,4 km/h (3 Bft) W-SW 257 0 min 0,000 mm 0,0 UV-I 0 W/m 4,7 C -1,3 C 27,4 km/h (4 Bft) 100,00 %
06.11.2017 01:40 5,6 C 7,8 C 94 % 1013,1 hPa 0,0 l/m 16,3 km/h (3 Bft) S-SW 199 0 min 0,000 mm 0,0 UV-I 0 W/m 4,7 C -0,8 C 25,7 km/h (4 Bft) 100,00 %
06.11.2017 01:42 5,6 C 7,2 C 94 % 1013,1 hPa 0,0 l/m 13,9 km/h (3 Bft) W-SW 240 0 min 0,000 mm 0,0 UV-I 0 W/m 4,7 C 0,4 C 22,5 km/h (4 Bft) 100,00 %
06.11.2017 01:44 5,6 C 7,2 C 94 % 1013,1 hPa 0,0 l/m 19,2 km/h (3 Bft) W-SW 252 0 min 0,000 mm 0,0 UV-I 0 W/m 4,7 C -2,1 C 27,4 km/h (4 Bft) 100,00 %
06.11.2017 01:46 5,6 C 7,8 C 94 % 1013,1 hPa 0,0 l/m 17,4 km/h (3 Bft) W-SW 238 0 min 0,000 mm 0,0 UV-I 0 W/m 4,7 C -1,3 C 27,4 km/h (4 Bft) 98,11 %
06.11.2017 01:48 5,6 C 7,2 C 94 % 1013,1 hPa 0,0 l/m 14,1 km/h (3 Bft) S-SW 200 0 min 0,000 mm 0,0 UV-I 0 W/m 4,7 C 0,3 C 25,7 km/h (4 Bft) 100,00 %
06.11.2017 01:50 5,6 C 7,2 C 93 % 1013,2 hPa 0,0 l/m 14,6 km/h (3 Bft) W-SW 247 0 min 0,000 mm 0,0 UV-I 0 W/m 4,6 C 0,0 C 20,9 km/h (4 Bft) 100,00 %
06.11.2017 01:52 5,6 C 7,2 C 93 % 1013,2 hPa 0,0 l/m 12,9 km/h (3 Bft) W-SW 252 0 min 0,000 mm 0,0 UV-I 0 W/m 4,6 C 0,9 C 19,3 km/h (3 Bft) 100,00 %
06.11.2017 01:54 5,6 C 7,2 C 93 % 1013,2 hPa 0,0 l/m 16,9 km/h (3 Bft) SW 234 0 min 0,000 mm 0,0 UV-I 0 W/m 4,6 C -1,1 C 22,5 km/h (4 Bft) 100,00 %
06.11.2017 01:56 5,6 C 7,2 C 93 % 1013,2 hPa 0,0 l/m 14,2 km/h (3 Bft) S-SW 211 0 min 0,000 mm 0,0 UV-I 0 W/m 4,6 C 0,2 C 24,1 km/h (4 Bft) 100,00 %
06.11.2017 01:58 5,6 C 7,2 C 93 % 1013,3 hPa 0,0 l/m 15,7 km/h (3 Bft) S-SW 207 0 min 0,000 mm 0,0 UV-I 0 W/m 4,6 C -0,5 C 22,5 km/h (4 Bft) 100,00 %
06.11.2017 02:00 5,6 C 7,2 C 93 % 1013,2 hPa 0,0 l/m 12,8 km/h (3 Bft) SW 216 0 min 0,000 mm 0,0 UV-I 0 W/m 4,6 C 1,0 C 24,1 km/h (4 Bft) 100,00 %
06.11.2017 02:02 5,6 C 7,2 C 93 % 1013,3 hPa 0,0 l/m 13,8 km/h (3 Bft) S-SW 211 0 min 0,000 mm 0,0 UV-I 0 W/m 4,6 C 0,4 C 24,1 km/h (4 Bft) 100,00 %
06.11.2017 02:04 5,6 C 7,2 C 93 % 1013,3 hPa 0,2 l/m 14,3 km/h (3 Bft) SW 232 0 min 0,000 mm 0,0 UV-I 0 W/m 4,6 C 0,2 C 22,5 km/h (4 Bft) 100,00 %
06.11.2017 02:06 5,6 C 7,2 C 93 % 1013,3 hPa 0,0 l/m 15,0 km/h (3 Bft) S-SW 207 0 min 0,000 mm 0,0 UV-I 0 W/m 4,6 C -0,2 C 27,4 km/h (4 Bft) 100,00 %
06.11.2017 02:08 5,6 C 7,2 C 93 % 1013,3 hPa 0,0 l/m 16,7 km/h (3 Bft) W-SW 242 0 min 0,000 mm 0,0 UV-I 0 W/m 4,6 C -1,0 C 30,6 km/h (5 Bft) 100,00 %
06.11.2017 02:10 5,6 C 7,2 C 93 % 1013,3 hPa 0,0 l/m 14,7 km/h (3 Bft) SW 236 0 min 0,000 mm 0,0 UV-I 0 W/m 4,6 C -0,0 C 22,5 km/h (4 Bft) 100,00 %
06.11.2017 02:12 5,6 C 7,2 C 93 % 1013,3 hPa 0,0 l/m 17,7 km/h (3 Bft) S-SW 211 0 min 0,000 mm 0,0 UV-I 0 W/m 4,6 C -1,5 C 29,0 km/h (5 Bft) 97,37 %
06.11.2017 02:14 5,6 C 7,2 C 93 % 1013,3 hPa 0,0 l/m 18,2 km/h (3 Bft) S-SW 211 0 min 0,000 mm 0,0 UV-I 0 W/m 4,6 C -1,7 C 24,1 km/h (4 Bft) 100,00 %
06.11.2017 02:16 5,6 C 7,2 C 93 % 1013,3 hPa 0,0 l/m 15,0 km/h (3 Bft) W-SW 245 0 min 0,000 mm 0,0 UV-I 0 W/m 4,6 C -0,2 C 22,5 km/h (4 Bft) 98,11 %
06.11.2017 02:18 5,6 C 7,2 C 93 % 1013,3 hPa 0,0 l/m 16,3 km/h (3 Bft) S-SW 208 0 min 0,000 mm 0,0 UV-I 0 W/m 4,6 C -0,8 C 24,1 km/h (4 Bft) 100,00 %
06.11.2017 02:20 5,6 C 7,8 C 93 % 1013,3 hPa 0,0 l/m 17,0 km/h (3 Bft) SW 223 0 min 0,000 mm 0,0 UV-I 0 W/m 4,6 C -1,1 C 25,7 km/h (4 Bft) 92,16 %
06.11.2017 02:22 5,6 C 7,2 C 93 % 1013,3 hPa 0,0 l/m 15,0 km/h (3 Bft) SW 215 0 min 0,000 mm 0,0 UV-I 0 W/m 4,6 C -0,2 C 25,7 km/h (4 Bft) 96,15 %
06.11.2017 02:24 5,5 C 7,2 C 93 % 1013,3 hPa 0,0 l/m 15,9 km/h (3 Bft) S-SW 203 0 min 0,000 mm 0,0 UV-I 0 W/m 4,5 C -0,8 C 25,7 km/h (4 Bft) 97,87 %
06.11.2017 02:26 5,5 C 7,2 C 93 % 1013,3 hPa 0,0 l/m 15,3 km/h (3 Bft) SW 214 0 min 0,000 mm 0,0 UV-I 0 W/m 4,5 C -0,5 C 22,5 km/h (4 Bft) 97,62 %
06.11.2017 02:28 5,5 C 7,2 C 93 % 1013,3 hPa 0,2 l/m 11,9 km/h (2 Bft) W 263 0 min 0,000 mm 0,0 UV-I 0 W/m 4,5 C 1,4 C 17,7 km/h (3 Bft) 97,87 %
06.11.2017 02:30 5,4 C 7,2 C 93 % 1013,3 hPa 0,0 l/m 14,4 km/h (3 Bft) SW 229 0 min 0,000 mm 0,0 UV-I 0 W/m 4,4 C -0,1 C 20,9 km/h (4 Bft) 98,11 %
06.11.2017 02:32 5,4 C 7,2 C 93 % 1013,2 hPa 0,0 l/m 17,1 km/h (3 Bft) S-SW 198 0 min 0,000 mm 0,0 UV-I 0 W/m 4,4 C -1,4 C 25,7 km/h (4 Bft) 96,00 %
06.11.2017 02:34 5,4 C 7,2 C 93 % 1013,2 hPa 0,0 l/m 15,8 km/h (3 Bft) SW 225 0 min 0,000 mm 0,0 UV-I 0 W/m 4,4 C -0,8 C 24,1 km/h (4 Bft) 94,74 %
06.11.2017 02:36 5,4 C 7,2 C 93 % 1013,2 hPa 0,0 l/m 15,1 km/h (3 Bft) S-SW 205 0 min 0,000 mm 0,0 UV-I 0 W/m 4,4 C -0,5 C 19,3 km/h (3 Bft) 98,11 %
06.11.2017 02:38 5,4 C 7,2 C 94 % 1013,2 hPa 0,2 l/m 14,4 km/h (3 Bft) W-SW 254 0 min 0,000 mm 0,0 UV-I 0 W/m 4,5 C -0,1 C 20,9 km/h (4 Bft) 97,37 %
06.11.2017 02:40 5,4 C 7,2 C 94 % 1013,2 hPa 0,0 l/m 12,8 km/h (3 Bft) S 180 0 min 0,000 mm 0,0 UV-I 0 W/m 4,5 C 0,7 C 24,1 km/h (4 Bft) 98,21 %
06.11.2017 02:42 5,3 C 7,2 C 94 % 1013,3 hPa 0,0 l/m 15,8 km/h (3 Bft) S-SW 202 0 min 0,000 mm 0,0 UV-I 0 W/m 4,4 C -1,0 C 25,7 km/h (4 Bft) 97,14 %
06.11.2017 02:44 5,3 C 7,2 C 94 % 1013,2 hPa 0,0 l/m 15,6 km/h (3 Bft) SW 230 0 min 0,000 mm 0,0 UV-I 0 W/m 4,4 C -0,9 C 27,4 km/h (4 Bft) 98,31 %
06.11.2017 02:46 5,3 C 7,2 C 94 % 1013,2 hPa 0,0 l/m 14,7 km/h (3 Bft) SW 225 0 min 0,000 mm 0,0 UV-I 0 W/m 4,4 C -0,4 C 22,5 km/h (4 Bft) 97,37 %
06.11.2017 02:48 5,3 C 7,2 C 94 % 1013,3 hPa 0,0 l/m 16,3 km/h (3 Bft) S 178 0 min 0,000 mm 0,0 UV-I 0 W/m 4,4 C -1,2 C 27,4 km/h (4 Bft) 97,87 %
06.11.2017 02:50 5,3 C 7,2 C 94 % 1013,3 hPa 0,0 l/m 13,2 km/h (3 Bft) S-SW 206 0 min 0,000 mm 0,0 UV-I 0 W/m 4,4 C 0,4 C 19,3 km/h (3 Bft) 96,00 %
06.11.2017 02:52 5,3 C 7,2 C 94 % 1013,3 hPa 0,2 l/m 12,3 km/h (3 Bft) SW 234 0 min 0,000 mm 0,0 UV-I 0 W/m 4,4 C 0,9 C 19,3 km/h (3 Bft) 95,74 %
06.11.2017 02:54 5,3 C 7,2 C 94 % 1013,2 hPa 0,0 l/m 18,7 km/h (3 Bft) SW 219 0 min 0,000 mm 0,0 UV-I 0 W/m 4,4 C -2,3 C 27,4 km/h (4 Bft) 98,00 %
06.11.2017 02:56 5,3 C 7,2 C 94 % 1013,3 hPa 0,0 l/m 15,6 km/h (3 Bft) SW 230 0 min 0,000 mm 0,0 UV-I 0 W/m 4,4 C -0,9 C 22,5 km/h (4 Bft) 97,56 %
06.11.2017 02:58 5,3 C 7,2 C 94 % 1013,3 hPa 0,0 l/m 11,7 km/h (2 Bft) S 186 0 min 0,000 mm 0,0 UV-I 0 W/m 4,4 C 1,3 C 19,3 km/h (3 Bft) 96,23 %
06.11.2017 03:00 5,3 C 7,2 C 94 % 1013,3 hPa 0,0 l/m 13,9 km/h (3 Bft) SW 223 0 min 0,000 mm 0,0 UV-I 0 W/m 4,4 C 0,0 C 22,5 km/h (4 Bft) 100,00 %
06.11.2017 03:02 5,3 C 7,2 C 94 % 1013,3 hPa 0,0 l/m 14,5 km/h (3 Bft) SW 218 0 min 0,000 mm 0,0 UV-I 0 W/m 4,4 C -0,3 C 22,5 km/h (4 Bft) 100,00 %
06.11.2017 03:04 5,3 C 7,2 C 94 % 1013,3 hPa 0,2 l/m 15,6 km/h (3 Bft) SW 218 0 min 0,000 mm 0,0 UV-I 0 W/m 4,4 C -0,9 C 22,5 km/h (4 Bft) 97,44 %
06.11.2017 03:06 5,3 C 7,2 C 94 % 1013,3 hPa 0,0 l/m 15,0 km/h (3 Bft) S 183 0 min 0,000 mm 0,0 UV-I 0 W/m 4,4 C -0,6 C 22,5 km/h (4 Bft) 98,11 %
06.11.2017 03:08 5,3 C 7,2 C 94 % 1013,3 hPa 0,0 l/m 13,2 km/h (3 Bft) SW 219 0 min 0,000 mm 0,0 UV-I 0 W/m 4,4 C 0,4 C 19,3 km/h (3 Bft) 100,00 %
06.11.2017 03:10 5,3 C 7,2 C 94 % 1013,2 hPa 0,2 l/m 14,2 km/h (3 Bft) W-SW 241 0 min 0,000 mm 0,0 UV-I 0 W/m 4,4 C -0,1 C 19,3 km/h (3 Bft) 100,00 %
06.11.2017 03:12 5,3 C 7,2 C 94 % 1013,2 hPa 0,0 l/m 13,2 km/h (3 Bft) S-SW 205 0 min 0,000 mm 0,0 UV-I 0 W/m 4,4 C 0,4 C 17,7 km/h (3 Bft) 97,37 %
06.11.2017 03:14 5,3 C 7,2 C 94 % 1013,2 hPa 0,0 l/m 14,4 km/h (3 Bft) SW 215 0 min 0,000 mm 0,0 UV-I 0 W/m 4,4 C -0,3 C 20,9 km/h (4 Bft) 98,11 %
06.11.2017 03:16 5,2 C 7,2 C 94 % 1013,3 hPa 0,0 l/m 16,2 km/h (3 Bft) SW 224 0 min 0,000 mm 0,0 UV-I 0 W/m 4,3 C -1,3 C 22,5 km/h (4 Bft) 97,87 %
06.11.2017 03:18 5,2 C 7,2 C 94 % 1013,3 hPa 0,0 l/m 13,4 km/h (3 Bft) W-SW 244 0 min 0,000 mm 0,0 UV-I 0 W/m 4,3 C 0,2 C 22,5 km/h (4 Bft) 96,00 %
06.11.2017 03:20 5,2 C 7,2 C 94 % 1013,3 hPa 0,0 l/m 14,1 km/h (3 Bft) S-SW 209 0 min 0,000 mm 0,0 UV-I 0 W/m 4,3 C -0,2 C 20,9 km/h (4 Bft) 94,74 %
06.11.2017 03:22 5,2 C 7,2 C 94 % 1013,3 hPa 0,0 l/m 13,4 km/h (3 Bft) S-SW 205 0 min 0,000 mm 0,0 UV-I 0 W/m 4,3 C 0,2 C 20,9 km/h (4 Bft) 94,34 %
06.11.2017 03:24 5,2 C 7,2 C 94 % 1013,3 hPa 0,0 l/m 15,5 km/h (3 Bft) SW 217 0 min 0,000 mm 0,0 UV-I 0 W/m 4,3 C -0,9 C 27,4 km/h (4 Bft) 98,00 %
06.11.2017 03:26 5,2 C 7,2 C 94 % 1013,3 hPa 0,0 l/m 11,5 km/h (2 Bft) W-SW 242 0 min 0,000 mm 0,0 UV-I 0 W/m 4,3 C 1,3 C 20,9 km/h (4 Bft) 97,37 %
06.11.2017 03:28 5,2 C 7,2 C 94 % 1013,3 hPa 0,0 l/m 13,0 km/h (3 Bft) W-SW 238 0 min 0,000 mm 0,0 UV-I 0 W/m 4,3 C 0,4 C 20,9 km/h (4 Bft) 96,23 %
06.11.2017 03:30 5,2 C 7,2 C 94 % 1013,3 hPa 0,0 l/m 14,1 km/h (3 Bft) SW 229 0 min 0,000 mm 0,0 UV-I 0 W/m 4,3 C -0,2 C 22,5 km/h (4 Bft) 98,00 %
06.11.2017 03:32 5,2 C 7,2 C 94 % 1013,3 hPa 0,0 l/m 13,1 km/h (3 Bft) W-SW 254 0 min 0,000 mm 0,0 UV-I 0 W/m 4,3 C 0,3 C 20,9 km/h (4 Bft) 97,14 %
06.11.2017 03:34 5,2 C 7,2 C 94 % 1013,3 hPa 0,0 l/m 11,8 km/h (2 Bft) SW 223 0 min 0,000 mm 0,0 UV-I 0 W/m 4,3 C 1,1 C 20,9 km/h (4 Bft) 98,21 %
06.11.2017 03:36 5,2 C 7,2 C 94 % 1013,3 hPa 0,0 l/m 10,9 km/h (2 Bft) S-SW 200 0 min 0,000 mm 0,0 UV-I 0 W/m 4,3 C 1,7 C 16,1 km/h (3 Bft) 95,45 %
06.11.2017 03:38 5,2 C 7,2 C 94 % 1013,3 hPa 0,0 l/m 11,4 km/h (2 Bft) SW 223 0 min 0,000 mm 0,0 UV-I 0 W/m 4,3 C 1,4 C 17,7 km/h (3 Bft) 97,73 %
06.11.2017 03:40 5,2 C 7,2 C 94 % 1013,4 hPa 0,0 l/m 10,0 km/h (2 Bft) W-SW 245 0 min 0,000 mm 0,0 UV-I 0 W/m 4,3 C 2,3 C 14,5 km/h (3 Bft) 95,56 %
06.11.2017 03:42 5,2 C 7,2 C 94 % 1013,4 hPa 0,2 l/m 14,2 km/h (3 Bft) S 186 0 min 0,000 mm 0,0 UV-I 0 W/m 4,3 C -0,3 C 20,9 km/h (4 Bft) 97,56 %
06.11.2017 03:44 5,2 C 7,2 C 94 % 1013,4 hPa 0,0 l/m 13,1 km/h (3 Bft) SW 227 0 min 0,000 mm 0,0 UV-I 0 W/m 4,3 C 0,3 C 17,7 km/h (3 Bft) 96,61 %
06.11.2017 03:46 5,2 C 7,2 C 94 % 1013,4 hPa 0,0 l/m 12,7 km/h (3 Bft) S 188 0 min 0,000 mm 0,0 UV-I 0 W/m 4,3 C 0,6 C 22,5 km/h (4 Bft) 98,00 %
06.11.2017 03:48 5,2 C 7,2 C 94 % 1013,4 hPa 0,0 l/m 13,4 km/h (3 Bft) SW 220 0 min 0,000 mm 0,0 UV-I 0 W/m 4,3 C 0,2 C 20,9 km/h (4 Bft) 97,73 %
06.11.2017 03:50 5,2 C 7,2 C 94 % 1013,4 hPa 0,0 l/m 18,4 km/h (3 Bft) SW 220 0 min 0,000 mm 0,0 UV-I 0 W/m 4,3 C -2,3 C 25,7 km/h (4 Bft) 97,73 %
06.11.2017 03:52 5,2 C 7,2 C 94 % 1013,5 hPa 0,0 l/m 11,9 km/h (2 Bft) S-SW 196 0 min 0,000 mm 0,0 UV-I 0 W/m 4,3 C 1,0 C 19,3 km/h (3 Bft) 98,11 %
06.11.2017 03:54 5,3 C 7,2 C 94 % 1013,6 hPa 0,0 l/m 14,8 km/h (3 Bft) S-SW 211 0 min 0,000 mm 0,0 UV-I 0 W/m 4,4 C -0,5 C 24,1 km/h (4 Bft) 97,37 %
06.11.2017 03:56 5,3 C 7,2 C 94 % 1013,6 hPa 0,0 l/m 14,0 km/h (3 Bft) S-SW 212 0 min 0,000 mm 0,0 UV-I 0 W/m 4,4 C -0,0 C 20,9 km/h (4 Bft) 98,11 %
06.11.2017 03:58 5,3 C 7,2 C 94 % 1013,6 hPa 0,0 l/m 14,4 km/h (3 Bft) S-SW 211 0 min 0,000 mm 0,0 UV-I 0 W/m 4,4 C -0,3 C 25,7 km/h (4 Bft) 97,37 %
06.11.2017 04:00 5,3 C 7,2 C 94 % 1013,6 hPa 0,0 l/m 13,0 km/h (3 Bft) SW 217 0 min 0,000 mm 0,0 UV-I 0 W/m 4,4 C 0,5 C 20,9 km/h (4 Bft) 98,00 %
06.11.2017 04:02 5,3 C 7,2 C 94 % 1013,6 hPa 0,0 l/m 12,1 km/h (2 Bft) S-SW 205 0 min 0,000 mm 0,0 UV-I 0 W/m 4,4 C 1,0 C 16,1 km/h (3 Bft) 97,06 %
06.11.2017 04:04 5,3 C 7,2 C 94 % 1013,6 hPa 0,0 l/m 12,1 km/h (2 Bft) SW 229 0 min 0,000 mm 0,0 UV-I 0 W/m 4,4 C 1,0 C 17,7 km/h (3 Bft) 97,56 %
06.11.2017 04:06 5,2 C 7,2 C 94 % 1013,6 hPa 0,0 l/m 11,1 km/h (2 Bft) SW 221 0 min 0,000 mm 0,0 UV-I 0 W/m 4,3 C 1,6 C 16,1 km/h (3 Bft) 96,23 %
06.11.2017 04:08 5,2 C 7,2 C 94 % 1013,6 hPa 0,0 l/m 10,9 km/h (2 Bft) W-SW 244 0 min 0,000 mm 0,0 UV-I 0 W/m 4,3 C 1,7 C 16,1 km/h (3 Bft) 100,00 %
06.11.2017 04:10 5,2 C 7,2 C 94 % 1013,6 hPa 0,0 l/m 15,6 km/h (3 Bft) SW 218 0 min 0,000 mm 0,0 UV-I 0 W/m 4,3 C -1,0 C 20,9 km/h (4 Bft) 96,43 %
06.11.2017 04:12 5,2 C 7,2 C 94 % 1013,6 hPa 0,0 l/m 15,2 km/h (3 Bft) SW 228 0 min 0,000 mm 0,0 UV-I 0 W/m 4,3 C -0,8 C 29,0 km/h (5 Bft) 97,37 %
06.11.2017 04:14 5,2 C 7,2 C 94 % 1013,7 hPa 0,0 l/m 16,2 km/h (3 Bft) S-SW 211 0 min 0,000 mm 0,0 UV-I 0 W/m 4,3 C -1,3 C 25,7 km/h (4 Bft) 98,21 %
06.11.2017 04:16 5,2 C 7,2 C 94 % 1013,7 hPa 0,0 l/m 14,2 km/h (3 Bft) W-SW 240 0 min 0,000 mm 0,0 UV-I 0 W/m 4,3 C -0,3 C 22,5 km/h (4 Bft) 96,97 %
06.11.2017 04:18 5,2 C 7,2 C 94 % 1013,7 hPa 0,0 l/m 13,6 km/h (3 Bft) W-SW 238 0 min 0,000 mm 0,0 UV-I 0 W/m 4,3 C 0,1 C 19,3 km/h (3 Bft) 96,15 %
06.11.2017 04:20 5,2 C 7,2 C 95 % 1013,7 hPa 0,0 l/m 13,4 km/h (3 Bft) SW 228 0 min 0,000 mm 0,0 UV-I 0 W/m 4,5 C 0,2 C 22,5 km/h (4 Bft) 100,00 %
06.11.2017 04:22 5,2 C 7,2 C 95 % 1013,8 hPa 0,0 l/m 17,5 km/h (3 Bft) SW 231 0 min 0,000 mm 0,0 UV-I 0 W/m 4,5 C -1,9 C 25,7 km/h (4 Bft) 100,00 %
06.11.2017 04:24 5,2 C 7,2 C 94 % 1013,8 hPa 0,2 l/m 14,3 km/h (3 Bft) SW 230 0 min 0,000 mm 0,0 UV-I 0 W/m 4,3 C -0,3 C 20,9 km/h (4 Bft) 100,00 %
06.11.2017 04:26 5,2 C 7,2 C 95 % 1013,9 hPa 0,0 l/m 14,6 km/h (3 Bft) SW 217 0 min 0,000 mm 0,0 UV-I 0 W/m 4,5 C -0,5 C 22,5 km/h (4 Bft) 98,11 %
06.11.2017 04:28 5,2 C 7,2 C 95 % 1013,9 hPa 0,0 l/m 16,5 km/h (3 Bft) W-SW 241 0 min 0,000 mm 0,0 UV-I 0 W/m 4,5 C -1,4 C 29,0 km/h (5 Bft) 96,00 %
06.11.2017 04:30 5,2 C 7,2 C 95 % 1013,9 hPa 0,0 l/m 16,6 km/h (3 Bft) SW 215 0 min 0,000 mm 0,0 UV-I 0 W/m 4,5 C -1,5 C 24,1 km/h (4 Bft) 97,37 %
06.11.2017 04:32 5,2 C 7,2 C 95 % 1013,9 hPa 0,0 l/m 14,0 km/h (3 Bft) SW 230 0 min 0,000 mm 0,0 UV-I 0 W/m 4,5 C -0,2 C 20,9 km/h (4 Bft) 98,00 %
06.11.2017 04:34 5,2 C 7,2 C 95 % 1014,0 hPa 0,2 l/m 18,0 km/h (3 Bft) SW 226 0 min 0,000 mm 0,0 UV-I 0 W/m 4,5 C -2,1 C 27,4 km/h (4 Bft) 95,74 %
06.11.2017 04:36 5,2 C 7,2 C 95 % 1013,9 hPa 0,0 l/m 14,5 km/h (3 Bft) S-SW 209 0 min 0,000 mm 0,0 UV-I 0 W/m 4,5 C -0,4 C 25,7 km/h (4 Bft) 96,23 %
06.11.2017 04:38 5,2 C 7,2 C 95 % 1014,0 hPa 0,2 l/m 14,7 km/h (3 Bft) W-SW 246 0 min 0,000 mm 0,0 UV-I 0 W/m 4,5 C -0,5 C 24,1 km/h (4 Bft) 94,74 %
06.11.2017 04:40 5,1 C 7,2 C 95 % 1014,0 hPa 0,0 l/m 15,2 km/h (3 Bft) W-SW 251 0 min 0,000 mm 0,0 UV-I 0 W/m 4,4 C -0,9 C 22,5 km/h (4 Bft) 97,73 %
06.11.2017 04:42 5,1 C 7,2 C 95 % 1014,1 hPa 0,0 l/m 16,1 km/h (3 Bft) W-SW 245 0 min 0,000 mm 0,0 UV-I 0 W/m 4,4 C -1,3 C 25,7 km/h (4 Bft) 94,74 %
06.11.2017 04:44 5,1 C 7,2 C 95 % 1014,1 hPa 0,2 l/m 14,8 km/h (3 Bft) SW 236 0 min 0,000 mm 0,0 UV-I 0 W/m 4,4 C -0,7 C 22,5 km/h (4 Bft) 98,53 %
06.11.2017 04:46 5,1 C 7,2 C 95 % 1014,1 hPa 0,0 l/m 12,6 km/h (3 Bft) W-SW 239 0 min 0,000 mm 0,0 UV-I 0 W/m 4,4 C 0,5 C 19,3 km/h (3 Bft) 97,14 %
06.11.2017 04:48 5,1 C 7,2 C 95 % 1014,2 hPa 0,2 l/m 12,7 km/h (3 Bft) SW 227 0 min 0,000 mm 0,0 UV-I 0 W/m 4,4 C 0,5 C 20,9 km/h (4 Bft) 98,11 %
06.11.2017 04:50 5,1 C 7,2 C 95 % 1014,2 hPa 0,0 l/m 15,0 km/h (3 Bft) W-SW 243 0 min 0,000 mm 0,0 UV-I 0 W/m 4,4 C -0,8 C 27,4 km/h (4 Bft) 96,30 %
06.11.2017 04:52 5,1 C 7,2 C 95 % 1014,2 hPa 0,0 l/m 17,2 km/h (3 Bft) W-SW 243 0 min 0,000 mm 0,0 UV-I 0 W/m 4,4 C -1,9 C 24,1 km/h (4 Bft) 97,14 %
06.11.2017 04:54 5,1 C 7,2 C 95 % 1014,3 hPa 0,2 l/m 14,8 km/h (3 Bft) SW 233 0 min 0,000 mm 0,0 UV-I 0 W/m 4,4 C -0,7 C 22,5 km/h (4 Bft) 97,56 %
06.11.2017 04:56 5,1 C 7,2 C 95 % 1014,3 hPa 0,0 l/m 12,2 km/h (2 Bft) SW 231 0 min 0,000 mm 0,0 UV-I 0 W/m 4,4 C 0,8 C 20,9 km/h (4 Bft) 98,11 %
06.11.2017 04:58 5,1 C 7,2 C 95 % 1014,3 hPa 0,2 l/m 13,3 km/h (3 Bft) S-SW 196 0 min 0,000 mm 0,0 UV-I 0 W/m 4,4 C 0,1 C 22,5 km/h (4 Bft) 97,44 %
06.11.2017 05:00 5,1 C 7,2 C 95 % 1014,4 hPa 0,0 l/m 12,5 km/h (3 Bft) S 190 0 min 0,000 mm 0,0 UV-I 0 W/m 4,4 C 0,6 C 19,3 km/h (3 Bft) 100,00 %
06.11.2017 05:02 5,1 C 7,2 C 95 % 1014,4 hPa 0,0 l/m 10,9 km/h (2 Bft) SW 227 0 min 0,000 mm 0,0 UV-I 0 W/m 4,4 C 1,6 C 17,7 km/h (3 Bft) 100,00 %
06.11.2017 05:04 5,0 C 7,2 C 95 % 1014,5 hPa 0,2 l/m 12,0 km/h (2 Bft) SW 229 0 min 0,000 mm 0,0 UV-I 0 W/m 4,3 C 0,8 C 19,3 km/h (3 Bft) 97,62 %
06.11.2017 05:06 5,0 C 7,2 C 95 % 1014,5 hPa 0,0 l/m 16,4 km/h (3 Bft) SW 236 0 min 0,000 mm 0,0 UV-I 0 W/m 4,3 C -1,6 C 22,5 km/h (4 Bft) 100,00 %
06.11.2017 05:08 5,0 C 7,2 C 95 % 1014,5 hPa 0,2 l/m 11,7 km/h (2 Bft) SW 231 0 min 0,000 mm 0,0 UV-I 0 W/m 4,3 C 0,9 C 22,5 km/h (4 Bft) 100,00 %
06.11.2017 05:10 5,0 C 7,2 C 95 % 1014,5 hPa 0,0 l/m 15,5 km/h (3 Bft) SW 232 0 min 0,000 mm 0,0 UV-I 0 W/m 4,3 C -1,2 C 24,1 km/h (4 Bft) 100,00 %
06.11.2017 05:12 5,0 C 7,2 C 95 % 1014,6 hPa 0,0 l/m 13,8 km/h (3 Bft) SW 234 0 min 0,000 mm 0,0 UV-I 0 W/m 4,3 C -0,3 C 22,5 km/h (4 Bft) 94,55 %
06.11.2017 05:14 4,9 C 7,2 C 95 % 1014,6 hPa 0,0 l/m 12,4 km/h (3 Bft) S-SW 205 0 min 0,000 mm 0,0 UV-I 0 W/m 4,2 C 0,4 C 17,7 km/h (3 Bft) 98,00 %
06.11.2017 05:16 4,9 C 7,2 C 95 % 1014,6 hPa 0,2 l/m 12,1 km/h (2 Bft) SW 222 0 min 0,000 mm 0,0 UV-I 0 W/m 4,2 C 0,6 C 20,9 km/h (4 Bft) 100,00 %
06.11.2017 05:18 4,9 C 7,2 C 95 % 1014,6 hPa 0,0 l/m 16,4 km/h (3 Bft) SW 232 0 min 0,000 mm 0,0 UV-I 0 W/m 4,2 C -1,7 C 24,1 km/h (4 Bft) 96,15 %
06.11.2017 05:20 4,9 C 7,2 C 95 % 1014,6 hPa 0,0 l/m 13,1 km/h (3 Bft) SW 223 0 min 0,000 mm 0,0 UV-I 0 W/m 4,2 C -0,0 C 22,5 km/h (4 Bft) 98,46 %
06.11.2017 05:22 4,9 C 7,2 C 95 % 1014,6 hPa 0,0 l/m 17,6 km/h (3 Bft) S-SW 202 0 min 0,000 mm 0,0 UV-I 0 W/m 4,2 C -2,3 C 24,1 km/h (4 Bft) 100,00 %
06.11.2017 05:24 4,8 C 7,2 C 95 % 1014,6 hPa 0,0 l/m 14,0 km/h (3 Bft) SW 214 0 min 0,000 mm 0,0 UV-I 0 W/m 4,1 C -0,6 C 20,9 km/h (4 Bft) 100,00 %
06.11.2017 05:26 4,8 C 7,2 C 95 % 1014,6 hPa 0,0 l/m 11,5 km/h (2 Bft) W-SW 246 0 min 0,000 mm 0,0 UV-I 0 W/m 4,1 C 0,8 C 20,9 km/h (4 Bft) 100,00 %
06.11.2017 05:28 4,8 C 7,2 C 95 % 1014,7 hPa 0,2 l/m 13,3 km/h (3 Bft) W-SW 237 0 min 0,000 mm 0,0 UV-I 0 W/m 4,1 C -0,2 C 20,9 km/h (4 Bft) 100,00 %
06.11.2017 05:30 4,8 C 7,2 C 95 % 1014,6 hPa 0,0 l/m 14,4 km/h (3 Bft) SW 221 0 min 0,000 mm 0,0 UV-I 0 W/m 4,1 C -0,9 C 27,4 km/h (4 Bft) 100,00 %
06.11.2017 05:32 4,8 C 7,2 C 95 % 1014,7 hPa 0,0 l/m 17,7 km/h (3 Bft) SW 235 0 min 0,000 mm 0,0 UV-I 0 W/m 4,1 C -2,5 C 30,6 km/h (5 Bft) 100,00 %
06.11.2017 05:34 4,8 C 7,2 C 95 % 1014,7 hPa 0,0 l/m 15,6 km/h (3 Bft) W-SW 248 0 min 0,000 mm 0,0 UV-I 0 W/m 4,1 C -1,5 C 25,7 km/h (4 Bft) 100,00 %
06.11.2017 05:36 4,7 C 7,2 C 95 % 1014,7 hPa 0,2 l/m 15,8 km/h (3 Bft) W-SW 240 0 min 0,000 mm 0,0 UV-I 0 W/m 4,0 C -1,7 C 24,1 km/h (4 Bft) 98,00 %
06.11.2017 05:38 4,7 C 7,2 C 95 % 1014,7 hPa 0,0 l/m 15,6 km/h (3 Bft) SW 223 0 min 0,000 mm 0,0 UV-I 0 W/m 4,0 C -1,6 C 22,5 km/h (4 Bft) 100,00 %
06.11.2017 05:40 4,7 C 7,2 C 95 % 1014,8 hPa 0,0 l/m 14,7 km/h (3 Bft) SW 225 0 min 0,000 mm 0,0 UV-I 0 W/m 4,0 C -1,1 C 22,5 km/h (4 Bft) 98,08 %
06.11.2017 05:42 4,7 C 7,2 C 95 % 1014,8 hPa 0,0 l/m 19,6 km/h (3 Bft) W-SW 238 0 min 0,000 mm 0,0 UV-I 0 W/m 4,0 C -3,4 C 30,6 km/h (5 Bft) 97,62 %
06.11.2017 05:44 4,7 C 7,2 C 95 % 1014,8 hPa 0,0 l/m 20,2 km/h (4 Bft) SW 232 0 min 0,000 mm 0,0 UV-I 0 W/m 4,0 C -3,6 C 29,0 km/h (5 Bft) 100,00 %
06.11.2017 05:46 4,6 C 7,2 C 95 % 1014,8 hPa 0,0 l/m 17,3 km/h (3 Bft) W-SW 246 0 min 0,000 mm 0,0 UV-I 0 W/m 3,9 C -2,5 C 24,1 km/h (4 Bft) 97,92 %
06.11.2017 05:48 4,6 C 7,2 C 95 % 1014,8 hPa 0,2 l/m 18,5 km/h (3 Bft) SW 224 0 min 0,000 mm 0,0 UV-I 0 W/m 3,9 C -3,1 C 25,7 km/h (4 Bft) 100,00 %
06.11.2017 05:50 4,6 C 7,2 C 94 % 1014,8 hPa 0,0 l/m 20,4 km/h (4 Bft) W-SW 238 0 min 0,000 mm 0,0 UV-I 0 W/m 3,7 C -3,8 C 27,4 km/h (4 Bft) 100,00 %
06.11.2017 05:52 4,5 C 7,2 C 94 % 1014,9 hPa 0,0 l/m 17,7 km/h (3 Bft) W-SW 240 0 min 0,000 mm 0,0 UV-I 0 W/m 3,6 C -2,8 C 29,0 km/h (5 Bft) 100,00 %
06.11.2017 05:54 4,5 C 7,2 C 95 % 1014,9 hPa 0,0 l/m 16,5 km/h (3 Bft) W-SW 249 0 min 0,000 mm 0,0 UV-I 0 W/m 3,8 C -2,3 C 24,1 km/h (4 Bft) 100,00 %
06.11.2017 05:56 4,4 C 7,2 C 95 % 1015,0 hPa 0,0 l/m 15,0 km/h (3 Bft) SW 236 0 min 0,000 mm 0,0 UV-I 0 W/m 3,7 C -1,7 C 24,1 km/h (4 Bft) 100,00 %
06.11.2017 05:58 4,4 C 7,2 C 94 % 1015,0 hPa 0,0 l/m 17,0 km/h (3 Bft) W-SW 237 0 min 0,000 mm 0,0 UV-I 0 W/m 3,5 C -2,6 C 22,5 km/h (4 Bft) 100,00 %
06.11.2017 06:00 4,4 C 7,2 C 94 % 1015,2 hPa 0,0 l/m 17,0 km/h (3 Bft) SW 223 0 min 0,000 mm 0,0 UV-I 0 W/m 3,5 C -2,6 C 22,5 km/h (4 Bft) 100,00 %
06.11.2017 06:02 4,4 C 7,2 C 94 % 1015,2 hPa 0,0 l/m 17,4 km/h (3 Bft) SW 236 0 min 0,000 mm 0,0 UV-I 0 W/m 3,5 C -2,8 C 32,2 km/h (5 Bft) 95,45 %
06.11.2017 06:04 4,4 C 7,2 C 94 % 1015,1 hPa 0,0 l/m 17,5 km/h (3 Bft) W-SW 256 0 min 0,000 mm 0,0 UV-I 0 W/m 3,5 C -2,9 C 25,7 km/h (4 Bft) 98,21 %
06.11.2017 06:06 4,4 C 7,2 C 94 % 1015,1 hPa 0,0 l/m 16,6 km/h (3 Bft) W-SW 245 0 min 0,000 mm 0,0 UV-I 0 W/m 3,5 C -2,5 C 25,7 km/h (4 Bft) 100,00 %
06.11.2017 06:08 4,3 C 7,2 C 94 % 1015,1 hPa 0,0 l/m 18,0 km/h (3 Bft) SW 234 0 min 0,000 mm 0,0 UV-I 0 W/m 3,4 C -3,2 C 27,4 km/h (4 Bft) 100,00 %
06.11.2017 06:10 4,3 C 7,2 C 94 % 1015,2 hPa 0,0 l/m 19,1 km/h (3 Bft) W-SW 238 0 min 0,000 mm 0,0 UV-I 0 W/m 3,4 C -3,7 C 27,4 km/h (4 Bft) 100,00 %
06.11.2017 06:12 4,3 C 7,2 C 94 % 1015,2 hPa 0,0 l/m 18,5 km/h (3 Bft) W-SW 246 0 min 0,000 mm 0,0 UV-I 0 W/m 3,4 C -3,4 C 29,0 km/h (5 Bft) 100,00 %
06.11.2017 06:14 4,3 C 7,2 C 94 % 1015,1 hPa 0,0 l/m 18,3 km/h (3 Bft) SW 234 0 min 0,000 mm 0,0 UV-I 0 W/m 3,4 C -3,4 C 25,7 km/h (4 Bft) 100,00 %
06.11.2017 06:16 4,3 C 7,2 C 94 % 1015,1 hPa 0,2 l/m 17,0 km/h (3 Bft) SW 228 0 min 0,000 mm 0,0 UV-I 0 W/m 3,4 C -2,8 C 27,4 km/h (4 Bft) 100,00 %
06.11.2017 06:18 4,3 C 7,2 C 94 % 1015,3 hPa 0,0 l/m 15,7 km/h (3 Bft) SW 228 0 min 0,000 mm 0,0 UV-I 0 W/m 3,4 C -2,1 C 25,7 km/h (4 Bft) 98,11 %
06.11.2017 06:20 4,3 C 7,2 C 94 % 1015,2 hPa 0,0 l/m 19,2 km/h (3 Bft) W-SW 239 0 min 0,000 mm 0,0 UV-I 0 W/m 3,4 C -3,7 C 25,7 km/h (4 Bft) 100,00 %
06.11.2017 06:22 4,3 C 7,2 C 95 % 1015,3 hPa 0,0 l/m 16,5 km/h (3 Bft) SW 218 0 min 0,000 mm 0,0 UV-I 0 W/m 3,6 C -2,5 C 24,1 km/h (4 Bft) 100,00 %
06.11.2017 06:24 4,2 C 7,2 C 95 % 1015,2 hPa 0,0 l/m 17,7 km/h (3 Bft) SW 234 0 min 0,000 mm 0,0 UV-I 0 W/m 3,5 C -3,2 C 33,8 km/h (5 Bft) 98,11 %
06.11.2017 06:26 4,2 C 7,2 C 95 % 1015,2 hPa 0,0 l/m 14,6 km/h (3 Bft) SW 229 0 min 0,000 mm 0,0 UV-I 0 W/m 3,5 C -1,7 C 19,3 km/h (3 Bft) 98,15 %
06.11.2017 06:28 4,2 C 7,2 C 95 % 1015,3 hPa 0,0 l/m 14,5 km/h (3 Bft) W-SW 249 0 min 0,000 mm 0,0 UV-I 0 W/m 3,5 C -1,6 C 22,5 km/h (4 Bft) 100,00 %
06.11.2017 06:30 4,2 C 7,2 C 95 % 1015,3 hPa 0,0 l/m 18,3 km/h (3 Bft) W-SW 244 0 min 0,000 mm 0,0 UV-I 0 W/m 3,5 C -3,5 C 25,7 km/h (4 Bft) 100,00 %
06.11.2017 06:32 4,2 C 7,2 C 95 % 1015,3 hPa 0,0 l/m 13,9 km/h (3 Bft) SW 221 0 min 0,000 mm 0,0 UV-I 0 W/m 3,5 C -1,3 C 20,9 km/h (4 Bft) 92,00 %
06.11.2017 06:34 4,2 C 7,2 C 95 % 1015,4 hPa 0,0 l/m 16,6 km/h (3 Bft) W-SW 238 0 min 0,000 mm 0,0 UV-I 0 W/m 3,5 C -2,7 C 25,7 km/h (4 Bft) 97,56 %
06.11.2017 06:36 4,2 C 7,2 C 95 % 1015,4 hPa 0,0 l/m 18,3 km/h (3 Bft) SW 226 0 min 0,000 mm 0,0 UV-I 0 W/m 3,5 C -3,5 C 29,0 km/h (5 Bft) 94,34 %
06.11.2017 06:38 4,1 C 7,2 C 95 % 1015,4 hPa 0,0 l/m 20,9 km/h (4 Bft) SW 228 0 min 0,000 mm 0,0 UV-I 0 W/m 3,4 C -4,7 C 27,4 km/h (4 Bft) 97,73 %
06.11.2017 06:40 4,1 C 7,2 C 95 % 1015,4 hPa 0,0 l/m 13,8 km/h (3 Bft) S-SW 202 0 min 0,000 mm 0,0 UV-I 0 W/m 3,4 C -1,4 C 20,9 km/h (4 Bft) 95,74 %
06.11.2017 06:42 4,1 C 7,2 C 94 % 1015,5 hPa 0,0 l/m 15,1 km/h (3 Bft) SW 223 0 min 0,000 mm 0,0 UV-I 0 W/m 3,2 C -2,1 C 27,4 km/h (4 Bft) 94,74 %
06.11.2017 06:44 4,1 C 7,2 C 94 % 1015,6 hPa 0,0 l/m 13,9 km/h (3 Bft) SW 225 0 min 0,000 mm 0,0 UV-I 0 W/m 3,2 C -1,4 C 24,1 km/h (4 Bft) 96,00 %
06.11.2017 06:46 4,1 C 7,2 C 94 % 1015,5 hPa 0,0 l/m 13,8 km/h (3 Bft) SW 229 0 min 0,000 mm 0,0 UV-I 0 W/m 3,2 C -1,4 C 22,5 km/h (4 Bft) 97,87 %
06.11.2017 06:48 4,1 C 7,2 C 94 % 1015,6 hPa 0,0 l/m 16,5 km/h (3 Bft) SW 228 0 min 0,000 mm 0,0 UV-I 0 W/m 3,2 C -2,8 C 25,7 km/h (4 Bft) 94,64 %
06.11.2017 06:50 4,0 C 7,2 C 94 % 1015,6 hPa 0,0 l/m 13,1 km/h (3 Bft) SW 229 0 min 0,000 mm 0,0 UV-I 2 W/m 3,1 C -1,1 C 20,9 km/h (4 Bft) 94,74 %
06.11.2017 06:52 4,0 C 7,2 C 94 % 1015,7 hPa 0,0 l/m 18,1 km/h (3 Bft) W-SW 245 0 min 0,000 mm 0,0 UV-I 1 W/m 3,1 C -3,6 C 27,4 km/h (4 Bft) 96,43 %
06.11.2017 06:54 4,0 C 7,2 C 94 % 1015,5 hPa 0,0 l/m 12,9 km/h (3 Bft) S 188 0 min 0,000 mm 0,0 UV-I 5 W/m 3,1 C -1,0 C 20,9 km/h (4 Bft) 100,00 %
06.11.2017 06:56 3,9 C 7,2 C 94 % 1015,6 hPa 0,0 l/m 14,4 km/h (3 Bft) W-SW 241 0 min 0,000 mm 0,0 UV-I 5 W/m 3,0 C -1,9 C 22,5 km/h (4 Bft) 93,62 %
06.11.2017 06:58 3,9 C 7,2 C 94 % 1015,6 hPa 0,0 l/m 17,1 km/h (3 Bft) W-SW 249 0 min 0,000 mm 0,0 UV-I 5 W/m 3,0 C -3,3 C 27,4 km/h (4 Bft) 93,75 %
06.11.2017 07:00 3,9 C 7,2 C 94 % 1015,7 hPa 0,0 l/m 14,7 km/h (3 Bft) W-SW 237 0 min 0,000 mm 0,0 UV-I 5 W/m 3,0 C -2,1 C 24,1 km/h (4 Bft) 98,00 %
06.11.2017 07:02 3,9 C 7,2 C 94 % 1015,7 hPa 0,0 l/m 16,1 km/h (3 Bft) SW 232 0 min 0,000 mm 0,0 UV-I 5 W/m 3,0 C -2,8 C 22,5 km/h (4 Bft) 95,12 %
06.11.2017 07:04 3,9 C 7,2 C 94 % 1015,7 hPa 0,0 l/m 16,8 km/h (3 Bft) S-SW 192 0 min 0,000 mm 0,0 UV-I 7 W/m 3,0 C -3,2 C 24,1 km/h (4 Bft) 94,34 %
06.11.2017 07:06 3,9 C 7,2 C 94 % 1015,8 hPa 0,0 l/m 11,6 km/h (2 Bft) SW 232 0 min 0,000 mm 0,0 UV-I 7 W/m 3,0 C -0,3 C 19,3 km/h (3 Bft) 95,45 %
06.11.2017 07:08 3,9 C 7,2 C 94 % 1015,8 hPa 0,0 l/m 15,6 km/h (3 Bft) W 263 0 min 0,000 mm 0,0 UV-I 7 W/m 3,0 C -2,6 C 25,7 km/h (4 Bft) 96,00 %
06.11.2017 07:10 3,8 C 7,2 C 94 % 1015,8 hPa 0,0 l/m 17,3 km/h (3 Bft) SW 230 0 min 0,000 mm 0,0 UV-I 9 W/m 2,9 C -3,5 C 24,1 km/h (4 Bft) 96,00 %
06.11.2017 07:12 3,8 C 7,2 C 94 % 1015,8 hPa 0,0 l/m 16,9 km/h (3 Bft) SW 223 0 min 0,000 mm 0,0 UV-I 9 W/m 2,9 C -3,3 C 25,7 km/h (4 Bft) 97,14 %
06.11.2017 07:14 3,8 C 7,2 C 94 % 1015,8 hPa 0,0 l/m 16,3 km/h (3 Bft) S-SW 208 0 min 0,000 mm 0,0 UV-I 10 W/m 2,9 C -3,0 C 29,0 km/h (5 Bft) 98,00 %
06.11.2017 07:16 3,8 C 7,2 C 94 % 1015,9 hPa 0,0 l/m 19,1 km/h (3 Bft) W-SW 244 0 min 0,000 mm 0,0 UV-I 11 W/m 2,9 C -4,3 C 27,4 km/h (4 Bft) 96,00 %
06.11.2017 07:18 3,8 C 7,2 C 94 % 1015,9 hPa 0,0 l/m 13,7 km/h (3 Bft) S-SW 198 0 min 0,000 mm 0,0 UV-I 12 W/m 2,9 C -1,7 C 25,7 km/h (4 Bft) 95,12 %
06.11.2017 07:20 3,8 C 7,2 C 94 % 1015,9 hPa 0,0 l/m 19,0 km/h (3 Bft) SW 236 0 min 0,000 mm 0,0 UV-I 12 W/m 2,9 C -4,3 C 25,7 km/h (4 Bft) 96,61 %
06.11.2017 07:22 3,8 C 7,2 C 94 % 1016,0 hPa 0,0 l/m 16,3 km/h (3 Bft) S-SW 194 0 min 0,000 mm 0,0 UV-I 13 W/m 2,9 C -3,0 C 24,1 km/h (4 Bft) 100,00 %
06.11.2017 07:24 3,8 C 7,2 C 94 % 1016,0 hPa 0,0 l/m 14,7 km/h (3 Bft) S-SW 196 0 min 0,000 mm 0,0 UV-I 15 W/m 2,9 C -2,2 C 30,6 km/h (5 Bft) 96,92 %
06.11.2017 07:26 3,8 C 7,2 C 94 % 1016,2 hPa 0,0 l/m 15,9 km/h (3 Bft) W-SW 246 0 min 0,000 mm 0,0 UV-I 19 W/m 2,9 C -2,8 C 24,1 km/h (4 Bft) 97,87 %
06.11.2017 07:28 3,8 C 7,2 C 94 % 1016,2 hPa 0,0 l/m 14,0 km/h (3 Bft) S-SW 201 0 min 0,000 mm 0,0 UV-I 21 W/m 2,9 C -1,8 C 22,5 km/h (4 Bft) 94,29 %
06.11.2017 07:30 3,8 C 7,2 C 94 % 1016,2 hPa 0,0 l/m 16,4 km/h (3 Bft) W-SW 240 0 min 0,000 mm 0,0 UV-I 25 W/m 2,9 C -3,1 C 25,7 km/h (4 Bft) 98,11 %
06.11.2017 07:32 3,8 C 7,2 C 94 % 1016,2 hPa 0,2 l/m 20,6 km/h (4 Bft) W-SW 239 0 min 0,000 mm 0,0 UV-I 26 W/m 2,9 C -5,0 C 27,4 km/h (4 Bft) 96,00 %
06.11.2017 07:34 3,8 C 7,2 C 94 % 1016,2 hPa 0,0 l/m 17,3 km/h (3 Bft) SW 219 0 min 0,000 mm 0,0 UV-I 27 W/m 2,9 C -3,5 C 30,6 km/h (5 Bft) 97,56 %
06.11.2017 07:36 3,8 C 7,2 C 94 % 1016,2 hPa 0,0 l/m 14,6 km/h (3 Bft) SW 234 0 min 0,000 mm 0,0 UV-I 31 W/m 2,9 C -2,2 C 27,4 km/h (4 Bft) 98,11 %
06.11.2017 07:38 3,8 C 7,2 C 94 % 1016,3 hPa 0,0 l/m 17,9 km/h (3 Bft) S-SW 200 0 min 0,000 mm 0,0 UV-I 34 W/m 2,9 C -3,8 C 30,6 km/h (5 Bft) 95,24 %
06.11.2017 07:40 3,8 C 7,2 C 94 % 1016,4 hPa 0,0 l/m 15,0 km/h (3 Bft) W 274 0 min 0,000 mm 0,0 UV-I 37 W/m 2,9 C -2,4 C 24,1 km/h (4 Bft) 93,62 %
06.11.2017 07:42 3,8 C 7,2 C 94 % 1016,3 hPa 0,0 l/m 17,8 km/h (3 Bft) W-SW 254 0 min 0,000 mm 0,0 UV-I 38 W/m 2,9 C -3,8 C 25,7 km/h (4 Bft) 92,00 %
06.11.2017 07:44 3,8 C 7,2 C 94 % 1016,4 hPa 0,0 l/m 22,4 km/h (4 Bft) SW 225 0 min 0,000 mm 0,0 UV-I 40 W/m 2,9 C -5,7 C 32,2 km/h (5 Bft) 96,00 %
06.11.2017 07:46 3,8 C 7,2 C 94 % 1016,4 hPa 0,0 l/m 19,3 km/h (3 Bft) SW 229 0 min 0,000 mm 0,0 UV-I 44 W/m 2,9 C -4,4 C 29,0 km/h (5 Bft) 94,74 %
06.11.2017 07:48 3,8 C 7,2 C 94 % 1016,5 hPa 0,0 l/m 17,5 km/h (3 Bft) S-SW 205 0 min 0,000 mm 0,0 UV-I 45 W/m 2,9 C -3,6 C 25,7 km/h (4 Bft) 96,00 %
06.11.2017 07:50 3,8 C 7,2 C 94 % 1016,5 hPa 0,0 l/m 15,4 km/h (3 Bft) W 263 0 min 0,000 mm 0,0 UV-I 47 W/m 2,9 C -2,6 C 22,5 km/h (4 Bft) 98,11 %
06.11.2017 07:52 3,8 C 7,2 C 94 % 1016,5 hPa 0,0 l/m 17,7 km/h (3 Bft) S-SW 208 0 min 0,000 mm 0,0 UV-I 50 W/m 2,9 C -3,7 C 25,7 km/h (4 Bft) 97,37 %
06.11.2017 07:54 3,8 C 7,2 C 94 % 1016,5 hPa 0,0 l/m 17,0 km/h (3 Bft) W-SW 249 0 min 0,000 mm 0,0 UV-I 49 W/m 2,9 C -3,4 C 22,5 km/h (4 Bft) 98,21 %
06.11.2017 07:56 3,8 C 7,2 C 94 % 1016,6 hPa 0,0 l/m 11,3 km/h (2 Bft) W-SW 238 0 min 0,000 mm 0,0 UV-I 46 W/m 2,9 C -0,2 C 19,3 km/h (3 Bft) 94,29 %
06.11.2017 07:58 3,8 C 7,2 C 94 % 1016,7 hPa 0,2 l/m 15,9 km/h (3 Bft) W-SW 240 0 min 0,000 mm 0,0 UV-I 51 W/m 2,9 C -2,8 C 25,7 km/h (4 Bft) 98,31 %
06.11.2017 08:00 3,8 C 7,2 C 94 % 1016,7 hPa 0,0 l/m 19,6 km/h (3 Bft) W 259 0 min 0,000 mm 0,0 UV-I 61 W/m 2,9 C -4,6 C 29,0 km/h (5 Bft) 97,56 %
06.11.2017 08:02 3,8 C 7,2 C 94 % 1016,7 hPa 0,0 l/m 16,5 km/h (3 Bft) SW 236 0 min 0,025 mm 0,0 UV-I 71 W/m 2,9 C -3,1 C 24,1 km/h (4 Bft) 97,73 %
06.11.2017 08:04 3,8 C 7,2 C 94 % 1016,8 hPa 0,0 l/m 19,6 km/h (3 Bft) SW 221 0 min 0,000 mm 0,0 UV-I 77 W/m 2,9 C -4,6 C 27,4 km/h (4 Bft) 96,00 %
06.11.2017 08:06 3,8 C 7,2 C 94 % 1016,8 hPa 0,0 l/m 18,6 km/h (3 Bft) SW 217 0 min 0,000 mm 0,0 UV-I 78 W/m 2,9 C -4,1 C 29,0 km/h (5 Bft) 100,00 %
06.11.2017 08:08 3,9 C 7,2 C 94 % 1016,8 hPa 0,0 l/m 18,4 km/h (3 Bft) W-SW 242 0 min 0,000 mm 0,0 UV-I 76 W/m 3,0 C -3,9 C 29,0 km/h (5 Bft) 98,11 %
06.11.2017 08:10 3,9 C 7,2 C 94 % 1016,9 hPa 0,0 l/m 21,4 km/h (4 Bft) S-SW 202 0 min 0,000 mm 0,0 UV-I 67 W/m 3,0 C -5,2 C 27,4 km/h (4 Bft) 98,00 %
06.11.2017 08:12 3,9 C 7,2 C 94 % 1016,9 hPa 0,0 l/m 16,7 km/h (3 Bft) S-SW 200 0 min 0,000 mm 0,0 UV-I 56 W/m 3,0 C -3,1 C 29,0 km/h (5 Bft) 100,00 %
06.11.2017 08:15 3,8 C 7,2 C 94 % 1017,0 hPa 0,0 l/m 20,3 km/h (4 Bft) SW 233 0 min 0,000 mm 0,0 UV-I 48 W/m 2,9 C -4,8 C 32,2 km/h (5 Bft) 100,00 %
06.11.2017 08:16 3,8 C 7,2 C 94 % 1017,0 hPa 0,0 l/m 21,2 km/h (4 Bft) SW 235 0 min 0,000 mm 0,0 UV-I 44 W/m 2,9 C -5,2 C 29,0 km/h (5 Bft) 100,00 %
06.11.2017 08:18 3,8 C 7,2 C 94 % 1017,0 hPa 0,0 l/m 20,5 km/h (4 Bft) W-SW 246 0 min 0,000 mm 0,0 UV-I 44 W/m 2,9 C -4,9 C 29,0 km/h (5 Bft) 100,00 %
06.11.2017 08:20 3,8 C 7,2 C 94 % 1017,0 hPa 0,0 l/m 19,2 km/h (3 Bft) W-SW 247 0 min 0,000 mm 0,0 UV-I 43 W/m 2,9 C -4,4 C 30,6 km/h (5 Bft) 100,00 %
06.11.2017 08:22 3,8 C 7,2 C 94 % 1017,0 hPa 0,2 l/m 18,6 km/h (3 Bft) S-SW 211 0 min 0,000 mm 0,0 UV-I 38 W/m 2,9 C -4,1 C 29,0 km/h (5 Bft) 100,00 %
06.11.2017 08:24 3,8 C 7,2 C 94 % 1017,1 hPa 0,0 l/m 15,9 km/h (3 Bft) W-SW 252 0 min 0,000 mm 0,0 UV-I 38 W/m 2,9 C -2,8 C 27,4 km/h (4 Bft) 100,00 %
06.11.2017 08:26 3,8 C 7,2 C 94 % 1017,1 hPa 0,0 l/m 15,9 km/h (3 Bft) W-SW 250 0 min 0,000 mm 0,0 UV-I 42 W/m 2,9 C -2,8 C 20,9 km/h (4 Bft) 100,00 %
06.11.2017 08:28 3,8 C 7,2 C 94 % 1017,1 hPa 0,0 l/m 12,1 km/h (2 Bft) SW 224 0 min 0,000 mm 0,0 UV-I 47 W/m 2,9 C -0,7 C 17,7 km/h (3 Bft) 100,00 %
06.11.2017 08:30 3,8 C 7,2 C 94 % 1017,1 hPa 0,0 l/m 12,6 km/h (3 Bft) SW 236 0 min 0,000 mm 0,0 UV-I 55 W/m 2,9 C -1,0 C 19,3 km/h (3 Bft) 96,43 %
06.11.2017 08:32 3,8 C 7,2 C 94 % 1017,2 hPa 0,0 l/m 20,2 km/h (4 Bft) W-SW 244 0 min 0,000 mm 0,0 UV-I 57 W/m 2,9 C -4,8 C 32,2 km/h (5 Bft) 94,00 %
06.11.2017 08:34 3,8 C 7,2 C 94 % 1017,2 hPa 0,0 l/m 17,1 km/h (3 Bft) W-SW 252 0 min 0,000 mm 0,0 UV-I 53 W/m 2,9 C -3,4 C 25,7 km/h (4 Bft) 100,00 %
06.11.2017 08:36 3,8 C 7,2 C 94 % 1017,2 hPa 0,0 l/m 18,1 km/h (3 Bft) SW 235 0 min 0,000 mm 0,0 UV-I 45 W/m 2,9 C -3,9 C 27,4 km/h (4 Bft) 100,00 %
06.11.2017 08:38 3,8 C 7,2 C 94 % 1017,3 hPa 0,0 l/m 19,1 km/h (3 Bft) SW 232 0 min 0,000 mm 0,0 UV-I 41 W/m 2,9 C -4,3 C 29,0 km/h (5 Bft) 100,00 %
06.11.2017 08:40 3,8 C 7,2 C 94 % 1017,3 hPa 0,0 l/m 18,4 km/h (3 Bft) SW 236 0 min 0,000 mm 0,0 UV-I 37 W/m 2,9 C -4,0 C 25,7 km/h (4 Bft) 95,74 %
06.11.2017 08:42 3,8 C 7,2 C 94 % 1017,3 hPa 0,0 l/m 19,7 km/h (3 Bft) W-SW 238 0 min 0,000 mm 0,0 UV-I 35 W/m 2,9 C -4,6 C 30,6 km/h (5 Bft) 98,00 %
06.11.2017 08:44 3,8 C 7,2 C 94 % 1017,4 hPa 0,0 l/m 14,5 km/h (3 Bft) W-SW 242 0 min 0,000 mm 0,0 UV-I 38 W/m 2,9 C -2,1 C 24,1 km/h (4 Bft) 96,23 %
06.11.2017 08:46 3,8 C 7,2 C 95 % 1017,4 hPa 0,0 l/m 13,8 km/h (3 Bft) W-SW 245 0 min 0,000 mm 0,0 UV-I 34 W/m 3,1 C -1,7 C 25,7 km/h (4 Bft) 97,37 %
06.11.2017 08:48 3,8 C 7,2 C 95 % 1017,4 hPa 0,0 l/m 15,5 km/h (3 Bft) S-SW 203 0 min 0,000 mm 0,0 UV-I 33 W/m 3,1 C -2,6 C 22,5 km/h (4 Bft) 97,56 %
06.11.2017 08:50 3,8 C 7,2 C 94 % 1017,4 hPa 0,2 l/m 18,5 km/h (3 Bft) SW 230 0 min 0,000 mm 0,0 UV-I 34 W/m 2,9 C -4,1 C 27,4 km/h (4 Bft) 98,31 %
06.11.2017 08:52 3,8 C 7,2 C 94 % 1017,5 hPa 0,0 l/m 16,0 km/h (3 Bft) SW 234 0 min 0,000 mm 0,0 UV-I 38 W/m 2,9 C -2,9 C 22,5 km/h (4 Bft) 97,56 %
06.11.2017 08:54 3,8 C 7,2 C 95 % 1017,4 hPa 0,0 l/m 15,0 km/h (3 Bft) SW 219 0 min 0,000 mm 0,0 UV-I 42 W/m 3,1 C -2,4 C 25,7 km/h (4 Bft) 96,00 %
06.11.2017 08:56 3,8 C 7,2 C 95 % 1017,6 hPa 0,0 l/m 15,6 km/h (3 Bft) W-SW 254 0 min 0,000 mm 0,0 UV-I 46 W/m 3,1 C -2,7 C 25,7 km/h (4 Bft) 95,24 %
06.11.2017 08:58 3,8 C 7,2 C 95 % 1017,5 hPa 0,0 l/m 18,3 km/h (3 Bft) W-SW 257 0 min 0,000 mm 0,0 UV-I 50 W/m 3,1 C -4,0 C 29,0 km/h (5 Bft) 98,08 %
06.11.2017 09:00 3,8 C 7,2 C 95 % 1017,6 hPa 0,0 l/m 18,8 km/h (3 Bft) SW 214 0 min 0,026 mm 0,0 UV-I 56 W/m 3,1 C -4,2 C 27,4 km/h (4 Bft) 100,00 %
06.11.2017 09:02 3,8 C 7,2 C 95 % 1017,6 hPa 0,0 l/m 19,6 km/h (3 Bft) W-SW 246 0 min 0,000 mm 0,0 UV-I 58 W/m 3,1 C -4,6 C 32,2 km/h (5 Bft) 97,14 %
06.11.2017 09:04 3,8 C 7,2 C 95 % 1017,7 hPa 0,0 l/m 15,7 km/h (3 Bft) W-SW 246 0 min 0,000 mm 0,0 UV-I 57 W/m 3,1 C -2,7 C 29,0 km/h (5 Bft) 95,56 %
06.11.2017 09:06 3,8 C 7,2 C 95 % 1017,6 hPa 0,0 l/m 11,6 km/h (2 Bft) W-SW 249 0 min 0,000 mm 0,0 UV-I 49 W/m 3,1 C -0,4 C 17,7 km/h (3 Bft) 95,24 %
06.11.2017 09:08 3,8 C 7,2 C 95 % 1017,6 hPa 0,0 l/m 11,6 km/h (2 Bft) W-SW 239 0 min 0,000 mm 0,0 UV-I 42 W/m 3,1 C -0,4 C 16,1 km/h (3 Bft) 98,00 %
06.11.2017 09:10 3,8 C 7,2 C 95 % 1017,6 hPa 0,0 l/m 15,5 km/h (3 Bft) SW 235 0 min 0,000 mm 0,0 UV-I 43 W/m 3,1 C -2,6 C 25,7 km/h (4 Bft) 97,87 %
06.11.2017 09:12 3,8 C 7,2 C 95 % 1017,5 hPa 0,0 l/m 15,4 km/h (3 Bft) SW 231 0 min 0,000 mm 0,0 UV-I 46 W/m 3,1 C -2,6 C 22,5 km/h (4 Bft) 93,62 %
06.11.2017 09:14 3,8 C 7,2 C 95 % 1017,6 hPa 0,0 l/m 12,8 km/h (3 Bft) W-SW 252 0 min 0,000 mm 0,0 UV-I 47 W/m 3,1 C -1,1 C 19,3 km/h (3 Bft) 98,00 %
06.11.2017 09:16 3,8 C 7,2 C 95 % 1017,5 hPa 0,0 l/m 20,7 km/h (4 Bft) S-SW 205 0 min 0,000 mm 0,0 UV-I 45 W/m 3,1 C -5,0 C 30,6 km/h (5 Bft) 100,00 %
06.11.2017 09:18 3,8 C 7,2 C 95 % 1017,5 hPa 0,0 l/m 15,8 km/h (3 Bft) SW 219 0 min 0,000 mm 0,0 UV-I 46 W/m 3,1 C -2,8 C 24,1 km/h (4 Bft) 97,73 %
06.11.2017 09:20 3,8 C 7,2 C 95 % 1017,5 hPa 0,0 l/m 16,9 km/h (3 Bft) W-SW 245 0 min 0,000 mm 0,0 UV-I 53 W/m 3,1 C -3,3 C 29,0 km/h (5 Bft) 100,00 %
06.11.2017 09:22 3,8 C 7,2 C 95 % 1017,6 hPa 0,0 l/m 20,0 km/h (4 Bft) S-SW 211 0 min 0,000 mm 0,0 UV-I 56 W/m 3,1 C -4,7 C 27,4 km/h (4 Bft) 100,00 %
06.11.2017 09:24 3,9 C 7,2 C 95 % 1017,5 hPa 0,0 l/m 11,7 km/h (2 Bft) W-SW 248 0 min 0,000 mm 0,0 UV-I 61 W/m 3,2 C -0,3 C 17,7 km/h (3 Bft) 97,87 %
06.11.2017 09:26 3,9 C 7,2 C 95 % 1017,5 hPa 0,0 l/m 11,1 km/h (2 Bft) S-SW 211 0 min 0,000 mm 0,0 UV-I 61 W/m 3,2 C 0,1 C 17,7 km/h (3 Bft) 96,00 %
06.11.2017 09:28 3,9 C 7,2 C 95 % 1017,5 hPa 0,0 l/m 15,4 km/h (3 Bft) SW 227 0 min 0,000 mm 0,0 UV-I 66 W/m 3,2 C -2,5 C 22,5 km/h (4 Bft) 100,00 %
06.11.2017 09:30 3,9 C 7,2 C 95 % 1017,6 hPa 0,0 l/m 17,8 km/h (3 Bft) W-SW 257 0 min 0,000 mm 0,0 UV-I 67 W/m 3,2 C -3,6 C 24,1 km/h (4 Bft) 100,00 %
06.11.2017 09:32 3,9 C 7,2 C 95 % 1017,6 hPa 0,0 l/m 12,1 km/h (2 Bft) W-SW 241 0 min 0,000 mm 0,0 UV-I 59 W/m 3,2 C -0,6 C 17,7 km/h (3 Bft) 95,52 %
06.11.2017 09:34 3,9 C 7,2 C 95 % 1017,6 hPa 0,0 l/m 14,2 km/h (3 Bft) SW 227 0 min 0,000 mm 0,0 UV-I 53 W/m 3,2 C -1,8 C 19,3 km/h (3 Bft) 97,44 %
06.11.2017 09:36 3,9 C 7,2 C 95 % 1017,6 hPa 0,0 l/m 15,0 km/h (3 Bft) SW 231 0 min 0,000 mm 0,0 UV-I 49 W/m 3,2 C -2,3 C 22,5 km/h (4 Bft) 100,00 %
06.11.2017 09:38 3,9 C 7,2 C 95 % 1017,8 hPa 0,0 l/m 18,1 km/h (3 Bft) W-SW 254 0 min 0,000 mm 0,0 UV-I 44 W/m 3,2 C -3,8 C 24,1 km/h (4 Bft) 100,00 %
06.11.2017 09:40 4,0 C 7,2 C 95 % 1017,8 hPa 0,0 l/m 13,4 km/h (3 Bft) SW 236 0 min 0,000 mm 0,0 UV-I 43 W/m 3,3 C -1,2 C 17,7 km/h (3 Bft) 98,11 %
06.11.2017 09:42 4,0 C 7,2 C 95 % 1017,9 hPa 0,0 l/m 16,8 km/h (3 Bft) W-SW 243 0 min 0,000 mm 0,0 UV-I 41 W/m 3,3 C -3,0 C 24,1 km/h (4 Bft) 98,11 %
06.11.2017 09:44 3,9 C 7,2 C 95 % 1017,9 hPa 0,0 l/m 17,7 km/h (3 Bft) SW 224 0 min 0,000 mm 0,0 UV-I 41 W/m 3,2 C -3,6 C 24,1 km/h (4 Bft) 100,00 %
06.11.2017 09:46 4,0 C 7,2 C 95 % 1017,9 hPa 0,0 l/m 11,9 km/h (2 Bft) SW 230 0 min 0,000 mm 0,0 UV-I 45 W/m 3,3 C -0,3 C 22,5 km/h (4 Bft) 100,00 %
06.11.2017 09:48 4,0 C 7,2 C 95 % 1017,9 hPa 0,0 l/m 15,0 km/h (3 Bft) W-SW 240 0 min 0,000 mm 0,0 UV-I 49 W/m 3,3 C -2,1 C 25,7 km/h (4 Bft) 100,00 %
06.11.2017 09:50 4,0 C 7,2 C 95 % 1018,0 hPa 0,0 l/m 15,8 km/h (3 Bft) SW 230 0 min 0,000 mm 0,0 UV-I 51 W/m 3,3 C -2,5 C 22,5 km/h (4 Bft) 100,00 %
06.11.2017 09:52 4,0 C 7,2 C 95 % 1018,1 hPa 0,0 l/m 15,4 km/h (3 Bft) SW 225 0 min 0,000 mm 0,0 UV-I 49 W/m 3,3 C -2,3 C 25,7 km/h (4 Bft) 97,92 %
06.11.2017 09:54 4,1 C 7,2 C 95 % 1018,1 hPa 0,0 l/m 14,9 km/h (3 Bft) SW 235 0 min 0,000 mm 0,0 UV-I 54 W/m 3,4 C -2,0 C 20,9 km/h (4 Bft) 100,00 %
06.11.2017 09:56 4,1 C 7,2 C 95 % 1018,1 hPa 0,0 l/m 14,0 km/h (3 Bft) W-SW 247 0 min 0,000 mm 0,0 UV-I 65 W/m 3,4 C -1,5 C 19,3 km/h (3 Bft) 100,00 %
06.11.2017 09:58 4,1 C 7,2 C 95 % 1018,1 hPa 0,0 l/m 11,1 km/h (2 Bft) W-SW 247 0 min 0,000 mm 0,0 UV-I 75 W/m 3,4 C 0,3 C 17,7 km/h (3 Bft) 100,00 %
06.11.2017 10:00 4,1 C 7,2 C 95 % 1018,2 hPa 0,0 l/m 11,8 km/h (2 Bft) SW 232 0 min 0,025 mm 0,0 UV-I 78 W/m 3,4 C -0,2 C 19,3 km/h (3 Bft) 100,00 %
06.11.2017 10:02 4,2 C 7,2 C 95 % 1018,2 hPa 0,0 l/m 12,0 km/h (2 Bft) SW 229 0 min 0,000 mm 0,0 UV-I 79 W/m 3,5 C -0,2 C 16,1 km/h (3 Bft) 100,00 %
06.11.2017 10:04 4,2 C 7,2 C 95 % 1018,2 hPa 0,0 l/m 7,6 km/h (2 Bft) W-SW 240 0 min 0,000 mm 0,0 UV-I 79 W/m 3,5 C 3,1 C 14,5 km/h (3 Bft) 100,00 %
06.11.2017 10:06 4,2 C 7,2 C 95 % 1018,2 hPa 0,0 l/m 10,4 km/h (2 Bft) SW 226 0 min 0,000 mm 0,0 UV-I 74 W/m 3,5 C 0,9 C 16,1 km/h (3 Bft) 100,00 %
06.11.2017 10:08 4,3 C 7,2 C 95 % 1018,3 hPa 0,0 l/m 9,0 km/h (2 Bft) S-SW 196 0 min 0,000 mm 0,0 UV-I 57 W/m 3,6 C 2,1 C 12,9 km/h (3 Bft) 97,87 %
06.11.2017 10:10 4,3 C 7,2 C 95 % 1018,3 hPa 0,2 l/m 11,3 km/h (2 Bft) W-SW 240 0 min 0,000 mm 0,0 UV-I 42 W/m 3,6 C 0,4 C 19,3 km/h (3 Bft) 100,00 %
06.11.2017 10:12 4,2 C 7,2 C 95 % 1018,4 hPa 0,0 l/m 14,7 km/h (3 Bft) SW 226 0 min 0,000 mm 0,0 UV-I 41 W/m 3,5 C -1,7 C 24,1 km/h (4 Bft) 100,00 %
06.11.2017 10:14 4,2 C 7,2 C 95 % 1018,4 hPa 0,0 l/m 11,6 km/h (2 Bft) SW 226 0 min 0,000 mm 0,0 UV-I 46 W/m 3,5 C 0,1 C 19,3 km/h (3 Bft) 100,00 %
06.11.2017 10:16 4,2 C 7,2 C 95 % 1018,5 hPa 0,0 l/m 15,4 km/h (3 Bft) W-SW 238 0 min 0,000 mm 0,0 UV-I 51 W/m 3,5 C -2,1 C 22,5 km/h (4 Bft) 100,00 %
06.11.2017 10:18 4,2 C 7,2 C 95 % 1018,5 hPa 0,0 l/m 15,2 km/h (3 Bft) SW 221 0 min 0,000 mm 0,0 UV-I 55 W/m 3,5 C -2,0 C 20,9 km/h (4 Bft) 100,00 %
06.11.2017 10:20 4,2 C 7,2 C 95 % 1018,4 hPa 0,0 l/m 9,5 km/h (2 Bft) W-SW 252 0 min 0,000 mm 0,0 UV-I 56 W/m 3,5 C 1,6 C 16,1 km/h (3 Bft) 98,11 %
06.11.2017 10:22 4,2 C 7,2 C 95 % 1018,4 hPa 0,0 l/m 14,5 km/h (3 Bft) S-SW 211 0 min 0,000 mm 0,0 UV-I 56 W/m 3,5 C -1,6 C 20,9 km/h (4 Bft) 97,37 %
06.11.2017 10:24 4,2 C 7,2 C 95 % 1018,4 hPa 0,0 l/m 13,9 km/h (3 Bft) W-SW 256 0 min 0,000 mm 0,0 UV-I 59 W/m 3,5 C -1,3 C 22,5 km/h (4 Bft) 100,00 %
06.11.2017 10:26 4,3 C 7,2 C 94 % 1018,4 hPa 0,0 l/m 14,0 km/h (3 Bft) SW 229 0 min 0,000 mm 0,0 UV-I 62 W/m 3,4 C -1,2 C 20,9 km/h (4 Bft) 100,00 %
06.11.2017 10:28 4,3 C 7,2 C 95 % 1018,4 hPa 0,0 l/m 11,5 km/h (2 Bft) SW 215 0 min 0,000 mm 0,0 UV-I 62 W/m 3,6 C 0,3 C 17,7 km/h (3 Bft) 100,00 %
06.11.2017 10:30 4,3 C 7,2 C 94 % 1018,4 hPa 0,0 l/m 8,1 km/h (2 Bft) SW 236 0 min 0,000 mm 0,0 UV-I 62 W/m 3,4 C 2,8 C 12,9 km/h (3 Bft) 100,00 %
06.11.2017 10:32 4,3 C 7,2 C 95 % 1018,6 hPa 0,0 l/m 9,5 km/h (2 Bft) W-SW 238 0 min 0,000 mm 0,0 UV-I 61 W/m 3,6 C 1,7 C 20,9 km/h (4 Bft) 97,14 %
06.11.2017 10:34 4,3 C 7,2 C 95 % 1018,6 hPa 0,0 l/m 15,1 km/h (3 Bft) W-SW 244 0 min 0,000 mm 0,0 UV-I 59 W/m 3,6 C -1,8 C 20,9 km/h (4 Bft) 100,00 %
06.11.2017 10:36 4,3 C 7,2 C 95 % 1018,8 hPa 0,0 l/m 13,7 km/h (3 Bft) SW 216 0 min 0,000 mm 0,0 UV-I 62 W/m 3,6 C -1,1 C 20,9 km/h (4 Bft) 98,00 %
06.11.2017 10:38 4,3 C 7,2 C 94 % 1018,8 hPa 0,0 l/m 11,9 km/h (2 Bft) SW 222 0 min 0,000 mm 0,0 UV-I 62 W/m 3,4 C 0,0 C 20,9 km/h (4 Bft) 95,12 %
06.11.2017 10:40 4,3 C 7,2 C 94 % 1018,9 hPa 0,0 l/m 14,8 km/h (3 Bft) SW 234 0 min 0,000 mm 0,0 UV-I 62 W/m 3,4 C -1,7 C 25,7 km/h (4 Bft) 98,21 %
06.11.2017 10:42 4,3 C 7,2 C 94 % 1018,9 hPa 0,0 l/m 14,7 km/h (3 Bft) SW 226 0 min 0,000 mm 0,0 UV-I 55 W/m 3,4 C -1,6 C 22,5 km/h (4 Bft) 95,12 %
06.11.2017 10:44 4,3 C 7,2 C 94 % 1018,9 hPa 0,0 l/m 12,9 km/h (3 Bft) SW 218 0 min 0,000 mm 0,0 UV-I 51 W/m 3,4 C -0,6 C 20,9 km/h (4 Bft) 96,00 %
06.11.2017 10:46 4,3 C 7,2 C 94 % 1018,9 hPa 0,0 l/m 11,6 km/h (2 Bft) SW 232 0 min 0,000 mm 0,0 UV-I 48 W/m 3,4 C 0,2 C 20,9 km/h (4 Bft) 97,56 %
06.11.2017 10:48 4,4 C 7,2 C 94 % 1018,9 hPa 0,0 l/m 9,9 km/h (2 Bft) W-SW 254 0 min 0,000 mm 0,0 UV-I 47 W/m 3,5 C 1,5 C 19,3 km/h (3 Bft) 98,11 %
06.11.2017 10:50 4,4 C 7,2 C 94 % 1018,9 hPa 0,0 l/m 11,0 km/h (2 Bft) W-SW 251 0 min 0,000 mm 0,0 UV-I 48 W/m 3,5 C 0,7 C 22,5 km/h (4 Bft) 94,00 %
06.11.2017 10:52 4,4 C 7,2 C 94 % 1018,9 hPa 0,0 l/m 12,4 km/h (3 Bft) SW 218 0 min 0,000 mm 0,0 UV-I 54 W/m 3,5 C -0,2 C 20,9 km/h (4 Bft) 95,12 %
06.11.2017 10:54 4,4 C 7,2 C 94 % 1018,8 hPa 0,0 l/m 11,7 km/h (2 Bft) W-SW 242 0 min 0,000 mm 0,0 UV-I 59 W/m 3,5 C 0,3 C 17,7 km/h (3 Bft) 96,00 %
06.11.2017 10:56 4,4 C 7,2 C 94 % 1018,9 hPa 0,0 l/m 13,5 km/h (3 Bft) W-SW 249 0 min 0,000 mm 0,0 UV-I 56 W/m 3,5 C -0,8 C 20,9 km/h (4 Bft) 94,87 %
06.11.2017 10:58 4,4 C 7,2 C 94 % 1018,9 hPa 0,0 l/m 15,2 km/h (3 Bft) S-SW 198 0 min 0,000 mm 0,0 UV-I 55 W/m 3,5 C -1,8 C 20,9 km/h (4 Bft) 97,37 %
06.11.2017 11:00 4,4 C 7,2 C 94 % 1018,9 hPa 0,0 l/m 11,9 km/h (2 Bft) SW 233 0 min 0,026 mm 0,0 UV-I 56 W/m 3,5 C 0,1 C 20,9 km/h (4 Bft) 93,55 %
06.11.2017 11:02 4,4 C 7,2 C 94 % 1018,9 hPa 0,0 l/m 10,8 km/h (2 Bft) W-SW 253 0 min 0,000 mm 0,0 UV-I 54 W/m 3,5 C 0,8 C 20,9 km/h (4 Bft) 94,74 %
06.11.2017 11:04 4,4 C 7,2 C 94 % 1018,9 hPa 0,0 l/m 7,8 km/h (2 Bft) W-SW 248 0 min 0,000 mm 0,0 UV-I 58 W/m 3,5 C 3,1 C 12,9 km/h (3 Bft) 96,43 %
06.11.2017 11:06 4,4 C 7,2 C 95 % 1018,9 hPa 0,0 l/m 12,4 km/h (3 Bft) W-SW 254 0 min 0,000 mm 0,0 UV-I 64 W/m 3,7 C -0,2 C 19,3 km/h (3 Bft) 96,00 %
06.11.2017 11:08 4,4 C 7,2 C 94 % 1018,8 hPa 0,0 l/m 10,9 km/h (2 Bft) W-SW 250 0 min 0,000 mm 0,0 UV-I 69 W/m 3,5 C 0,8 C 16,1 km/h (3 Bft) 94,29 %
06.11.2017 11:10 4,4 C 7,2 C 94 % 1018,8 hPa 0,0 l/m 14,9 km/h (3 Bft) SW 227 0 min 0,000 mm 0,0 UV-I 75 W/m 3,5 C -1,6 C 20,9 km/h (4 Bft) 94,34 %
06.11.2017 11:12 4,4 C 7,2 C 94 % 1018,9 hPa 0,0 l/m 13,0 km/h (3 Bft) W-SW 250 0 min 0,000 mm 0,0 UV-I 76 W/m 3,5 C -0,5 C 17,7 km/h (3 Bft) 97,73 %
06.11.2017 11:14 4,4 C 7,2 C 94 % 1018,9 hPa 0,0 l/m 9,6 km/h (2 Bft) SW 225 0 min 0,000 mm 0,0 UV-I 78 W/m 3,5 C 1,7 C 22,5 km/h (4 Bft) 94,34 %
06.11.2017 11:16 4,4 C 7,2 C 94 % 1018,9 hPa 0,0 l/m 11,1 km/h (2 Bft) W-SW 243 0 min 0,000 mm 0,0 UV-I 84 W/m 3,5 C 0,6 C 19,3 km/h (3 Bft) 98,00 %
06.11.2017 11:18 4,4 C 7,2 C 95 % 1018,9 hPa 0,0 l/m 12,0 km/h (2 Bft) SW 225 0 min 0,000 mm 0,0 UV-I 89 W/m 3,7 C 0,1 C 19,3 km/h (3 Bft) 97,87 %
06.11.2017 11:20 4,4 C 7,2 C 95 % 1018,9 hPa 0,0 l/m 14,8 km/h (3 Bft) S-SW 201 0 min 0,000 mm 0,0 UV-I 91 W/m 3,7 C -1,5 C 19,3 km/h (3 Bft) 91,43 %
06.11.2017 11:22 4,4 C 7,2 C 95 % 1019,0 hPa 0,0 l/m 11,3 km/h (2 Bft) W-SW 246 0 min 0,000 mm 0,0 UV-I 87 W/m 3,7 C 0,5 C 16,1 km/h (3 Bft) 98,11 %
06.11.2017 11:24 4,4 C 7,2 C 95 % 1018,9 hPa 0,0 l/m 13,4 km/h (3 Bft) SW 221 0 min 0,000 mm 0,0 UV-I 82 W/m 3,7 C -0,8 C 19,3 km/h (3 Bft) 94,74 %
06.11.2017 11:26 4,4 C 7,2 C 95 % 1018,9 hPa 0,0 l/m 18,4 km/h (3 Bft) SW 232 0 min 0,000 mm 0,0 UV-I 78 W/m 3,7 C -3,3 C 25,7 km/h (4 Bft) 98,31 %
06.11.2017 11:28 4,4 C 7,2 C 94 % 1018,9 hPa 0,0 l/m 17,3 km/h (3 Bft) SW 214 0 min 0,000 mm 0,0 UV-I 73 W/m 3,5 C -2,8 C 27,4 km/h (4 Bft) 94,74 %
06.11.2017 11:30 4,4 C 7,2 C 94 % 1018,9 hPa 0,0 l/m 16,1 km/h (3 Bft) SW 226 0 min 0,000 mm 0,0 UV-I 71 W/m 3,5 C -2,2 C 22,5 km/h (4 Bft) 95,24 %
06.11.2017 11:32 4,4 C 7,2 C 94 % 1018,8 hPa 0,0 l/m 16,1 km/h (3 Bft) SW 230 0 min 0,000 mm 0,0 UV-I 67 W/m 3,5 C -2,2 C 22,5 km/h (4 Bft) 98,18 %
06.11.2017 11:34 4,4 C 7,2 C 95 % 1018,9 hPa 0,0 l/m 12,1 km/h (2 Bft) S-SW 211 0 min 0,000 mm 0,0 UV-I 63 W/m 3,7 C 0,0 C 22,5 km/h (4 Bft) 97,87 %
06.11.2017 11:36 4,4 C 7,2 C 95 % 1018,9 hPa 0,0 l/m 11,6 km/h (2 Bft) S-SW 211 0 min 0,000 mm 0,0 UV-I 66 W/m 3,7 C 0,3 C 17,7 km/h (3 Bft) 97,87 %
06.11.2017 11:38 4,4 C 7,2 C 95 % 1018,8 hPa 0,0 l/m 12,4 km/h (3 Bft) SW 219 0 min 0,000 mm 0,0 UV-I 72 W/m 3,7 C -0,2 C 19,3 km/h (3 Bft) 94,44 %
06.11.2017 11:40 4,4 C 7,2 C 94 % 1018,9 hPa 0,0 l/m 14,1 km/h (3 Bft) S-SW 196 0 min 0,000 mm 0,0 UV-I 76 W/m 3,5 C -1,2 C 20,9 km/h (4 Bft) 96,88 %
06.11.2017 11:42 4,5 C 7,2 C 95 % 1018,9 hPa 0,0 l/m 8,7 km/h (2 Bft) W-SW 251 0 min 0,000 mm 0,0 UV-I 77 W/m 3,8 C 2,5 C 19,3 km/h (3 Bft) 94,87 %
06.11.2017 11:44 4,6 C 7,2 C 95 % 1018,9 hPa 0,0 l/m 9,3 km/h (2 Bft) W-SW 244 0 min 0,000 mm 0,0 UV-I 75 W/m 3,9 C 2,1 C 16,1 km/h (3 Bft) 95,74 %
06.11.2017 11:46 4,6 C 7,2 C 95 % 1018,9 hPa 0,0 l/m 10,0 km/h (2 Bft) SW 236 0 min 0,000 mm 0,0 UV-I 74 W/m 3,9 C 1,6 C 17,7 km/h (3 Bft) 98,11 %
06.11.2017 11:48 4,6 C 7,2 C 95 % 1018,8 hPa 0,0 l/m 10,7 km/h (2 Bft) SW 230 0 min 0,000 mm 0,0 UV-I 72 W/m 3,9 C 1,1 C 14,5 km/h (3 Bft) 96,15 %
06.11.2017 11:50 4,6 C 7,2 C 95 % 1018,9 hPa 0,0 l/m 11,3 km/h (2 Bft) S-SW 195 0 min 0,000 mm 0,0 UV-I 66 W/m 3,9 C 0,7 C 17,7 km/h (3 Bft) 93,85 %
06.11.2017 11:52 4,6 C 7,2 C 95 % 1018,9 hPa 0,0 l/m 8,2 km/h (2 Bft) SW 221 0 min 0,000 mm 0,0 UV-I 63 W/m 3,9 C 3,0 C 14,5 km/h (3 Bft) 97,37 %
06.11.2017 11:54 4,6 C 7,2 C 95 % 1018,9 hPa 0,0 l/m 8,8 km/h (2 Bft) SW 219 0 min 0,000 mm 0,0 UV-I 67 W/m 3,9 C 2,5 C 12,9 km/h (3 Bft) 95,74 %
06.11.2017 11:56 4,6 C 7,2 C 95 % 1018,9 hPa 0,0 l/m 13,4 km/h (3 Bft) SW 234 0 min 0,000 mm 0,0 UV-I 76 W/m 3,9 C -0,5 C 19,3 km/h (3 Bft) 98,11 %
06.11.2017 11:58 4,6 C 7,2 C 95 % 1018,9 hPa 0,0 l/m 14,0 km/h (3 Bft) W-SW 243 0 min 0,000 mm 0,0 UV-I 83 W/m 3,9 C -0,9 C 20,9 km/h (4 Bft) 100,00 %
06.11.2017 12:00 4,6 C 7,2 C 95 % 1018,9 hPa 0,0 l/m 13,1 km/h (3 Bft) W-SW 238 0 min 0,025 mm 0,0 UV-I 83 W/m 3,9 C -0,4 C 19,3 km/h (3 Bft) 100,00 %
06.11.2017 12:02 4,6 C 7,2 C 95 % 1018,9 hPa 0,0 l/m 11,9 km/h (2 Bft) SW 223 0 min 0,000 mm 0,0 UV-I 79 W/m 3,9 C 0,4 C 19,3 km/h (3 Bft) 97,37 %
06.11.2017 12:04 4,6 C 7,2 C 95 % 1019,0 hPa 0,0 l/m 11,5 km/h (2 Bft) W-SW 252 0 min 0,000 mm 0,0 UV-I 77 W/m 3,9 C 0,6 C 14,5 km/h (3 Bft) 100,00 %
06.11.2017 12:06 4,6 C 7,2 C 95 % 1019,0 hPa 0,0 l/m 9,4 km/h (2 Bft) SW 222 0 min 0,000 mm 0,0 UV-I 78 W/m 3,9 C 2,1 C 19,3 km/h (3 Bft) 100,00 %
06.11.2017 12:08 4,6 C 7,2 C 95 % 1019,0 hPa 0,0 l/m 10,2 km/h (2 Bft) SW 227 0 min 0,000 mm 0,0 UV-I 82 W/m 3,9 C 1,5 C 14,5 km/h (3 Bft) 98,00 %
06.11.2017 12:10 4,6 C 7,2 C 95 % 1018,9 hPa 0,0 l/m 10,1 km/h (2 Bft) SW 226 0 min 0,000 mm 0,0 UV-I 85 W/m 3,9 C 1,6 C 17,7 km/h (3 Bft) 100,00 %
06.11.2017 12:12 4,6 C 7,2 C 95 % 1019,0 hPa 0,0 l/m 12,0 km/h (2 Bft) SW 217 0 min 0,000 mm 0,0 UV-I 90 W/m 3,9 C 0,3 C 16,1 km/h (3 Bft) 98,11 %
06.11.2017 12:14 4,6 C 7,2 C 94 % 1018,9 hPa 0,0 l/m 11,9 km/h (2 Bft) SW 227 0 min 0,000 mm 0,0 UV-I 98 W/m 3,7 C 0,4 C 17,7 km/h (3 Bft) 100,00 %
06.11.2017 12:16 4,6 C 7,2 C 94 % 1019,0 hPa 0,0 l/m 11,3 km/h (2 Bft) W-SW 251 0 min 0,000 mm 0,0 UV-I 96 W/m 3,7 C 0,7 C 17,7 km/h (3 Bft) 97,87 %
06.11.2017 12:18 4,6 C 7,2 C 94 % 1019,0 hPa 0,0 l/m 9,9 km/h (2 Bft) SW 227 0 min 0,000 mm 0,0 UV-I 84 W/m 3,7 C 1,7 C 14,5 km/h (3 Bft) 100,00 %
06.11.2017 12:20 4,6 C 7,2 C 95 % 1019,0 hPa 0,0 l/m 7,9 km/h (2 Bft) W-SW 237 0 min 0,000 mm 0,0 UV-I 78 W/m 3,9 C 3,3 C 14,5 km/h (3 Bft) 100,00 %
06.11.2017 12:22 4,6 C 7,2 C 94 % 1019,0 hPa 0,0 l/m 9,1 km/h (2 Bft) SW 222 0 min 0,000 mm 0,0 UV-I 71 W/m 3,7 C 2,3 C 16,1 km/h (3 Bft) 98,11 %
06.11.2017 12:24 4,7 C 7,2 C 94 % 1019,0 hPa 0,2 l/m 10,1 km/h (2 Bft) SW 225 0 min 0,000 mm 0,0 UV-I 69 W/m 3,8 C 1,7 C 14,5 km/h (3 Bft) 100,00 %
06.11.2017 12:26 4,6 C 7,2 C 94 % 1019,0 hPa 0,0 l/m 11,9 km/h (2 Bft) SW 236 0 min 0,000 mm 0,0 UV-I 69 W/m 3,7 C 0,4 C 17,7 km/h (3 Bft) 100,00 %
06.11.2017 12:28 4,6 C 7,2 C 94 % 1019,0 hPa 0,0 l/m 10,1 km/h (2 Bft) SW 236 0 min 0,000 mm 0,0 UV-I 69 W/m 3,7 C 1,6 C 17,7 km/h (3 Bft) 97,73 %
06.11.2017 12:30 4,6 C 7,2 C 94 % 1019,1 hPa 0,0 l/m 13,2 km/h (3 Bft) S-SW 213 0 min 0,000 mm 0,0 UV-I 72 W/m 3,7 C -0,4 C 17,7 km/h (3 Bft) 100,00 %
06.11.2017 12:32 4,6 C 7,2 C 94 % 1019,1 hPa 0,0 l/m 8,0 km/h (2 Bft) SW 227 0 min 0,000 mm 0,0 UV-I 78 W/m 3,7 C 3,2 C 16,1 km/h (3 Bft) 96,23 %
06.11.2017 12:34 4,6 C 7,2 C 95 % 1019,1 hPa 0,0 l/m 10,0 km/h (2 Bft) SW 232 0 min 0,000 mm 0,0 UV-I 86 W/m 3,9 C 1,6 C 14,5 km/h (3 Bft) 100,00 %
06.11.2017 12:36 4,7 C 7,2 C 95 % 1019,1 hPa 0,0 l/m 9,3 km/h (2 Bft) SW 229 0 min 0,000 mm 0,0 UV-I 91 W/m 4,0 C 2,3 C 16,1 km/h (3 Bft) 100,00 %
06.11.2017 12:38 4,7 C 7,2 C 94 % 1019,1 hPa 0,0 l/m 12,7 km/h (3 Bft) W-SW 245 0 min 0,000 mm 0,0 UV-I 94 W/m 3,8 C -0,0 C 16,1 km/h (3 Bft) 100,00 %
06.11.2017 12:40 4,7 C 7,2 C 95 % 1019,1 hPa 0,0 l/m 7,7 km/h (2 Bft) W-SW 254 0 min 0,000 mm 0,0 UV-I 94 W/m 4,0 C 3,5 C 16,1 km/h (3 Bft) 98,11 %
06.11.2017 12:42 4,7 C 7,2 C 95 % 1019,1 hPa 0,0 l/m 6,9 km/h (2 Bft) SW 234 0 min 0,000 mm 0,0 UV-I 85 W/m 4,0 C 4,3 C 12,9 km/h (3 Bft) 97,56 %
06.11.2017 12:44 4,7 C 7,2 C 95 % 1019,2 hPa 0,0 l/m 12,9 km/h (3 Bft) W-SW 248 0 min 0,000 mm 0,0 UV-I 72 W/m 4,0 C -0,1 C 19,3 km/h (3 Bft) 98,11 %
06.11.2017 12:46 4,7 C 7,2 C 94 % 1019,2 hPa 0,0 l/m 11,6 km/h (2 Bft) W-SW 247 0 min 0,000 mm 0,0 UV-I 66 W/m 3,8 C 0,7 C 16,1 km/h (3 Bft) 96,00 %
06.11.2017 12:48 4,7 C 7,2 C 95 % 1019,1 hPa 0,0 l/m 11,2 km/h (2 Bft) SW 236 0 min 0,000 mm 0,0 UV-I 70 W/m 4,0 C 0,9 C 17,7 km/h (3 Bft) 97,37 %
06.11.2017 12:50 4,7 C 7,2 C 95 % 1019,1 hPa 0,0 l/m 11,3 km/h (2 Bft) W-SW 238 0 min 0,000 mm 0,0 UV-I 78 W/m 4,0 C 0,9 C 17,7 km/h (3 Bft) 98,00 %
06.11.2017 12:52 4,7 C 7,2 C 94 % 1019,1 hPa 0,0 l/m 10,9 km/h (2 Bft) S-SW 210 0 min 0,000 mm 0,0 UV-I 80 W/m 3,8 C 1,1 C 17,7 km/h (3 Bft) 98,00 %
06.11.2017 12:54 4,7 C 7,2 C 95 % 1019,1 hPa 0,0 l/m 6,3 km/h (2 Bft) SW 229 0 min 0,000 mm 0,0 UV-I 74 W/m 4,0 C 4,7 C 9,7 km/h (2 Bft) 98,00 %
06.11.2017 12:56 4,7 C 7,2 C 95 % 1019,1 hPa 0,0 l/m 6,2 km/h (2 Bft) W 259 0 min 0,000 mm 0,0 UV-I 64 W/m 4,0 C 4,7 C 11,3 km/h (2 Bft) 97,44 %
06.11.2017 12:58 4,7 C 7,2 C 95 % 1019,1 hPa 0,0 l/m 9,9 km/h (2 Bft) S-SO 168 0 min 0,000 mm 0,0 UV-I 56 W/m 4,0 C 1,8 C 14,5 km/h (3 Bft) 97,56 %
06.11.2017 13:00 4,7 C 7,2 C 95 % 1019,1 hPa 0,0 l/m 7,1 km/h (2 Bft) SW 217 0 min 0,025 mm 0,0 UV-I 53 W/m 4,0 C 4,1 C 12,9 km/h (3 Bft) 95,00 %
06.11.2017 13:02 4,7 C 7,2 C 95 % 1019,1 hPa 0,0 l/m 8,1 km/h (2 Bft) SW 227 0 min 0,000 mm 0,0 UV-I 53 W/m 4,0 C 3,2 C 12,9 km/h (3 Bft) 97,50 %
06.11.2017 13:04 4,7 C 7,2 C 95 % 1019,1 hPa 0,0 l/m 6,9 km/h (2 Bft) S-SW 202 0 min 0,000 mm 0,0 UV-I 56 W/m 4,0 C 4,3 C 12,9 km/h (3 Bft) 98,00 %
06.11.2017 13:06 4,7 C 7,2 C 95 % 1019,1 hPa 0,0 l/m 11,4 km/h (2 Bft) W-SW 238 0 min 0,000 mm 0,0 UV-I 61 W/m 4,0 C 0,8 C 17,7 km/h (3 Bft) 98,00 %
06.11.2017 13:08 4,7 C 7,2 C 95 % 1019,1 hPa 0,0 l/m 7,4 km/h (2 Bft) W-SW 237 0 min 0,000 mm 0,0 UV-I 63 W/m 4,0 C 3,8 C 11,3 km/h (2 Bft) 95,65 %
06.11.2017 13:10 4,7 C 7,2 C 95 % 1019,0 hPa 0,0 l/m 11,2 km/h (2 Bft) SW 229 0 min 0,000 mm 0,0 UV-I 61 W/m 4,0 C 0,9 C 16,1 km/h (3 Bft) 96,92 %
06.11.2017 13:12 4,7 C 7,2 C 95 % 1019,0 hPa 0,0 l/m 11,4 km/h (2 Bft) SW 232 0 min 0,000 mm 0,0 UV-I 55 W/m 4,0 C 0,8 C 17,7 km/h (3 Bft) 97,73 %
06.11.2017 13:14 4,7 C 7,2 C 95 % 1019,0 hPa 0,0 l/m 11,2 km/h (2 Bft) SW 217 0 min 0,000 mm 0,0 UV-I 53 W/m 4,0 C 0,9 C 17,7 km/h (3 Bft) 96,43 %
06.11.2017 13:16 4,7 C 7,2 C 95 % 1019,1 hPa 0,0 l/m 6,7 km/h (2 Bft) S-SW 198 0 min 0,000 mm 0,0 UV-I 55 W/m 4,0 C 4,4 C 11,3 km/h (2 Bft) 97,37 %
06.11.2017 13:18 4,7 C 7,2 C 95 % 1019,1 hPa 0,0 l/m 9,5 km/h (2 Bft) W-SW 249 0 min 0,000 mm 0,0 UV-I 54 W/m 4,0 C 2,1 C 16,1 km/h (3 Bft) 100,00 %
06.11.2017 13:20 4,7 C 7,2 C 95 % 1019,0 hPa 0,0 l/m 12,5 km/h (3 Bft) SW 217 0 min 0,000 mm 0,0 UV-I 56 W/m 4,0 C 0,1 C 19,3 km/h (3 Bft) 94,34 %
06.11.2017 13:22 4,7 C 7,2 C 95 % 1019,0 hPa 0,2 l/m 11,2 km/h (2 Bft) W-SW 239 0 min 0,000 mm 0,0 UV-I 55 W/m 4,0 C 0,9 C 17,7 km/h (3 Bft) 97,87 %
06.11.2017 13:24 4,7 C 7,2 C 95 % 1019,0 hPa 0,0 l/m 8,4 km/h (2 Bft) SW 216 0 min 0,000 mm 0,0 UV-I 54 W/m 4,0 C 3,0 C 14,5 km/h (3 Bft) 97,56 %
06.11.2017 13:26 4,7 C 7,2 C 95 % 1019,0 hPa 0,0 l/m 6,6 km/h (2 Bft) SW 219 0 min 0,000 mm 0,0 UV-I 56 W/m 4,0 C 4,5 C 9,7 km/h (2 Bft) 98,11 %
06.11.2017 13:28 4,7 C 7,2 C 95 % 1019,0 hPa 0,0 l/m 9,1 km/h (2 Bft) W-SW 238 0 min 0,000 mm 0,0 UV-I 56 W/m 4,0 C 2,4 C 14,5 km/h (3 Bft) 100,00 %
06.11.2017 13:30 4,7 C 7,2 C 95 % 1019,0 hPa 0,0 l/m 8,6 km/h (2 Bft) S 187 0 min 0,000 mm 0,0 UV-I 57 W/m 4,0 C 2,8 C 12,9 km/h (3 Bft) 98,11 %
06.11.2017 13:32 4,7 C 7,2 C 95 % 1019,0 hPa 0,0 l/m 6,3 km/h (2 Bft) SW 235 0 min 0,000 mm 0,0 UV-I 57 W/m 4,0 C 4,7 C 12,9 km/h (3 Bft) 100,00 %
06.11.2017 13:34 4,7 C 7,2 C 95 % 1019,0 hPa 0,0 l/m 7,7 km/h (2 Bft) S-SW 211 0 min 0,000 mm 0,0 UV-I 52 W/m 4,0 C 3,5 C 12,9 km/h (3 Bft) 98,11 %
06.11.2017 13:36 4,8 C 7,2 C 95 % 1019,1 hPa 0,0 l/m 7,5 km/h (2 Bft) S-SW 209 0 min 0,000 mm 0,0 UV-I 48 W/m 4,1 C 3,8 C 12,9 km/h (3 Bft) 98,08 %
06.11.2017 13:38 4,7 C 7,2 C 95 % 1019,0 hPa 0,0 l/m 8,9 km/h (2 Bft) W-SW 247 0 min 0,000 mm 0,0 UV-I 45 W/m 4,0 C 2,6 C 14,5 km/h (3 Bft) 100,00 %
06.11.2017 13:40 4,7 C 7,2 C 95 % 1019,0 hPa 0,0 l/m 9,8 km/h (2 Bft) SW 223 0 min 0,000 mm 0,0 UV-I 41 W/m 4,0 C 1,9 C 14,5 km/h (3 Bft) 100,00 %
06.11.2017 13:42 4,7 C 7,2 C 95 % 1019,1 hPa 0,0 l/m 5,9 km/h (2 Bft) S-SO 159 0 min 0,000 mm 0,0 UV-I 37 W/m 4,0 C 4,7 C 11,3 km/h (2 Bft) 100,00 %
06.11.2017 13:44 4,7 C 7,2 C 95 % 1019,0 hPa 0,0 l/m 9,3 km/h (2 Bft) SW 229 0 min 0,000 mm 0,0 UV-I 36 W/m 4,0 C 2,3 C 16,1 km/h (3 Bft) 100,00 %
06.11.2017 13:46 4,7 C 7,2 C 95 % 1019,1 hPa 0,0 l/m 9,9 km/h (2 Bft) W-SW 244 0 min 0,000 mm 0,0 UV-I 40 W/m 4,0 C 1,8 C 14,5 km/h (3 Bft) 100,00 %
06.11.2017 13:48 4,7 C 7,2 C 95 % 1019,1 hPa 0,0 l/m 6,2 km/h (2 Bft) W-SW 246 0 min 0,000 mm 0,0 UV-I 40 W/m 4,0 C 4,7 C 8,0 km/h (2 Bft) 98,00 %
06.11.2017 13:50 4,7 C 7,2 C 95 % 1019,2 hPa 0,0 l/m 10,6 km/h (2 Bft) S-SW 192 0 min 0,000 mm 0,0 UV-I 36 W/m 4,0 C 1,3 C 17,7 km/h (3 Bft) 97,56 %
06.11.2017 13:52 4,7 C 7,2 C 95 % 1019,3 hPa 0,0 l/m 11,4 km/h (2 Bft) S-SW 213 0 min 0,000 mm 0,0 UV-I 32 W/m 4,0 C 0,8 C 17,7 km/h (3 Bft) 100,00 %
06.11.2017 13:54 4,7 C 7,2 C 95 % 1019,3 hPa 0,0 l/m 10,5 km/h (2 Bft) S-SW 207 0 min 0,000 mm 0,0 UV-I 28 W/m 4,0 C 1,4 C 19,3 km/h (3 Bft) 100,00 %
06.11.2017 13:56 4,7 C 7,2 C 95 % 1019,3 hPa 0,0 l/m 9,8 km/h (2 Bft) SW 219 0 min 0,000 mm 0,0 UV-I 25 W/m 4,0 C 1,9 C 14,5 km/h (3 Bft) 100,00 %
06.11.2017 13:58 4,7 C 7,2 C 95 % 1019,3 hPa 0,0 l/m 10,1 km/h (2 Bft) SW 225 0 min 0,000 mm 0,0 UV-I 25 W/m 4,0 C 1,7 C 16,1 km/h (3 Bft) 97,87 %
06.11.2017 14:00 4,7 C 7,2 C 95 % 1019,2 hPa 0,0 l/m 8,7 km/h (2 Bft) W-SW 253 0 min 0,000 mm 0,0 UV-I 25 W/m 4,0 C 2,7 C 16,1 km/h (3 Bft) 100,00 %
06.11.2017 14:02 4,7 C 7,2 C 95 % 1019,2 hPa 0,0 l/m 8,5 km/h (2 Bft) SW 229 0 min 0,026 mm 0,0 UV-I 23 W/m 4,0 C 2,9 C 12,9 km/h (3 Bft) 100,00 %
06.11.2017 14:04 4,7 C 7,2 C 95 % 1019,2 hPa 0,0 l/m 6,8 km/h (2 Bft) S-SW 200 0 min 0,000 mm 0,0 UV-I 22 W/m 4,0 C 4,4 C 16,1 km/h (3 Bft) 98,11 %
06.11.2017 14:06 4,7 C 7,2 C 95 % 1019,2 hPa 0,0 l/m 7,9 km/h (2 Bft) S-SO 167 0 min 0,000 mm 0,0 UV-I 21 W/m 4,0 C 3,4 C 12,9 km/h (3 Bft) 100,00 %
06.11.2017 14:08 4,7 C 7,2 C 95 % 1019,2 hPa 0,0 l/m 8,9 km/h (2 Bft) W-SW 254 0 min 0,000 mm 0,0 UV-I 19 W/m 4,0 C 2,6 C 16,1 km/h (3 Bft) 100,00 %
06.11.2017 14:10 4,7 C 7,2 C 95 % 1019,2 hPa 0,0 l/m 8,7 km/h (2 Bft) S-SW 209 0 min 0,000 mm 0,0 UV-I 20 W/m 4,0 C 2,7 C 11,3 km/h (2 Bft) 95,45 %
06.11.2017 14:12 4,7 C 7,2 C 95 % 1019,2 hPa 0,0 l/m 8,4 km/h (2 Bft) S-SW 196 0 min 0,000 mm 0,0 UV-I 21 W/m 4,0 C 3,0 C 12,9 km/h (3 Bft) 98,21 %
06.11.2017 14:14 4,6 C 7,2 C 95 % 1019,2 hPa 0,0 l/m 11,8 km/h (2 Bft) S-SW 205 0 min 0,000 mm 0,0 UV-I 20 W/m 3,9 C 0,4 C 17,7 km/h (3 Bft) 100,00 %
06.11.2017 14:16 4,6 C 7,2 C 95 % 1019,1 hPa 0,0 l/m 12,6 km/h (3 Bft) SW 232 0 min 0,000 mm 0,0 UV-I 20 W/m 3,9 C -0,1 C 20,9 km/h (4 Bft) 100,00 %
06.11.2017 14:18 4,6 C 7,2 C 95 % 1019,0 hPa 0,0 l/m 10,1 km/h (2 Bft) W-SW 237 0 min 0,000 mm 0,0 UV-I 22 W/m 3,9 C 1,6 C 17,7 km/h (3 Bft) 96,15 %
06.11.2017 14:20 4,6 C 7,2 C 95 % 1019,1 hPa 0,0 l/m 10,3 km/h (2 Bft) S 188 0 min 0,000 mm 0,0 UV-I 23 W/m 3,9 C 1,4 C 16,1 km/h (3 Bft) 95,56 %
06.11.2017 14:22 4,6 C 7,2 C 95 % 1019,1 hPa 0,0 l/m 10,5 km/h (2 Bft) S 175 0 min 0,000 mm 0,0 UV-I 22 W/m 3,9 C 1,3 C 17,7 km/h (3 Bft) 100,00 %
06.11.2017 14:24 4,6 C 7,2 C 95 % 1019,2 hPa 0,0 l/m 10,7 km/h (2 Bft) W-SW 243 0 min 0,000 mm 0,0 UV-I 21 W/m 3,9 C 1,1 C 19,3 km/h (3 Bft) 100,00 %
06.11.2017 14:26 4,6 C 7,2 C 95 % 1019,2 hPa 0,0 l/m 12,7 km/h (3 Bft) W-SW 253 0 min 0,000 mm 0,0 UV-I 23 W/m 3,9 C -0,1 C 19,3 km/h (3 Bft) 100,00 %
06.11.2017 14:28 4,6 C 7,2 C 95 % 1019,1 hPa 0,0 l/m 11,4 km/h (2 Bft) SW 219 0 min 0,000 mm 0,0 UV-I 25 W/m 3,9 C 0,7 C 17,7 km/h (3 Bft) 98,11 %
06.11.2017 14:30 4,6 C 7,2 C 95 % 1019,1 hPa 0,0 l/m 12,7 km/h (3 Bft) SW 234 0 min 0,000 mm 0,0 UV-I 24 W/m 3,9 C -0,1 C 20,9 km/h (4 Bft) 100,00 %
06.11.2017 14:32 4,6 C 7,2 C 95 % 1019,1 hPa 0,0 l/m 10,5 km/h (2 Bft) SW 229 0 min 0,000 mm 0,0 UV-I 22 W/m 3,9 C 1,3 C 19,3 km/h (3 Bft) 100,00 %
06.11.2017 14:34 4,5 C 7,2 C 95 % 1019,2 hPa 0,0 l/m 12,7 km/h (3 Bft) W-SW 247 0 min 0,000 mm 0,0 UV-I 21 W/m 3,8 C -0,2 C 19,3 km/h (3 Bft) 96,00 %
06.11.2017 14:36 4,5 C 7,2 C 95 % 1019,3 hPa 0,0 l/m 10,6 km/h (2 Bft) SW 234 0 min 0,000 mm 0,0 UV-I 19 W/m 3,8 C 1,1 C 16,1 km/h (3 Bft) 98,21 %
06.11.2017 14:38 4,5 C 7,2 C 95 % 1019,3 hPa 0,0 l/m 10,9 km/h (2 Bft) SW 235 0 min 0,000 mm 0,0 UV-I 18 W/m 3,8 C 0,9 C 16,1 km/h (3 Bft) 95,45 %
06.11.2017 14:40 4,5 C 7,2 C 95 % 1019,4 hPa 0,0 l/m 7,6 km/h (2 Bft) W-SW 242 0 min 0,000 mm 0,0 UV-I 18 W/m 3,8 C 3,4 C 9,7 km/h (2 Bft) 97,56 %
06.11.2017 14:42 4,5 C 7,2 C 95 % 1019,4 hPa 0,0 l/m 8,1 km/h (2 Bft) SW 225 0 min 0,000 mm 0,0 UV-I 18 W/m 3,8 C 3,0 C 16,1 km/h (3 Bft) 96,00 %
06.11.2017 14:44 4,5 C 7,2 C 95 % 1019,4 hPa 0,0 l/m 7,6 km/h (2 Bft) SW 226 0 min 0,000 mm 0,0 UV-I 19 W/m 3,8 C 3,4 C 11,3 km/h (2 Bft) 97,87 %
06.11.2017 14:46 4,5 C 7,2 C 95 % 1019,3 hPa 0,0 l/m 9,9 km/h (2 Bft) S-SW 211 0 min 0,000 mm 0,0 UV-I 20 W/m 3,8 C 1,6 C 16,1 km/h (3 Bft) 95,12 %
06.11.2017 14:48 4,4 C 7,2 C 95 % 1019,3 hPa 0,0 l/m 8,1 km/h (2 Bft) W-SW 250 0 min 0,000 mm 0,0 UV-I 21 W/m 3,7 C 2,9 C 16,1 km/h (3 Bft) 92,45 %
06.11.2017 14:50 4,4 C 7,2 C 95 % 1019,3 hPa 0,0 l/m 10,7 km/h (2 Bft) W-SW 244 0 min 0,000 mm 0,0 UV-I 21 W/m 3,7 C 0,9 C 16,1 km/h (3 Bft) 95,24 %
06.11.2017 14:52 4,4 C 7,2 C 96 % 1019,2 hPa 0,0 l/m 10,5 km/h (2 Bft) W-SW 242 0 min 0,000 mm 0,0 UV-I 21 W/m 3,8 C 1,1 C 16,1 km/h (3 Bft) 95,92 %
06.11.2017 14:54 4,4 C 7,2 C 96 % 1019,3 hPa 0,0 l/m 8,9 km/h (2 Bft) S-SW 203 0 min 0,000 mm 0,0 UV-I 19 W/m 3,8 C 2,2 C 16,1 km/h (3 Bft) 96,08 %
06.11.2017 14:56 4,4 C 7,2 C 96 % 1019,4 hPa 0,0 l/m 10,4 km/h (2 Bft) S-SW 202 0 min 0,000 mm 0,0 UV-I 18 W/m 3,8 C 1,1 C 17,7 km/h (3 Bft) 95,12 %
06.11.2017 14:58 4,4 C 7,2 C 96 % 1019,5 hPa 0,0 l/m 6,5 km/h (2 Bft) W-SW 245 0 min 0,000 mm 0,0 UV-I 18 W/m 3,8 C 4,3 C 11,3 km/h (2 Bft) 92,45 %
06.11.2017 15:00 4,4 C 7,2 C 96 % 1019,5 hPa 0,0 l/m 8,9 km/h (2 Bft) SW 217 0 min 0,000 mm 0,0 UV-I 16 W/m 3,8 C 2,2 C 14,5 km/h (3 Bft) 96,00 %
06.11.2017 15:02 4,4 C 7,2 C 96 % 1019,6 hPa 0,0 l/m 10,4 km/h (2 Bft) S-SW 197 0 min 0,000 mm 0,0 UV-I 16 W/m 3,8 C 1,1 C 16,1 km/h (3 Bft) 92,11 %
06.11.2017 15:04 4,4 C 7,2 C 95 % 1019,5 hPa 0,0 l/m 10,5 km/h (2 Bft) SW 214 0 min 0,000 mm 0,0 UV-I 15 W/m 3,7 C 1,1 C 16,1 km/h (3 Bft) 90,00 %
06.11.2017 15:06 4,4 C 7,2 C 96 % 1019,5 hPa 0,0 l/m 9,0 km/h (2 Bft) W 260 0 min 0,000 mm 0,0 UV-I 14 W/m 3,8 C 2,2 C 12,9 km/h (3 Bft) 96,00 %
06.11.2017 15:10 4,4 C 7,2 C 95 % 1019,6 hPa 0,0 l/m 9,7 km/h (2 Bft) S-SW 202 0 min 0,000 mm 0,0 UV-I 14 W/m 3,7 C 1,6 C 16,1 km/h (3 Bft) 98,25 %
06.11.2017 15:14 4,4 C 7,2 C 96 % 1019,6 hPa 0,0 l/m 7,5 km/h (2 Bft) S-SW 201 0 min 0,000 mm 0,0 UV-I 13 W/m 3,8 C 3,4 C 9,7 km/h (2 Bft) 94,59 %
06.11.2017 15:16 4,4 C 7,2 C 96 % 1019,6 hPa 0,0 l/m 8,9 km/h (2 Bft) SW 215 0 min 0,000 mm 0,0 UV-I 12 W/m 3,8 C 2,2 C 16,1 km/h (3 Bft) 92,00 %
06.11.2017 15:18 4,4 C 7,2 C 96 % 1019,6 hPa 0,0 l/m 7,1 km/h (2 Bft) S 176 0 min 0,000 mm 0,0 UV-I 12 W/m 3,8 C 3,8 C 12,9 km/h (3 Bft) 84,21 %
06.11.2017 15:20 4,4 C 7,2 C 96 % 1019,6 hPa 0,0 l/m 8,8 km/h (2 Bft) SW 235 0 min 0,000 mm 0,0 UV-I 12 W/m 3,8 C 2,3 C 19,3 km/h (3 Bft) 95,83 %
06.11.2017 15:22 4,4 C 7,2 C 96 % 1019,6 hPa 0,0 l/m 9,0 km/h (2 Bft) SW 231 0 min 0,000 mm 0,0 UV-I 12 W/m 3,8 C 2,2 C 12,9 km/h (3 Bft) 96,00 %
06.11.2017 15:24 4,4 C 7,2 C 96 % 1019,6 hPa 0,2 l/m 8,4 km/h (2 Bft) SW 227 0 min 0,000 mm 0,0 UV-I 12 W/m 3,8 C 2,6 C 14,5 km/h (3 Bft) 98,11 %
06.11.2017 15:26 4,4 C 7,2 C 96 % 1019,7 hPa 0,0 l/m 7,4 km/h (2 Bft) W-SW 238 0 min 0,000 mm 0,0 UV-I 12 W/m 3,8 C 3,5 C 12,9 km/h (3 Bft) 97,62 %
06.11.2017 15:28 4,4 C 7,2 C 96 % 1019,8 hPa 0,0 l/m 8,6 km/h (2 Bft) S-SW 201 0 min 0,000 mm 0,0 UV-I 11 W/m 3,8 C 2,5 C 12,9 km/h (3 Bft) 95,12 %
06.11.2017 15:30 4,4 C 7,2 C 96 % 1019,8 hPa 0,0 l/m 9,5 km/h (2 Bft) S-SW 196 0 min 0,000 mm 0,0 UV-I 11 W/m 3,8 C 1,8 C 16,1 km/h (3 Bft) 97,87 %
06.11.2017 15:32 4,4 C 7,2 C 95 % 1019,8 hPa 0,0 l/m 7,1 km/h (2 Bft) W-SW 244 0 min 0,000 mm 0,0 UV-I 11 W/m 3,7 C 3,8 C 11,3 km/h (2 Bft) 94,34 %
06.11.2017 15:34 4,4 C 7,2 C 95 % 1019,8 hPa 0,0 l/m 9,9 km/h (2 Bft) SW 224 0 min 0,000 mm 0,0 UV-I 12 W/m 3,7 C 1,5 C 16,1 km/h (3 Bft) 96,15 %
06.11.2017 15:36 4,4 C 7,2 C 95 % 1019,8 hPa 0,2 l/m 8,7 km/h (2 Bft) SW 216 0 min 0,000 mm 0,0 UV-I 11 W/m 3,7 C 2,4 C 14,5 km/h (3 Bft) 98,39 %
06.11.2017 15:38 4,4 C 7,2 C 96 % 1019,9 hPa 0,0 l/m 7,8 km/h (2 Bft) S-SW 197 0 min 0,000 mm 0,0 UV-I 11 W/m 3,8 C 3,1 C 11,3 km/h (2 Bft) 100,00 %
06.11.2017 15:40 4,4 C 7,2 C 96 % 1019,9 hPa 0,0 l/m 7,9 km/h (2 Bft) S-SW 202 0 min 0,000 mm 0,0 UV-I 11 W/m 3,8 C 3,1 C 14,5 km/h (3 Bft) 97,73 %
06.11.2017 15:42 4,4 C 7,2 C 96 % 1019,9 hPa 0,0 l/m 9,1 km/h (2 Bft) S-SW 208 0 min 0,000 mm 0,0 UV-I 11 W/m 3,8 C 2,1 C 16,1 km/h (3 Bft) 100,00 %
06.11.2017 15:44 4,4 C 7,2 C 96 % 1019,9 hPa 0,0 l/m 9,6 km/h (2 Bft) SW 232 0 min 0,000 mm 0,0 UV-I 11 W/m 3,8 C 1,7 C 14,5 km/h (3 Bft) 98,11 %
06.11.2017 15:46 4,4 C 7,2 C 96 % 1019,9 hPa 0,0 l/m 9,2 km/h (2 Bft) S-SW 211 0 min 0,000 mm 0,0 UV-I 11 W/m 3,8 C 2,0 C 14,5 km/h (3 Bft) 100,00 %
06.11.2017 15:48 4,4 C 7,2 C 96 % 1019,9 hPa 0,0 l/m 7,9 km/h (2 Bft) S-SW 211 0 min 0,000 mm 0,0 UV-I 11 W/m 3,8 C 3,1 C 12,9 km/h (3 Bft) 98,00 %
06.11.2017 15:50 4,4 C 7,2 C 96 % 1020,0 hPa 0,2 l/m 9,9 km/h (2 Bft) S-SW 206 0 min 0,000 mm 0,0 UV-I 11 W/m 3,8 C 1,5 C 12,9 km/h (3 Bft) 100,00 %
06.11.2017 15:53 4,3 C 7,2 C 96 % 1020,1 hPa 0,0 l/m 10,9 km/h (2 Bft) SW 227 0 min 0,000 mm 0,0 UV-I 11 W/m 3,7 C 0,7 C 16,1 km/h (3 Bft) 100,00 %
06.11.2017 15:54 4,3 C 7,2 C 96 % 1020,1 hPa 0,0 l/m 13,3 km/h (3 Bft) SW 225 0 min 0,000 mm 0,0 UV-I 11 W/m 3,7 C -0,8 C 17,7 km/h (3 Bft) 100,00 %
06.11.2017 15:56 4,3 C 7,2 C 96 % 1020,0 hPa 0,2 l/m 9,8 km/h (2 Bft) S-SW 210 0 min 0,000 mm 0,0 UV-I 11 W/m 3,7 C 1,4 C 14,5 km/h (3 Bft) 100,00 %
06.11.2017 15:58 4,3 C 7,2 C 96 % 1020,0 hPa 0,0 l/m 10,9 km/h (2 Bft) SW 234 0 min 0,000 mm 0,0 UV-I 11 W/m 3,7 C 0,7 C 14,5 km/h (3 Bft) 100,00 %
06.11.2017 16:00 4,3 C 7,2 C 96 % 1020,0 hPa 0,0 l/m 7,6 km/h (2 Bft) S-SW 201 0 min 0,000 mm 0,0 UV-I 12 W/m 3,7 C 3,2 C 11,3 km/h (2 Bft) 100,00 %
06.11.2017 16:02 4,3 C 7,2 C 96 % 1020,0 hPa 0,0 l/m 9,2 km/h (2 Bft) S-SW 208 0 min 0,000 mm 0,0 UV-I 12 W/m 3,7 C 1,9 C 14,5 km/h (3 Bft) 100,00 %
06.11.2017 16:04 4,3 C 7,2 C 96 % 1020,1 hPa 0,0 l/m 9,3 km/h (2 Bft) S-SW 196 0 min 0,000 mm 0,0 UV-I 11 W/m 3,7 C 1,8 C 12,9 km/h (3 Bft) 97,87 %
06.11.2017 16:06 4,3 C 7,2 C 96 % 1020,1 hPa 0,0 l/m 7,6 km/h (2 Bft) SW 222 0 min 0,000 mm 0,0 UV-I 11 W/m 3,7 C 3,2 C 12,9 km/h (3 Bft) 100,00 %
06.11.2017 16:08 4,3 C 7,2 C 96 % 1020,1 hPa 0,0 l/m 7,0 km/h (2 Bft) W-SW 240 0 min 0,000 mm 0,0 UV-I 11 W/m 3,7 C 3,8 C 9,7 km/h (2 Bft) 97,73 %
06.11.2017 16:10 4,3 C 7,2 C 96 % 1020,1 hPa 0,2 l/m 7,2 km/h (2 Bft) SW 229 0 min 0,000 mm 0,0 UV-I 11 W/m 3,7 C 3,6 C 11,3 km/h (2 Bft) 100,00 %
06.11.2017 16:12 4,3 C 7,2 C 96 % 1020,1 hPa 0,0 l/m 7,2 km/h (2 Bft) S-SW 204 0 min 0,000 mm 0,0 UV-I 9 W/m 3,7 C 3,6 C 9,7 km/h (2 Bft) 100,00 %
06.11.2017 16:14 4,3 C 7,2 C 96 % 1020,0 hPa 0,0 l/m 7,2 km/h (2 Bft) S-SW 192 0 min 0,000 mm 0,0 UV-I 8 W/m 3,7 C 3,6 C 14,5 km/h (3 Bft) 100,00 %
06.11.2017 16:16 4,3 C 7,2 C 96 % 1020,1 hPa 0,0 l/m 8,4 km/h (2 Bft) S-SW 209 0 min 0,000 mm 0,0 UV-I 7 W/m 3,7 C 2,5 C 14,5 km/h (3 Bft) 98,11 %
06.11.2017 16:18 4,3 C 7,2 C 96 % 1020,1 hPa 0,0 l/m 8,2 km/h (2 Bft) S-SW 202 0 min 0,000 mm 0,0 UV-I 7 W/m 3,7 C 2,7 C 12,9 km/h (3 Bft) 100,00 %
06.11.2017 16:20 4,3 C 7,2 C 96 % 1020,2 hPa 0,0 l/m 8,2 km/h (2 Bft) S-SW 207 0 min 0,000 mm 0,0 UV-I 7 W/m 3,7 C 2,7 C 12,9 km/h (3 Bft) 100,00 %
06.11.2017 16:22 4,3 C 7,2 C 96 % 1020,1 hPa 0,0 l/m 8,9 km/h (2 Bft) SW 230 0 min 0,000 mm 0,0 UV-I 5 W/m 3,7 C 2,1 C 12,9 km/h (3 Bft) 100,00 %
06.11.2017 16:24 4,3 C 7,2 C 96 % 1020,1 hPa 0,0 l/m 10,7 km/h (2 Bft) S-SW 213 0 min 0,000 mm 0,0 UV-I 5 W/m 3,7 C 0,8 C 14,5 km/h (3 Bft) 100,00 %
06.11.2017 16:26 4,3 C 7,2 C 96 % 1020,1 hPa 0,2 l/m 10,5 km/h (2 Bft) SW 235 0 min 0,000 mm 0,0 UV-I 5 W/m 3,7 C 0,9 C 16,1 km/h (3 Bft) 100,00 %
06.11.2017 16:28 4,3 C 7,2 C 96 % 1020,1 hPa 0,0 l/m 10,3 km/h (2 Bft) S-SW 210 0 min 0,000 mm 0,0 UV-I 5 W/m 3,7 C 1,1 C 14,5 km/h (3 Bft) 100,00 %
06.11.2017 16:30 4,3 C 7,2 C 96 % 1020,1 hPa 0,0 l/m 7,9 km/h (2 Bft) SW 217 0 min 0,000 mm 0,0 UV-I 5 W/m 3,7 C 3,0 C 11,3 km/h (2 Bft) 100,00 %
06.11.2017 16:32 4,3 C 7,2 C 96 % 1020,1 hPa 0,0 l/m 7,7 km/h (2 Bft) S-SW 200 0 min 0,000 mm 0,0 UV-I 5 W/m 3,7 C 3,1 C 11,3 km/h (2 Bft) 100,00 %
06.11.2017 16:34 4,3 C 7,2 C 96 % 1020,3 hPa 0,0 l/m 8,0 km/h (2 Bft) SW 227 0 min 0,000 mm 0,0 UV-I 3 W/m 3,7 C 2,9 C 12,9 km/h (3 Bft) 100,00 %
06.11.2017 16:36 4,3 C 7,2 C 96 % 1020,2 hPa 0,0 l/m 7,9 km/h (2 Bft) S-SW 195 0 min 0,000 mm 0,0 UV-I 0 W/m 3,7 C 3,0 C 11,3 km/h (2 Bft) 100,00 %
06.11.2017 16:38 4,3 C 7,2 C 96 % 1020,3 hPa 0,2 l/m 8,4 km/h (2 Bft) S-SW 205 0 min 0,000 mm 0,0 UV-I 0 W/m 3,7 C 2,5 C 14,5 km/h (3 Bft) 100,00 %
06.11.2017 16:40 4,3 C 7,2 C 96 % 1020,3 hPa 0,0 l/m 8,8 km/h (2 Bft) S-SW 198 0 min 0,000 mm 0,0 UV-I 0 W/m 3,7 C 2,2 C 14,5 km/h (3 Bft) 96,72 %
06.11.2017 16:42 4,3 C 7,2 C 96 % 1020,4 hPa 0,0 l/m 7,0 km/h (2 Bft) S-SW 203 0 min 0,000 mm 0,0 UV-I 0 W/m 3,7 C 3,8 C 12,9 km/h (3 Bft) 100,00 %
06.11.2017 16:44 4,3 C 7,2 C 96 % 1020,3 hPa 0,0 l/m 10,0 km/h (2 Bft) W-SW 243 0 min 0,000 mm 0,0 UV-I 0 W/m 3,7 C 1,3 C 16,1 km/h (3 Bft) 100,00 %
06.11.2017 16:46 4,3 C 7,2 C 96 % 1020,4 hPa 0,0 l/m 7,8 km/h (2 Bft) S-SW 208 0 min 0,000 mm 0,0 UV-I 0 W/m 3,7 C 3,0 C 12,9 km/h (3 Bft) 100,00 %
06.11.2017 16:48 4,3 C 7,2 C 96 % 1020,4 hPa 0,0 l/m 7,6 km/h (2 Bft) SW 230 0 min 0,000 mm 0,0 UV-I 0 W/m 3,7 C 3,2 C 14,5 km/h (3 Bft) 98,00 %
06.11.2017 16:50 4,3 C 7,2 C 96 % 1020,4 hPa 0,2 l/m 7,8 km/h (2 Bft) S-SW 204 0 min 0,000 mm 0,0 UV-I 0 W/m 3,7 C 3,0 C 12,9 km/h (3 Bft) 96,23 %
06.11.2017 16:52 4,3 C 7,2 C 96 % 1020,4 hPa 0,0 l/m 7,4 km/h (2 Bft) W-SW 251 0 min 0,000 mm 0,0 UV-I 0 W/m 3,7 C 3,4 C 14,5 km/h (3 Bft) 97,73 %
06.11.2017 16:54 4,3 C 7,2 C 96 % 1020,5 hPa 0,0 l/m 10,3 km/h (2 Bft) SW 221 0 min 0,000 mm 0,0 UV-I 0 W/m 3,7 C 1,1 C 16,1 km/h (3 Bft) 97,56 %
06.11.2017 16:56 4,2 C 7,2 C 96 % 1020,5 hPa 0,0 l/m 7,2 km/h (2 Bft) SW 215 0 min 0,000 mm 0,0 UV-I 0 W/m 3,6 C 3,5 C 11,3 km/h (2 Bft) 96,00 %
06.11.2017 16:58 4,2 C 7,2 C 96 % 1020,5 hPa 0,0 l/m 7,7 km/h (2 Bft) SW 230 0 min 0,000 mm 0,0 UV-I 0 W/m 3,6 C 3,0 C 12,9 km/h (3 Bft) 97,56 %
06.11.2017 17:00 4,3 C 7,2 C 96 % 1020,5 hPa 0,0 l/m 7,5 km/h (2 Bft) S-SW 213 0 min 0,000 mm 0,0 UV-I 0 W/m 3,7 C 3,3 C 14,5 km/h (3 Bft) 98,00 %
06.11.2017 17:02 4,3 C 7,2 C 96 % 1020,5 hPa 0,0 l/m 7,5 km/h (2 Bft) S-SW 201 0 min 0,000 mm 0,0 UV-I 0 W/m 3,7 C 3,3 C 11,3 km/h (2 Bft) 97,56 %
06.11.2017 17:04 4,3 C 7,2 C 96 % 1020,5 hPa 0,0 l/m 7,5 km/h (2 Bft) SW 232 0 min 0,000 mm 0,0 UV-I 0 W/m 3,7 C 3,3 C 11,3 km/h (2 Bft) 96,23 %
06.11.2017 17:06 4,3 C 7,2 C 96 % 1020,6 hPa 0,2 l/m 7,2 km/h (2 Bft) SW 229 0 min 0,000 mm 0,0 UV-I 0 W/m 3,7 C 3,6 C 11,3 km/h (2 Bft) 96,00 %
06.11.2017 17:08 4,2 C 7,2 C 96 % 1020,6 hPa 0,0 l/m 7,1 km/h (2 Bft) W-SW 248 0 min 0,000 mm 0,0 UV-I 0 W/m 3,6 C 3,6 C 11,3 km/h (2 Bft) 95,74 %
06.11.2017 17:10 4,2 C 7,2 C 96 % 1020,5 hPa 0,0 l/m 11,0 km/h (2 Bft) SW 235 0 min 0,000 mm 0,0 UV-I 0 W/m 3,6 C 0,5 C 17,7 km/h (3 Bft) 97,73 %
06.11.2017 17:12 4,2 C 7,2 C 96 % 1020,5 hPa 0,0 l/m 10,5 km/h (2 Bft) SW 234 0 min 0,000 mm 0,0 UV-I 0 W/m 3,6 C 0,8 C 14,5 km/h (3 Bft) 96,23 %
06.11.2017 17:14 4,2 C 7,2 C 96 % 1020,5 hPa 0,0 l/m 7,4 km/h (2 Bft) SW 214 0 min 0,000 mm 0,0 UV-I 0 W/m 3,6 C 3,3 C 12,9 km/h (3 Bft) 95,45 %
06.11.2017 17:16 4,2 C 7,2 C 96 % 1020,6 hPa 0,2 l/m 8,7 km/h (2 Bft) SW 231 0 min 0,000 mm 0,0 UV-I 0 W/m 3,6 C 2,2 C 12,9 km/h (3 Bft) 92,00 %
06.11.2017 17:18 4,2 C 7,2 C 96 % 1020,6 hPa 0,0 l/m 7,1 km/h (2 Bft) SW 229 0 min 0,000 mm 0,0 UV-I 0 W/m 3,6 C 3,6 C 11,3 km/h (2 Bft) 100,00 %
06.11.2017 17:20 4,2 C 7,2 C 96 % 1020,6 hPa 0,0 l/m 10,6 km/h (2 Bft) SW 227 0 min 0,000 mm 0,0 UV-I 0 W/m 3,6 C 0,8 C 17,7 km/h (3 Bft) 96,00 %
06.11.2017 17:22 4,2 C 7,2 C 96 % 1020,6 hPa 0,0 l/m 9,1 km/h (2 Bft) SW 226 0 min 0,000 mm 0,0 UV-I 0 W/m 3,6 C 1,9 C 12,9 km/h (3 Bft) 100,00 %
06.11.2017 17:24 4,2 C 7,2 C 96 % 1020,6 hPa 0,0 l/m 7,9 km/h (2 Bft) S 178 0 min 0,000 mm 0,0 UV-I 0 W/m 3,6 C 2,8 C 11,3 km/h (2 Bft) 97,14 %
06.11.2017 17:26 4,2 C 7,2 C 96 % 1020,7 hPa 0,2 l/m 8,6 km/h (2 Bft) S-SW 202 0 min 0,000 mm 0,0 UV-I 0 W/m 3,6 C 2,3 C 12,9 km/h (3 Bft) 97,62 %
06.11.2017 17:28 4,2 C 7,2 C 96 % 1020,7 hPa 0,0 l/m 9,0 km/h (2 Bft) SW 226 0 min 0,000 mm 0,0 UV-I 0 W/m 3,6 C 1,9 C 12,9 km/h (3 Bft) 98,11 %
06.11.2017 17:30 4,2 C 7,2 C 96 % 1020,7 hPa 0,0 l/m 7,6 km/h (2 Bft) SW 235 0 min 0,000 mm 0,0 UV-I 0 W/m 3,6 C 3,1 C 11,3 km/h (2 Bft) 100,00 %
06.11.2017 17:32 4,2 C 7,2 C 96 % 1020,7 hPa 0,0 l/m 8,6 km/h (2 Bft) SW 214 0 min 0,000 mm 0,0 UV-I 0 W/m 3,6 C 2,3 C 12,9 km/h (3 Bft) 100,00 %
06.11.2017 17:34 4,1 C 7,2 C 96 % 1020,8 hPa 0,2 l/m 7,2 km/h (2 Bft) S-SW 202 0 min 0,000 mm 0,0 UV-I 0 W/m 3,5 C 3,4 C 11,3 km/h (2 Bft) 95,74 %
06.11.2017 17:36 4,1 C 7,2 C 96 % 1020,7 hPa 0,0 l/m 7,1 km/h (2 Bft) S-SW 196 0 min 0,000 mm 0,0 UV-I 0 W/m 3,5 C 3,5 C 12,9 km/h (3 Bft) 96,15 %
06.11.2017 17:38 4,1 C 7,2 C 96 % 1020,7 hPa 0,0 l/m 7,5 km/h (2 Bft) S-SW 213 0 min 0,000 mm 0,0 UV-I 0 W/m 3,5 C 3,1 C 16,1 km/h (3 Bft) 97,37 %
06.11.2017 17:40 4,1 C 7,2 C 96 % 1020,7 hPa 0,2 l/m 6,9 km/h (2 Bft) S-SW 195 0 min 0,000 mm 0,0 UV-I 0 W/m 3,5 C 3,7 C 14,5 km/h (3 Bft) 96,23 %
06.11.2017 17:42 4,0 C 7,2 C 96 % 1020,8 hPa 0,0 l/m 7,0 km/h (2 Bft) S 186 0 min 0,000 mm 0,0 UV-I 0 W/m 3,4 C 3,5 C 14,5 km/h (3 Bft) 100,00 %
06.11.2017 17:44 4,0 C 7,2 C 96 % 1020,8 hPa 0,0 l/m 10,0 km/h (2 Bft) SW 215 0 min 0,000 mm 0,0 UV-I 0 W/m 3,4 C 1,0 C 16,1 km/h (3 Bft) 100,00 %
06.11.2017 17:46 3,9 C 7,2 C 96 % 1020,8 hPa 0,2 l/m 9,0 km/h (2 Bft) S-SW 207 0 min 0,000 mm 0,0 UV-I 0 W/m 3,3 C 1,6 C 12,9 km/h (3 Bft) 100,00 %
06.11.2017 17:48 3,9 C 7,2 C 96 % 1020,8 hPa 0,0 l/m 10,5 km/h (2 Bft) S-SW 200 0 min 0,000 mm 0,0 UV-I 0 W/m 3,3 C 0,5 C 19,3 km/h (3 Bft) 100,00 %
06.11.2017 17:50 3,9 C 7,2 C 96 % 1020,9 hPa 0,0 l/m 9,9 km/h (2 Bft) S-SW 208 0 min 0,000 mm 0,0 UV-I 0 W/m 3,3 C 0,9 C 19,3 km/h (3 Bft) 100,00 %
06.11.2017 17:52 3,9 C 7,2 C 96 % 1020,9 hPa 0,0 l/m 9,5 km/h (2 Bft) SW 219 0 min 0,000 mm 0,0 UV-I 0 W/m 3,3 C 1,2 C 17,7 km/h (3 Bft) 100,00 %
06.11.2017 17:54 3,9 C 7,2 C 96 % 1020,8 hPa 0,0 l/m 9,8 km/h (2 Bft) S-SW 206 0 min 0,000 mm 0,0 UV-I 0 W/m 3,3 C 1,0 C 14,5 km/h (3 Bft) 100,00 %
06.11.2017 17:56 3,9 C 7,2 C 96 % 1020,9 hPa 0,2 l/m 11,4 km/h (2 Bft) S-SW 198 0 min 0,000 mm 0,0 UV-I 0 W/m 3,3 C -0,1 C 22,5 km/h (4 Bft) 98,11 %
06.11.2017 17:58 3,9 C 7,2 C 96 % 1020,9 hPa 0,0 l/m 12,3 km/h (3 Bft) S-SW 208 0 min 0,000 mm 0,0 UV-I 0 W/m 3,3 C -0,7 C 17,7 km/h (3 Bft) 100,00 %
06.11.2017 18:00 3,9 C 7,2 C 96 % 1020,9 hPa 0,0 l/m 9,4 km/h (2 Bft) S-SW 204 0 min 0,000 mm 0,0 UV-I 0 W/m 3,3 C 1,3 C 14,5 km/h (3 Bft) 100,00 %
06.11.2017 18:02 3,9 C 7,2 C 96 % 1020,9 hPa 0,0 l/m 4,7 km/h (1 Bft) S-SW 208 0 min 0,000 mm 0,0 UV-I 0 W/m 3,3 C 3,9 C 8,0 km/h (2 Bft) 100,00 %
06.11.2017 18:04 3,9 C 7,2 C 96 % 1020,9 hPa 0,2 l/m 9,8 km/h (2 Bft) SW 215 0 min 0,000 mm 0,0 UV-I 0 W/m 3,3 C 1,0 C 14,5 km/h (3 Bft) 100,00 %
06.11.2017 18:06 3,9 C 7,2 C 96 % 1021,0 hPa 0,0 l/m 10,1 km/h (2 Bft) W-SW 239 0 min 0,000 mm 0,0 UV-I 0 W/m 3,3 C 0,8 C 14,5 km/h (3 Bft) 100,00 %
06.11.2017 18:08 3,8 C 7,2 C 96 % 1021,0 hPa 0,0 l/m 8,9 km/h (2 Bft) S-SW 197 0 min 0,000 mm 0,0 UV-I 0 W/m 3,2 C 1,6 C 14,5 km/h (3 Bft) 97,37 %
06.11.2017 18:10 3,8 C 7,2 C 96 % 1021,0 hPa 0,0 l/m 10,2 km/h (2 Bft) SW 214 0 min 0,000 mm 0,0 UV-I 0 W/m 3,2 C 0,6 C 14,5 km/h (3 Bft) 100,00 %
06.11.2017 18:12 3,8 C 7,2 C 96 % 1021,0 hPa 0,0 l/m 9,9 km/h (2 Bft) S-SW 210 0 min 0,000 mm 0,0 UV-I 0 W/m 3,2 C 0,8 C 14,5 km/h (3 Bft) 100,00 %
06.11.2017 18:14 3,8 C 7,2 C 96 % 1021,1 hPa 0,0 l/m 12,8 km/h (3 Bft) SW 223 0 min 0,000 mm 0,0 UV-I 0 W/m 3,2 C -1,1 C 17,7 km/h (3 Bft) 100,00 %
06.11.2017 18:16 3,8 C 7,2 C 96 % 1021,1 hPa 0,0 l/m 10,1 km/h (2 Bft) S-SW 206 0 min 0,000 mm 0,0 UV-I 0 W/m 3,2 C 0,7 C 14,5 km/h (3 Bft) 100,00 %
06.11.2017 18:18 3,8 C 7,2 C 96 % 1021,2 hPa 0,2 l/m 7,5 km/h (2 Bft) S 187 0 min 0,000 mm 0,0 UV-I 0 W/m 3,2 C 2,8 C 12,9 km/h (3 Bft) 97,87 %
06.11.2017 18:20 3,8 C 7,2 C 96 % 1021,2 hPa 0,0 l/m 7,8 km/h (2 Bft) S 175 0 min 0,000 mm 0,0 UV-I 0 W/m 3,2 C 2,5 C 12,9 km/h (3 Bft) 94,34 %
06.11.2017 18:22 3,8 C 7,2 C 96 % 1021,3 hPa 0,0 l/m 6,0 km/h (2 Bft) S-SW 195 0 min 0,000 mm 0,0 UV-I 0 W/m 3,2 C 3,8 C 14,5 km/h (3 Bft) 100,00 %
06.11.2017 18:24 3,8 C 7,2 C 96 % 1021,2 hPa 0,0 l/m 6,5 km/h (2 Bft) SW 219 0 min 0,000 mm 0,0 UV-I 0 W/m 3,2 C 3,7 C 12,9 km/h (3 Bft) 96,55 %
06.11.2017 18:26 3,8 C 7,2 C 96 % 1021,2 hPa 0,2 l/m 1,7 km/h (1 Bft) SW 220 0 min 0,000 mm 0,0 UV-I 0 W/m 3,2 C 3,8 C 6,4 km/h (2 Bft) 95,38 %
06.11.2017 18:28 3,8 C 7,2 C 96 % 1021,2 hPa 0,0 l/m 7,2 km/h (2 Bft) S-SW 200 0 min 0,000 mm 0,0 UV-I 0 W/m 3,2 C 3,1 C 12,9 km/h (3 Bft) 98,00 %
06.11.2017 18:30 3,8 C 7,2 C 96 % 1021,2 hPa 0,0 l/m 9,9 km/h (2 Bft) W-SW 238 0 min 0,000 mm 0,0 UV-I 0 W/m 3,2 C 0,8 C 19,3 km/h (3 Bft) 94,74 %
06.11.2017 18:32 3,8 C 7,2 C 96 % 1021,3 hPa 0,0 l/m 9,8 km/h (2 Bft) SW 216 0 min 0,000 mm 0,0 UV-I 0 W/m 3,2 C 0,9 C 12,9 km/h (3 Bft) 98,00 %
06.11.2017 18:34 3,8 C 7,2 C 96 % 1021,2 hPa 0,0 l/m 11,2 km/h (2 Bft) W-SW 257 0 min 0,000 mm 0,0 UV-I 0 W/m 3,2 C -0,1 C 14,5 km/h (3 Bft) 96,43 %
06.11.2017 18:36 3,8 C 7,2 C 96 % 1021,3 hPa 0,0 l/m 9,4 km/h (2 Bft) S-SW 209 0 min 0,000 mm 0,0 UV-I 0 W/m 3,2 C 1,2 C 12,9 km/h (3 Bft) 95,45 %
06.11.2017 18:38 3,8 C 7,2 C 96 % 1021,3 hPa 0,0 l/m 9,4 km/h (2 Bft) SW 214 0 min 0,000 mm 0,0 UV-I 0 W/m 3,2 C 1,2 C 12,9 km/h (3 Bft) 97,44 %
06.11.2017 18:40 3,8 C 7,2 C 96 % 1021,3 hPa 0,2 l/m 8,2 km/h (2 Bft) S-SW 212 0 min 0,000 mm 0,0 UV-I 0 W/m 3,2 C 2,2 C 12,9 km/h (3 Bft) 96,36 %
06.11.2017 18:42 3,8 C 7,2 C 96 % 1021,4 hPa 0,0 l/m 2,1 km/h (1 Bft) S-SW 207 0 min 0,000 mm 0,0 UV-I 0 W/m 3,2 C 3,8 C 9,7 km/h (2 Bft) 97,62 %
06.11.2017 18:44 3,8 C 7,2 C 96 % 1021,4 hPa 0,0 l/m 2,6 km/h (1 Bft) S-SO 147 0 min 0,000 mm 0,0 UV-I 0 W/m 3,2 C 3,8 C 6,4 km/h (2 Bft) 98,00 %
06.11.2017 18:46 3,8 C 7,2 C 96 % 1021,4 hPa 0,0 l/m 3,6 km/h (1 Bft) S-SO 163 0 min 0,000 mm 0,0 UV-I 0 W/m 3,2 C 3,8 C 8,0 km/h (2 Bft) 97,56 %
06.11.2017 18:48 3,8 C 7,2 C 96 % 1021,4 hPa 0,0 l/m 2,2 km/h (1 Bft) S 173 0 min 0,000 mm 0,0 UV-I 0 W/m 3,2 C 3,8 C 6,4 km/h (2 Bft) 94,00 %
06.11.2017 18:50 3,8 C 7,2 C 96 % 1021,4 hPa 0,2 l/m 5,4 km/h (1 Bft) S 184 0 min 0,000 mm 0,0 UV-I 0 W/m 3,2 C 3,8 C 11,3 km/h (2 Bft) 97,73 %
06.11.2017 18:52 3,8 C 7,2 C 96 % 1021,4 hPa 0,0 l/m 6,6 km/h (2 Bft) W-SW 238 0 min 0,000 mm 0,0 UV-I 0 W/m 3,2 C 3,6 C 12,9 km/h (3 Bft) 98,21 %
06.11.2017 18:54 3,8 C 7,2 C 96 % 1021,4 hPa 0,0 l/m 6,4 km/h (2 Bft) SW 229 0 min 0,000 mm 0,0 UV-I 0 W/m 3,2 C 3,8 C 11,3 km/h (2 Bft) 95,45 %
06.11.2017 18:56 3,8 C 7,2 C 96 % 1021,5 hPa 0,0 l/m 5,3 km/h (1 Bft) SW 223 0 min 0,000 mm 0,0 UV-I 0 W/m 3,2 C 3,8 C 8,0 km/h (2 Bft) 95,12 %
06.11.2017 18:58 3,7 C 7,2 C 96 % 1021,5 hPa 0,0 l/m 8,2 km/h (2 Bft) S-SW 211 0 min 0,000 mm 0,0 UV-I 0 W/m 3,1 C 2,1 C 12,9 km/h (3 Bft) 94,00 %
06.11.2017 19:00 3,7 C 7,2 C 96 % 1021,5 hPa 0,0 l/m 6,1 km/h (2 Bft) S-SW 194 0 min 0,000 mm 0,0 UV-I 0 W/m 3,1 C 3,7 C 9,7 km/h (2 Bft) 94,34 %
06.11.2017 19:02 3,7 C 7,2 C 96 % 1021,5 hPa 0,0 l/m 5,1 km/h (1 Bft) S 186 0 min 0,000 mm 0,0 UV-I 0 W/m 3,1 C 3,7 C 9,7 km/h (2 Bft) 95,45 %
06.11.2017 19:04 3,7 C 7,2 C 96 % 1021,5 hPa 0,0 l/m 7,7 km/h (2 Bft) S-SW 211 0 min 0,000 mm 0,0 UV-I 0 W/m 3,1 C 2,5 C 12,9 km/h (3 Bft) 95,12 %
06.11.2017 19:06 3,7 C 7,2 C 96 % 1021,5 hPa 0,2 l/m 9,9 km/h (2 Bft) SW 218 0 min 0,000 mm 0,0 UV-I 0 W/m 3,1 C 0,7 C 16,1 km/h (3 Bft) 88,00 %
06.11.2017 19:08 3,7 C 7,2 C 96 % 1021,5 hPa 0,0 l/m 7,7 km/h (2 Bft) S-SW 200 0 min 0,000 mm 0,0 UV-I 0 W/m 3,1 C 2,5 C 11,3 km/h (2 Bft) 94,00 %
06.11.2017 19:10 3,7 C 7,2 C 96 % 1021,6 hPa 0,0 l/m 7,5 km/h (2 Bft) S-SW 209 0 min 0,000 mm 0,0 UV-I 0 W/m 3,1 C 2,7 C 11,3 km/h (2 Bft) 91,49 %
06.11.2017 19:12 3,7 C 7,2 C 96 % 1021,7 hPa 0,0 l/m 6,4 km/h (2 Bft) S-SW 205 0 min 0,000 mm 0,0 UV-I 0 W/m 3,1 C 3,7 C 11,3 km/h (2 Bft) 95,12 %
06.11.2017 19:14 3,6 C 7,2 C 96 % 1021,7 hPa 0,0 l/m 8,5 km/h (2 Bft) S-SW 201 0 min 0,000 mm 0,0 UV-I 0 W/m 3,0 C 1,7 C 12,9 km/h (3 Bft) 96,23 %
06.11.2017 19:16 3,6 C 7,2 C 96 % 1021,7 hPa 0,0 l/m 7,3 km/h (2 Bft) S-SW 200 0 min 0,000 mm 0,0 UV-I 0 W/m 3,0 C 2,8 C 9,7 km/h (2 Bft) 95,83 %
06.11.2017 19:18 3,6 C 7,2 C 96 % 1021,6 hPa 0,0 l/m 7,2 km/h (2 Bft) S-SW 212 0 min 0,000 mm 0,0 UV-I 0 W/m 3,0 C 2,9 C 11,3 km/h (2 Bft) 93,55 %
06.11.2017 19:20 3,6 C 7,2 C 96 % 1021,6 hPa 0,2 l/m 6,6 km/h (2 Bft) SW 216 0 min 0,000 mm 0,0 UV-I 0 W/m 3,0 C 3,4 C 11,3 km/h (2 Bft) 94,23 %
06.11.2017 19:22 3,6 C 7,2 C 96 % 1021,6 hPa 0,0 l/m 7,5 km/h (2 Bft) S-SW 203 0 min 0,000 mm 0,0 UV-I 0 W/m 3,0 C 2,6 C 11,3 km/h (2 Bft) 97,44 %
06.11.2017 19:24 3,6 C 7,2 C 96 % 1021,6 hPa 0,0 l/m 8,0 km/h (2 Bft) S-SW 205 0 min 0,000 mm 0,0 UV-I 0 W/m 3,0 C 2,1 C 14,5 km/h (3 Bft) 98,28 %
06.11.2017 19:26 3,6 C 7,2 C 96 % 1021,6 hPa 0,0 l/m 7,3 km/h (2 Bft) S 187 0 min 0,000 mm 0,0 UV-I 0 W/m 3,0 C 2,8 C 11,3 km/h (2 Bft) 97,62 %
06.11.2017 19:28 3,6 C 7,2 C 96 % 1021,6 hPa 0,0 l/m 8,3 km/h (2 Bft) SW 225 0 min 0,000 mm 0,0 UV-I 0 W/m 3,0 C 1,9 C 11,3 km/h (2 Bft) 100,00 %
06.11.2017 19:30 3,6 C 7,2 C 96 % 1021,7 hPa 0,0 l/m 9,1 km/h (2 Bft) SW 232 0 min 0,000 mm 0,0 UV-I 0 W/m 3,0 C 1,2 C 12,9 km/h (3 Bft) 96,00 %
06.11.2017 19:32 3,6 C 7,2 C 96 % 1021,7 hPa 0,0 l/m 8,7 km/h (2 Bft) S-SW 205 0 min 0,000 mm 0,0 UV-I 0 W/m 3,0 C 1,5 C 11,3 km/h (2 Bft) 97,87 %
06.11.2017 19:34 3,6 C 7,2 C 96 % 1021,7 hPa 0,0 l/m 7,8 km/h (2 Bft) S-SW 209 0 min 0,000 mm 0,0 UV-I 0 W/m 3,0 C 2,3 C 11,3 km/h (2 Bft) 97,56 %
06.11.2017 19:36 3,6 C 7,2 C 96 % 1021,7 hPa 0,0 l/m 9,0 km/h (2 Bft) SW 219 0 min 0,000 mm 0,0 UV-I 0 W/m 3,0 C 1,3 C 12,9 km/h (3 Bft) 100,00 %
06.11.2017 19:38 3,6 C 7,2 C 96 % 1021,7 hPa 0,0 l/m 7,6 km/h (2 Bft) S-SW 204 0 min 0,000 mm 0,0 UV-I 0 W/m 3,0 C 2,5 C 11,3 km/h (2 Bft) 100,00 %
06.11.2017 19:40 3,6 C 7,2 C 96 % 1021,7 hPa 0,0 l/m 9,5 km/h (2 Bft) S-SW 194 0 min 0,000 mm 0,0 UV-I 0 W/m 3,0 C 0,9 C 14,5 km/h (3 Bft) 100,00 %
06.11.2017 19:42 3,6 C 7,2 C 96 % 1021,7 hPa 0,0 l/m 9,3 km/h (2 Bft) S-SW 198 0 min 0,000 mm 0,0 UV-I 0 W/m 3,0 C 1,1 C 12,9 km/h (3 Bft) 100,00 %
06.11.2017 19:44 3,6 C 7,2 C 96 % 1021,7 hPa 0,0 l/m 10,7 km/h (2 Bft) SW 215 0 min 0,000 mm 0,0 UV-I 0 W/m 3,0 C 0,0 C 16,1 km/h (3 Bft) 97,87 %
06.11.2017 19:46 3,5 C 7,2 C 96 % 1021,7 hPa 0,0 l/m 9,0 km/h (2 Bft) S-SW 200 0 min 0,000 mm 0,0 UV-I 0 W/m 2,9 C 1,2 C 14,5 km/h (3 Bft) 100,00 %
06.11.2017 19:48 3,5 C 7,2 C 96 % 1021,7 hPa 0,0 l/m 10,2 km/h (2 Bft) S-SW 209 0 min 0,000 mm 0,0 UV-I 0 W/m 2,9 C 0,3 C 17,7 km/h (3 Bft) 100,00 %
06.11.2017 19:50 3,5 C 7,2 C 96 % 1021,6 hPa 0,2 l/m 9,8 km/h (2 Bft) S-SW 207 0 min 0,000 mm 0,0 UV-I 0 W/m 2,9 C 0,6 C 14,5 km/h (3 Bft) 100,00 %
06.11.2017 19:52 3,5 C 7,2 C 96 % 1021,6 hPa 0,0 l/m 9,9 km/h (2 Bft) S-SW 205 0 min 0,000 mm 0,0 UV-I 0 W/m 2,9 C 0,5 C 14,5 km/h (3 Bft) 100,00 %
06.11.2017 19:54 3,5 C 7,2 C 96 % 1021,6 hPa 0,0 l/m 7,6 km/h (2 Bft) S-SW 207 0 min 0,000 mm 0,0 UV-I 0 W/m 2,9 C 2,4 C 11,3 km/h (2 Bft) 100,00 %
06.11.2017 19:56 3,5 C 7,2 C 96 % 1021,7 hPa 0,0 l/m 10,3 km/h (2 Bft) S 180 0 min 0,000 mm 0,0 UV-I 0 W/m 2,9 C 0,2 C 17,7 km/h (3 Bft) 100,00 %
06.11.2017 19:58 3,5 C 7,2 C 96 % 1021,7 hPa 0,0 l/m 11,7 km/h (2 Bft) SW 218 0 min 0,000 mm 0,0 UV-I 0 W/m 2,9 C -0,8 C 17,7 km/h (3 Bft) 100,00 %
06.11.2017 20:00 3,4 C 7,2 C 96 % 1021,7 hPa 0,0 l/m 11,3 km/h (2 Bft) SW 220 0 min 0,000 mm 0,0 UV-I 0 W/m 2,8 C -0,6 C 19,3 km/h (3 Bft) 100,00 %
06.11.2017 20:02 3,5 C 7,2 C 96 % 1021,7 hPa 0,0 l/m 10,5 km/h (2 Bft) SW 223 0 min 0,000 mm 0,0 UV-I 0 W/m 2,9 C 0,1 C 16,1 km/h (3 Bft) 100,00 %
06.11.2017 20:04 3,4 C 7,2 C 96 % 1021,7 hPa 0,0 l/m 11,3 km/h (2 Bft) S-SW 193 0 min 0,000 mm 0,0 UV-I 0 W/m 2,8 C -0,6 C 16,1 km/h (3 Bft) 100,00 %
06.11.2017 20:06 3,4 C 7,2 C 96 % 1021,7 hPa 0,0 l/m 9,1 km/h (2 Bft) S-SW 206 0 min 0,000 mm 0,0 UV-I 0 W/m 2,8 C 1,0 C 16,1 km/h (3 Bft) 96,23 %
06.11.2017 20:08 3,4 C 7,2 C 96 % 1021,7 hPa 0,0 l/m 8,4 km/h (2 Bft) S 185 0 min 0,000 mm 0,0 UV-I 0 W/m 2,8 C 1,6 C 16,1 km/h (3 Bft) 100,00 %
06.11.2017 20:10 3,4 C 7,2 C 96 % 1021,7 hPa 0,0 l/m 11,6 km/h (2 Bft) S-SW 209 0 min 0,000 mm 0,0 UV-I 0 W/m 2,8 C -0,8 C 14,5 km/h (3 Bft) 100,00 %
06.11.2017 20:12 3,4 C 7,2 C 96 % 1021,7 hPa 0,0 l/m 10,0 km/h (2 Bft) S-SW 210 0 min 0,000 mm 0,0 UV-I 0 W/m 2,8 C 0,3 C 14,5 km/h (3 Bft) 100,00 %
06.11.2017 20:14 3,4 C 7,2 C 96 % 1021,6 hPa 0,0 l/m 9,6 km/h (2 Bft) S 190 0 min 0,000 mm 0,0 UV-I 0 W/m 2,8 C 0,6 C 14,5 km/h (3 Bft) 100,00 %
06.11.2017 20:16 3,4 C 7,2 C 96 % 1021,6 hPa 0,2 l/m 9,1 km/h (2 Bft) SW 223 0 min 0,000 mm 0,0 UV-I 0 W/m 2,8 C 1,0 C 12,9 km/h (3 Bft) 100,00 %
06.11.2017 20:18 3,4 C 7,2 C 96 % 1021,6 hPa 0,0 l/m 9,5 km/h (2 Bft) SW 229 0 min 0,000 mm 0,0 UV-I 0 W/m 2,8 C 0,7 C 14,5 km/h (3 Bft) 100,00 %
06.11.2017 20:20 3,4 C 7,2 C 96 % 1021,5 hPa 0,0 l/m 9,7 km/h (2 Bft) S-SW 204 0 min 0,000 mm 0,0 UV-I 0 W/m 2,8 C 0,5 C 14,5 km/h (3 Bft) 100,00 %
06.11.2017 20:22 3,4 C 7,2 C 96 % 1021,6 hPa 0,0 l/m 9,4 km/h (2 Bft) SW 221 0 min 0,000 mm 0,0 UV-I 0 W/m 2,8 C 0,8 C 17,7 km/h (3 Bft) 92,11 %
06.11.2017 20:24 3,4 C 7,2 C 96 % 1021,6 hPa 0,0 l/m 8,5 km/h (2 Bft) S-SW 196 0 min 0,000 mm 0,0 UV-I 0 W/m 2,8 C 1,5 C 12,9 km/h (3 Bft) 100,00 %
06.11.2017 20:26 3,4 C 7,2 C 96 % 1021,6 hPa 0,0 l/m 9,1 km/h (2 Bft) SW 236 0 min 0,000 mm 0,0 UV-I 0 W/m 2,8 C 1,0 C 12,9 km/h (3 Bft) 100,00 %
06.11.2017 20:28 3,4 C 7,2 C 96 % 1021,6 hPa 0,0 l/m 10,1 km/h (2 Bft) S-SW 203 0 min 0,000 mm 0,0 UV-I 0 W/m 2,8 C 0,2 C 14,5 km/h (3 Bft) 98,11 %
06.11.2017 20:30 3,4 C 7,2 C 96 % 1021,7 hPa 0,0 l/m 11,5 km/h (2 Bft) SW 215 0 min 0,000 mm 0,0 UV-I 0 W/m 2,8 C -0,8 C 17,7 km/h (3 Bft) 100,00 %
06.11.2017 20:32 3,4 C 7,2 C 96 % 1021,7 hPa 0,0 l/m 8,6 km/h (2 Bft) SW 232 0 min 0,000 mm 0,0 UV-I 0 W/m 2,8 C 1,4 C 12,9 km/h (3 Bft) 100,00 %
06.11.2017 20:34 3,4 C 7,2 C 96 % 1021,7 hPa 0,0 l/m 9,3 km/h (2 Bft) S-SW 196 0 min 0,000 mm 0,0 UV-I 0 W/m 2,8 C 0,8 C 14,5 km/h (3 Bft) 100,00 %
06.11.2017 20:36 3,4 C 7,2 C 96 % 1021,8 hPa 0,0 l/m 9,3 km/h (2 Bft) S-SW 211 0 min 0,000 mm 0,0 UV-I 0 W/m 2,8 C 0,8 C 14,5 km/h (3 Bft) 100,00 %
06.11.2017 20:38 3,4 C 7,2 C 96 % 1021,7 hPa 0,0 l/m 10,3 km/h (2 Bft) S-SW 211 0 min 0,000 mm 0,0 UV-I 0 W/m 2,8 C 0,1 C 16,1 km/h (3 Bft) 100,00 %
06.11.2017 20:40 3,4 C 7,2 C 96 % 1021,7 hPa 0,0 l/m 8,4 km/h (2 Bft) S-SW 204 0 min 0,000 mm 0,0 UV-I 0 W/m 2,8 C 1,6 C 11,3 km/h (2 Bft) 100,00 %
06.11.2017 20:42 3,4 C 7,2 C 96 % 1021,7 hPa 0,0 l/m 8,5 km/h (2 Bft) W-SW 237 0 min 0,000 mm 0,0 UV-I 0 W/m 2,8 C 1,5 C 12,9 km/h (3 Bft) 100,00 %
06.11.2017 20:44 3,4 C 7,2 C 96 % 1021,7 hPa 0,0 l/m 8,9 km/h (2 Bft) SW 225 0 min 0,000 mm 0,0 UV-I 0 W/m 2,8 C 1,2 C 12,9 km/h (3 Bft) 98,00 %
06.11.2017 20:46 3,4 C 7,2 C 96 % 1021,7 hPa 0,0 l/m 7,5 km/h (2 Bft) S-SW 210 0 min 0,000 mm 0,0 UV-I 0 W/m 2,8 C 2,4 C 11,3 km/h (2 Bft) 100,00 %
06.11.2017 20:48 3,4 C 7,2 C 96 % 1021,7 hPa 0,0 l/m 6,8 km/h (2 Bft) SW 227 0 min 0,000 mm 0,0 UV-I 0 W/m 2,8 C 3,0 C 9,7 km/h (2 Bft) 100,00 %
06.11.2017 20:50 3,4 C 7,2 C 96 % 1021,7 hPa 0,0 l/m 7,5 km/h (2 Bft) SW 214 0 min 0,000 mm 0,0 UV-I 0 W/m 2,8 C 2,4 C 12,9 km/h (3 Bft) 100,00 %
06.11.2017 20:52 3,4 C 7,2 C 96 % 1021,6 hPa 0,0 l/m 6,7 km/h (2 Bft) S-SW 198 0 min 0,000 mm 0,0 UV-I 0 W/m 2,8 C 3,1 C 11,3 km/h (2 Bft) 98,21 %
06.11.2017 20:54 3,4 C 7,2 C 96 % 1021,6 hPa 0,0 l/m 6,1 km/h (2 Bft) SW 215 0 min 0,000 mm 0,0 UV-I 0 W/m 2,8 C 3,4 C 11,3 km/h (2 Bft) 98,00 %
06.11.2017 20:56 3,4 C 7,2 C 96 % 1021,6 hPa 0,0 l/m 8,5 km/h (2 Bft) S-SW 203 0 min 0,000 mm 0,0 UV-I 0 W/m 2,8 C 1,5 C 11,3 km/h (2 Bft) 97,87 %
06.11.2017 20:58 3,4 C 7,2 C 96 % 1021,7 hPa 0,0 l/m 8,2 km/h (2 Bft) SW 223 0 min 0,000 mm 0,0 UV-I 0 W/m 2,8 C 1,7 C 14,5 km/h (3 Bft) 94,74 %
06.11.2017 21:00 3,4 C 7,2 C 96 % 1021,7 hPa 0,0 l/m 7,2 km/h (2 Bft) SW 223 0 min 0,000 mm 0,0 UV-I 0 W/m 2,8 C 2,7 C 11,3 km/h (2 Bft) 96,55 %
06.11.2017 21:02 3,4 C 7,2 C 96 % 1021,7 hPa 0,0 l/m 7,5 km/h (2 Bft) SW 225 0 min 0,000 mm 0,0 UV-I 0 W/m 2,8 C 2,4 C 14,5 km/h (3 Bft) 97,18 %
06.11.2017 21:04 3,4 C 7,2 C 96 % 1021,7 hPa 0,0 l/m 10,1 km/h (2 Bft) SW 216 0 min 0,000 mm 0,0 UV-I 0 W/m 2,8 C 0,2 C 14,5 km/h (3 Bft) 95,12 %
06.11.2017 21:06 3,4 C 7,2 C 96 % 1021,7 hPa 0,0 l/m 6,7 km/h (2 Bft) W-SW 252 0 min 0,000 mm 0,0 UV-I 0 W/m 2,8 C 3,1 C 11,3 km/h (2 Bft) 98,11 %
06.11.2017 21:08 3,5 C 7,2 C 96 % 1021,7 hPa 0,0 l/m 8,2 km/h (2 Bft) SW 234 0 min 0,000 mm 0,0 UV-I 0 W/m 2,9 C 1,9 C 11,3 km/h (2 Bft) 97,37 %
06.11.2017 21:10 3,5 C 7,2 C 96 % 1021,8 hPa 0,0 l/m 7,1 km/h (2 Bft) W-SW 250 0 min 0,000 mm 0,0 UV-I 0 W/m 2,9 C 2,8 C 9,7 km/h (2 Bft) 98,00 %
06.11.2017 21:13 3,5 C 7,2 C 96 % 1021,8 hPa 0,0 l/m 5,3 km/h (1 Bft) S-SW 206 0 min 0,000 mm 0,0 UV-I 0 W/m 2,9 C 3,5 C 8,0 km/h (2 Bft) 98,46 %
06.11.2017 21:14 3,5 C 7,2 C 96 % 1021,8 hPa 0,0 l/m 4,5 km/h (1 Bft) S-SW 205 0 min 0,000 mm 0,0 UV-I 0 W/m 2,9 C 3,5 C 6,4 km/h (2 Bft) 96,15 %
06.11.2017 21:16 3,5 C 7,2 C 96 % 1021,8 hPa 0,0 l/m 6,1 km/h (2 Bft) S-SW 211 0 min 0,000 mm 0,0 UV-I 0 W/m 2,9 C 3,5 C 9,7 km/h (2 Bft) 96,23 %
06.11.2017 21:18 3,5 C 7,2 C 96 % 1021,8 hPa 0,2 l/m 7,7 km/h (2 Bft) S-SW 211 0 min 0,000 mm 0,0 UV-I 0 W/m 2,9 C 2,3 C 9,7 km/h (2 Bft) 97,44 %
06.11.2017 21:20 3,5 C 7,2 C 96 % 1021,7 hPa 0,0 l/m 7,2 km/h (2 Bft) S-SW 201 0 min 0,000 mm 0,0 UV-I 0 W/m 2,9 C 2,8 C 11,3 km/h (2 Bft) 96,36 %
06.11.2017 21:22 3,5 C 7,2 C 96 % 1021,7 hPa 0,0 l/m 4,9 km/h (1 Bft) SW 227 0 min 0,000 mm 0,0 UV-I 0 W/m 2,9 C 3,5 C 6,4 km/h (2 Bft) 94,00 %
06.11.2017 21:24 3,5 C 7,2 C 96 % 1021,7 hPa 0,0 l/m 5,2 km/h (1 Bft) SW 223 0 min 0,000 mm 0,0 UV-I 0 W/m 2,9 C 3,5 C 8,0 km/h (2 Bft) 97,87 %
06.11.2017 21:26 3,5 C 7,2 C 96 % 1021,7 hPa 0,0 l/m 5,8 km/h (2 Bft) SW 227 0 min 0,000 mm 0,0 UV-I 0 W/m 2,9 C 3,5 C 8,0 km/h (2 Bft) 97,78 %
06.11.2017 21:28 3,5 C 7,2 C 96 % 1021,7 hPa 0,0 l/m 4,7 km/h (1 Bft) W-SW 246 0 min 0,000 mm 0,0 UV-I 0 W/m 2,9 C 3,5 C 8,0 km/h (2 Bft) 97,56 %
06.11.2017 21:30 3,5 C 7,2 C 96 % 1021,7 hPa 0,0 l/m 4,4 km/h (1 Bft) W-SW 242 0 min 0,000 mm 0,0 UV-I 0 W/m 2,9 C 3,5 C 6,4 km/h (2 Bft) 95,74 %
06.11.2017 21:32 3,5 C 7,2 C 96 % 1021,7 hPa 0,0 l/m 5,2 km/h (1 Bft) SW 223 0 min 0,000 mm 0,0 UV-I 0 W/m 2,9 C 3,5 C 6,4 km/h (2 Bft) 98,00 %
06.11.2017 21:34 3,5 C 7,2 C 96 % 1021,7 hPa 0,0 l/m 6,0 km/h (2 Bft) SW 231 0 min 0,000 mm 0,0 UV-I 0 W/m 2,9 C 3,5 C 11,3 km/h (2 Bft) 97,73 %
06.11.2017 21:36 3,5 C 7,2 C 96 % 1021,7 hPa 0,0 l/m 5,8 km/h (2 Bft) W-SW 252 0 min 0,000 mm 0,0 UV-I 0 W/m 2,9 C 3,5 C 8,0 km/h (2 Bft) 100,00 %
06.11.2017 21:38 3,5 C 7,2 C 96 % 1021,7 hPa 0,0 l/m 5,8 km/h (2 Bft) SW 234 0 min 0,000 mm 0,0 UV-I 0 W/m 2,9 C 3,5 C 9,7 km/h (2 Bft) 100,00 %
06.11.2017 21:40 3,6 C 7,2 C 96 % 1021,7 hPa 0,0 l/m 5,9 km/h (2 Bft) W-SW 250 0 min 0,000 mm 0,0 UV-I 0 W/m 3,0 C 3,6 C 11,3 km/h (2 Bft) 98,11 %
06.11.2017 21:42 3,5 C 7,2 C 96 % 1021,8 hPa 0,0 l/m 7,8 km/h (2 Bft) SW 227 0 min 0,000 mm 0,0 UV-I 0 W/m 2,9 C 2,2 C 11,3 km/h (2 Bft) 100,00 %
06.11.2017 21:44 3,5 C 7,2 C 96 % 1021,7 hPa 0,0 l/m 6,4 km/h (2 Bft) S-SW 202 0 min 0,000 mm 0,0 UV-I 0 W/m 2,9 C 3,5 C 9,7 km/h (2 Bft) 100,00 %
06.11.2017 21:46 3,5 C 7,2 C 96 % 1021,7 hPa 0,0 l/m 5,3 km/h (1 Bft) S-SW 194 0 min 0,000 mm 0,0 UV-I 0 W/m 2,9 C 3,5 C 8,0 km/h (2 Bft) 100,00 %
06.11.2017 21:48 3,5 C 7,2 C 96 % 1021,7 hPa 0,0 l/m 5,8 km/h (2 Bft) W-SW 243 0 min 0,000 mm 0,0 UV-I 0 W/m 2,9 C 3,5 C 9,7 km/h (2 Bft) 100,00 %
06.11.2017 21:50 3,5 C 7,2 C 96 % 1021,7 hPa 0,0 l/m 5,8 km/h (2 Bft) SW 215 0 min 0,000 mm 0,0 UV-I 0 W/m 2,9 C 3,5 C 9,7 km/h (2 Bft) 100,00 %
06.11.2017 21:52 3,5 C 7,2 C 96 % 1021,7 hPa 0,0 l/m 7,8 km/h (2 Bft) S-SW 213 0 min 0,000 mm 0,0 UV-I 0 W/m 2,9 C 2,2 C 12,9 km/h (3 Bft) 100,00 %
06.11.2017 21:54 3,5 C 7,2 C 96 % 1021,7 hPa 0,0 l/m 7,5 km/h (2 Bft) S-SW 196 0 min 0,000 mm 0,0 UV-I 0 W/m 2,9 C 2,5 C 9,7 km/h (2 Bft) 100,00 %
06.11.2017 21:56 3,5 C 7,2 C 96 % 1021,7 hPa 0,0 l/m 6,8 km/h (2 Bft) S-SW 211 0 min 0,000 mm 0,0 UV-I 0 W/m 2,9 C 3,1 C 9,7 km/h (2 Bft) 95,74 %
06.11.2017 21:58 3,5 C 7,2 C 96 % 1021,7 hPa 0,0 l/m 5,5 km/h (1 Bft) S-SW 208 0 min 0,000 mm 0,0 UV-I 0 W/m 2,9 C 3,5 C 8,0 km/h (2 Bft) 97,56 %
06.11.2017 22:00 3,6 C 7,2 C 96 % 1021,7 hPa 0,0 l/m 5,9 km/h (2 Bft) SW 225 0 min 0,000 mm 0,0 UV-I 0 W/m 3,0 C 3,6 C 8,0 km/h (2 Bft) 97,87 %
06.11.2017 22:02 3,5 C 7,2 C 96 % 1021,7 hPa 0,0 l/m 7,1 km/h (2 Bft) S-SW 209 0 min 0,000 mm 0,0 UV-I 0 W/m 2,9 C 2,8 C 12,9 km/h (3 Bft) 98,00 %
06.11.2017 22:04 3,6 C 7,2 C 96 % 1021,7 hPa 0,0 l/m 7,1 km/h (2 Bft) W-SW 241 0 min 0,000 mm 0,0 UV-I 0 W/m 3,0 C 3,0 C 11,3 km/h (2 Bft) 96,00 %
06.11.2017 22:06 3,6 C 7,2 C 96 % 1021,7 hPa 0,0 l/m 6,0 km/h (2 Bft) SW 226 0 min 0,000 mm 0,0 UV-I 0 W/m 3,0 C 3,6 C 11,3 km/h (2 Bft) 96,00 %
06.11.2017 22:08 3,6 C 7,2 C 96 % 1021,7 hPa 0,0 l/m 6,3 km/h (2 Bft) S-SW 208 0 min 0,000 mm 0,0 UV-I 0 W/m 3,0 C 3,6 C 11,3 km/h (2 Bft) 97,87 %
06.11.2017 22:10 3,6 C 7,2 C 96 % 1021,8 hPa 0,0 l/m 9,0 km/h (2 Bft) S-SW 200 0 min 0,000 mm 0,0 UV-I 0 W/m 3,0 C 1,3 C 12,9 km/h (3 Bft) 97,87 %
06.11.2017 22:12 3,6 C 7,2 C 96 % 1021,8 hPa 0,0 l/m 6,9 km/h (2 Bft) S-SW 211 0 min 0,000 mm 0,0 UV-I 0 W/m 3,0 C 3,1 C 9,7 km/h (2 Bft) 97,14 %
06.11.2017 22:14 3,6 C 7,2 C 96 % 1021,8 hPa 0,0 l/m 7,0 km/h (2 Bft) SW 215 0 min 0,000 mm 0,0 UV-I 0 W/m 3,0 C 3,0 C 11,3 km/h (2 Bft) 97,87 %
06.11.2017 22:16 3,6 C 7,2 C 96 % 1021,8 hPa 0,0 l/m 8,8 km/h (2 Bft) S-SW 207 0 min 0,000 mm 0,0 UV-I 0 W/m 3,0 C 1,5 C 11,3 km/h (2 Bft) 98,11 %
06.11.2017 22:18 3,6 C 7,2 C 96 % 1021,8 hPa 0,0 l/m 4,8 km/h (1 Bft) S-SW 203 0 min 0,000 mm 0,0 UV-I 0 W/m 3,0 C 3,6 C 9,7 km/h (2 Bft) 93,62 %
06.11.2017 22:20 3,6 C 7,2 C 96 % 1021,8 hPa 0,0 l/m 7,9 km/h (2 Bft) S-SW 207 0 min 0,000 mm 0,0 UV-I 0 W/m 3,0 C 2,2 C 11,3 km/h (2 Bft) 97,56 %
06.11.2017 22:22 3,6 C 7,2 C 96 % 1021,9 hPa 0,0 l/m 5,6 km/h (1 Bft) S-SW 198 0 min 0,000 mm 0,0 UV-I 0 W/m 3,0 C 3,6 C 9,7 km/h (2 Bft) 96,43 %
06.11.2017 22:24 3,6 C 7,2 C 96 % 1021,8 hPa 0,0 l/m 5,0 km/h (1 Bft) S-SW 212 0 min 0,000 mm 0,0 UV-I 0 W/m 3,0 C 3,6 C 8,0 km/h (2 Bft) 97,37 %
06.11.2017 22:26 3,6 C 7,2 C 96 % 1021,8 hPa 0,0 l/m 6,0 km/h (2 Bft) SW 228 0 min 0,000 mm 0,0 UV-I 0 W/m 3,0 C 3,6 C 9,7 km/h (2 Bft) 97,87 %
06.11.2017 22:28 3,6 C 7,2 C 96 % 1021,8 hPa 0,0 l/m 8,5 km/h (2 Bft) S-SW 202 0 min 0,000 mm 0,0 UV-I 0 W/m 3,0 C 1,7 C 12,9 km/h (3 Bft) 95,74 %
06.11.2017 22:30 3,6 C 7,2 C 96 % 1021,8 hPa 0,0 l/m 7,1 km/h (2 Bft) SW 215 0 min 0,000 mm 0,0 UV-I 0 W/m 3,0 C 3,0 C 8,0 km/h (2 Bft) 96,43 %
06.11.2017 22:32 3,6 C 7,2 C 96 % 1021,8 hPa 0,0 l/m 5,7 km/h (1 Bft) S-SW 205 0 min 0,000 mm 0,0 UV-I 0 W/m 3,0 C 3,6 C 11,3 km/h (2 Bft) 97,37 %
06.11.2017 22:34 3,6 C 7,2 C 96 % 1021,8 hPa 0,0 l/m 6,7 km/h (2 Bft) S-SW 207 0 min 0,000 mm 0,0 UV-I 0 W/m 3,0 C 3,3 C 11,3 km/h (2 Bft) 98,11 %
06.11.2017 22:36 3,6 C 7,2 C 96 % 1021,8 hPa 0,0 l/m 5,3 km/h (1 Bft) SW 234 0 min 0,000 mm 0,0 UV-I 0 W/m 3,0 C 3,6 C 8,0 km/h (2 Bft) 98,00 %
06.11.2017 22:38 3,6 C 7,2 C 96 % 1021,7 hPa 0,0 l/m 4,3 km/h (1 Bft) W-SW 242 0 min 0,000 mm 0,0 UV-I 0 W/m 3,0 C 3,6 C 6,4 km/h (2 Bft) 97,56 %
06.11.2017 22:40 3,6 C 7,2 C 96 % 1021,7 hPa 0,0 l/m 5,3 km/h (1 Bft) SW 229 0 min 0,000 mm 0,0 UV-I 0 W/m 3,0 C 3,6 C 8,0 km/h (2 Bft) 93,75 %
06.11.2017 22:42 3,6 C 7,2 C 96 % 1021,7 hPa 0,0 l/m 6,3 km/h (2 Bft) SW 230 0 min 0,000 mm 0,0 UV-I 0 W/m 3,0 C 3,6 C 8,0 km/h (2 Bft) 94,34 %
06.11.2017 22:44 3,6 C 7,2 C 96 % 1021,7 hPa 0,0 l/m 5,8 km/h (2 Bft) SW 215 0 min 0,000 mm 0,0 UV-I 0 W/m 3,0 C 3,6 C 8,0 km/h (2 Bft) 94,74 %
06.11.2017 22:46 3,6 C 7,2 C 96 % 1021,7 hPa 0,0 l/m 4,8 km/h (1 Bft) S-SW 200 0 min 0,000 mm 0,0 UV-I 0 W/m 3,0 C 3,6 C 6,4 km/h (2 Bft) 98,00 %
06.11.2017 22:48 3,6 C 7,2 C 96 % 1021,7 hPa 0,0 l/m 5,0 km/h (1 Bft) W-SW 240 0 min 0,000 mm 0,0 UV-I 0 W/m 3,0 C 3,6 C 6,4 km/h (2 Bft) 97,56 %
06.11.2017 22:50 3,6 C 7,2 C 96 % 1021,7 hPa 0,0 l/m 4,9 km/h (1 Bft) SW 227 0 min 0,000 mm 0,0 UV-I 0 W/m 3,0 C 3,6 C 6,4 km/h (2 Bft) 97,56 %
06.11.2017 22:52 3,6 C 7,2 C 96 % 1021,7 hPa 0,0 l/m 5,5 km/h (1 Bft) SW 236 0 min 0,000 mm 0,0 UV-I 0 W/m 3,0 C 3,6 C 9,7 km/h (2 Bft) 96,77 %
06.11.2017 22:54 3,6 C 7,2 C 96 % 1021,7 hPa 0,0 l/m 4,9 km/h (1 Bft) SW 234 0 min 0,000 mm 0,0 UV-I 0 W/m 3,0 C 3,6 C 8,0 km/h (2 Bft) 97,56 %
06.11.2017 22:56 3,6 C 7,2 C 96 % 1021,7 hPa 0,0 l/m 4,4 km/h (1 Bft) S-SO 156 0 min 0,000 mm 0,0 UV-I 0 W/m 3,0 C 3,6 C 6,4 km/h (2 Bft) 98,00 %
06.11.2017 22:58 3,5 C 7,2 C 96 % 1021,8 hPa 0,0 l/m 6,5 km/h (2 Bft) S-SW 205 0 min 0,000 mm 0,0 UV-I 0 W/m 2,9 C 3,4 C 9,7 km/h (2 Bft) 95,45 %
06.11.2017 23:00 3,5 C 7,2 C 97 % 1021,8 hPa 0,0 l/m 6,3 km/h (2 Bft) S-SW 207 0 min 0,000 mm 0,0 UV-I 0 W/m 3,1 C 3,5 C 9,7 km/h (2 Bft) 96,55 %
06.11.2017 23:02 3,5 C 7,2 C 97 % 1021,8 hPa 0,0 l/m 5,8 km/h (2 Bft) S-SW 209 0 min 0,000 mm 0,0 UV-I 0 W/m 3,1 C 3,5 C 9,7 km/h (2 Bft) 98,53 %
06.11.2017 23:04 3,5 C 7,2 C 97 % 1021,8 hPa 0,0 l/m 7,1 km/h (2 Bft) S-SW 213 0 min 0,000 mm 0,0 UV-I 0 W/m 3,1 C 2,8 C 11,3 km/h (2 Bft) 95,12 %
06.11.2017 23:06 3,6 C 7,2 C 97 % 1021,8 hPa 0,0 l/m 6,1 km/h (2 Bft) S-SW 208 0 min 0,000 mm 0,0 UV-I 0 W/m 3,2 C 3,6 C 9,7 km/h (2 Bft) 96,43 %
06.11.2017 23:08 3,5 C 7,2 C 97 % 1021,8 hPa 0,0 l/m 6,9 km/h (2 Bft) S-SW 207 0 min 0,000 mm 0,0 UV-I 0 W/m 3,1 C 3,0 C 11,3 km/h (2 Bft) 92,11 %
06.11.2017 23:10 3,5 C 7,2 C 97 % 1021,8 hPa 0,0 l/m 5,6 km/h (1 Bft) S-SW 203 0 min 0,000 mm 0,0 UV-I 0 W/m 3,1 C 3,5 C 8,0 km/h (2 Bft) 100,00 %
06.11.2017 23:12 3,5 C 7,2 C 97 % 1021,7 hPa 0,0 l/m 6,2 km/h (2 Bft) S-SW 196 0 min 0,000 mm 0,0 UV-I 0 W/m 3,1 C 3,5 C 9,7 km/h (2 Bft) 97,87 %
06.11.2017 23:14 3,5 C 7,2 C 97 % 1021,7 hPa 0,0 l/m 5,8 km/h (2 Bft) SW 218 0 min 0,000 mm 0,0 UV-I 0 W/m 3,1 C 3,5 C 9,7 km/h (2 Bft) 96,00 %
06.11.2017 23:16 3,5 C 7,2 C 97 % 1021,7 hPa 0,0 l/m 5,0 km/h (1 Bft) SW 227 0 min 0,000 mm 0,0 UV-I 0 W/m 3,1 C 3,5 C 8,0 km/h (2 Bft) 97,56 %
06.11.2017 23:18 3,5 C 7,2 C 97 % 1021,7 hPa 0,0 l/m 4,8 km/h (1 Bft) SW 231 0 min 0,000 mm 0,0 UV-I 0 W/m 3,1 C 3,5 C 8,0 km/h (2 Bft) 97,62 %
06.11.2017 23:20 3,5 C 7,2 C 97 % 1021,7 hPa 0,0 l/m 5,5 km/h (1 Bft) S-SW 205 0 min 0,000 mm 0,0 UV-I 0 W/m 3,1 C 3,5 C 9,7 km/h (2 Bft) 98,21 %
06.11.2017 23:22 3,5 C 7,2 C 97 % 1021,8 hPa 0,0 l/m 6,3 km/h (2 Bft) S-SW 207 0 min 0,000 mm 0,0 UV-I 0 W/m 3,1 C 3,5 C 9,7 km/h (2 Bft) 95,74 %
06.11.2017 23:24 3,5 C 7,2 C 97 % 1021,8 hPa 0,0 l/m 7,2 km/h (2 Bft) S 169 0 min 0,000 mm 0,0 UV-I 0 W/m 3,1 C 2,8 C 9,7 km/h (2 Bft) 97,56 %
06.11.2017 23:26 3,5 C 7,2 C 97 % 1021,8 hPa 0,0 l/m 6,9 km/h (2 Bft) S-SW 206 0 min 0,000 mm 0,0 UV-I 0 W/m 3,1 C 3,0 C 9,7 km/h (2 Bft) 98,11 %
06.11.2017 23:28 3,5 C 7,2 C 97 % 1021,8 hPa 0,0 l/m 4,0 km/h (1 Bft) S-SW 206 0 min 0,000 mm 0,0 UV-I 0 W/m 3,1 C 3,5 C 6,4 km/h (2 Bft) 96,00 %
06.11.2017 23:30 3,5 C 7,2 C 97 % 1021,8 hPa 0,0 l/m 4,3 km/h (1 Bft) S-SW 208 0 min 0,000 mm 0,0 UV-I 0 W/m 3,1 C 3,5 C 8,0 km/h (2 Bft) 100,00 %
06.11.2017 23:32 3,6 C 7,2 C 97 % 1021,8 hPa 0,0 l/m 4,7 km/h (1 Bft) SW 214 0 min 0,000 mm 0,0 UV-I 0 W/m 3,2 C 3,6 C 6,4 km/h (2 Bft) 97,56 %
06.11.2017 23:34 3,6 C 7,2 C 97 % 1021,8 hPa 0,2 l/m 4,6 km/h (1 Bft) W 261 0 min 0,000 mm 0,0 UV-I 0 W/m 3,2 C 3,6 C 6,4 km/h (2 Bft) 98,00 %
06.11.2017 23:36 3,6 C 7,2 C 97 % 1021,8 hPa 0,0 l/m 5,7 km/h (1 Bft) SW 227 0 min 0,000 mm 0,0 UV-I 0 W/m 3,2 C 3,6 C 9,7 km/h (2 Bft) 97,56 %
06.11.2017 23:38 3,6 C 7,2 C 97 % 1021,7 hPa 0,0 l/m 5,0 km/h (1 Bft) SW 223 0 min 0,000 mm 0,0 UV-I 0 W/m 3,2 C 3,6 C 8,0 km/h (2 Bft) 100,00 %
06.11.2017 23:40 3,6 C 7,2 C 97 % 1021,7 hPa 0,0 l/m 5,2 km/h (1 Bft) SW 227 0 min 0,000 mm 0,0 UV-I 0 W/m 3,2 C 3,6 C 9,7 km/h (2 Bft) 98,11 %
06.11.2017 23:42 3,5 C 7,2 C 97 % 1021,8 hPa 0,0 l/m 6,5 km/h (2 Bft) S-SW 207 0 min 0,000 mm 0,0 UV-I 0 W/m 3,1 C 3,4 C 12,9 km/h (3 Bft) 100,00 %
06.11.2017 23:44 3,6 C 7,2 C 97 % 1021,8 hPa 0,0 l/m 4,4 km/h (1 Bft) S-SW 212 0 min 0,000 mm 0,0 UV-I 0 W/m 3,2 C 3,6 C 6,4 km/h (2 Bft) 94,29 %
06.11.2017 23:46 3,6 C 7,2 C 97 % 1021,8 hPa 0,0 l/m 4,2 km/h (1 Bft) S-SW 211 0 min 0,000 mm 0,0 UV-I 0 W/m 3,2 C 3,6 C 6,4 km/h (2 Bft) 100,00 %
06.11.2017 23:48 3,6 C 7,2 C 97 % 1021,8 hPa 0,0 l/m 4,8 km/h (1 Bft) S-SW 211 0 min 0,000 mm 0,0 UV-I 0 W/m 3,2 C 3,6 C 6,4 km/h (2 Bft) 98,00 %
06.11.2017 23:50 3,6 C 7,2 C 97 % 1021,7 hPa 0,0 l/m 3,4 km/h (1 Bft) S-SW 211 0 min 0,000 mm 0,0 UV-I 0 W/m 3,2 C 3,6 C 4,8 km/h (1 Bft) 97,37 %
06.11.2017 23:52 3,6 C 7,2 C 97 % 1021,7 hPa 0,0 l/m 4,9 km/h (1 Bft) S-SW 211 0 min 0,000 mm 0,0 UV-I 0 W/m 3,2 C 3,6 C 6,4 km/h (2 Bft) 100,00 %
06.11.2017 23:54 3,6 C 7,2 C 97 % 1021,7 hPa 0,0 l/m 2,7 km/h (1 Bft) S-SW 205 0 min 0,000 mm 0,0 UV-I 0 W/m 3,2 C 3,6 C 4,8 km/h (1 Bft) 100,00 %
06.11.2017 23:56 3,6 C 7,2 C 97 % 1021,8 hPa 0,0 l/m 4,1 km/h (1 Bft) S-SW 204 0 min 0,000 mm 0,0 UV-I 0 W/m 3,2 C 3,6 C 6,4 km/h (2 Bft) 98,00 %
06.11.2017 23:58 3,6 C 7,2 C 97 % 1021,8 hPa 0,0 l/m 4,3 km/h (1 Bft) S-SW 207 0 min 0,000 mm 0,0 UV-I 0 W/m 3,2 C 3,6 C 6,4 km/h (2 Bft) 100,00 %
_ Min-Zeit 20:00 01:10 00:00 00:00 - 18:26 - - - - - - 20:00 07:44 23:50 15:18
Minimum _ 3,4 C 7,2 C 92 % 1012,8 hPa - 1,7 km/h (1 Bft) - - - - - - 2,8 C -5,7 C 4,8 km/h (1 Bft) 84,21 %
_ Max-Zeit 00:00 00:00 23:00 22:22 00:12 07:44 - - 00:00 09:00 00:00 12:14 01:00 12:54 06:24 00:16
Maximum _ 5,6 C 7,8 C 97 % 1021,9 hPa 0,2 l/m 22,4 km/h
SW (4 Bft)
- - 0 min 0,026 mm 0,0 UV-I 98 W/m 4,7 C 4,7 C 33,8 km/h
SW (5 Bft)
100,00 %
Durchschnitt _ 4,4 C 7,2 C 95 % 1018,0 hPa #11,2 l/m 11,5 km/h (2 Bft) SW - #0 min. #0,178 mm 0,0 UV-I 43 W/m 3,6 C 0,6 C 17,9 km/h (3 Bft) 97,80 %